[[{"header":{"parameterUnit":"m.s-1","parameterCategory":1,"la1":30.6,"la2":28.766,"lo1":-90.7593,"lo2":-88.6598,"dx":0.0162,"dy":0.0183,"nx":116,"ny":114,"refTime":"2022-12-08T06:00:00:Z","depth":0,"parameterNumber":2,"parameterNumberName":"U-component_of_WINDS"},"data":[0.0,0.0,0.0,0.0,0.0,0.0,0.0,0.0,0.0,0.0,0.0,0.0,0.0,0.0,0.0,0.0,0.0,0.0,0.0,0.0,0.0,0.0,0.0,0.0,0.0,0.0,0.0,0.0,0.0,0.0,0.0,0.0,0.0,0.0,0.0,0.0,0.0,0.0,0.0,0.0,0.0,0.0,0.0,0.0,0.0,0.0,0.0,0.0,0.0,0.0,0.0,0.0,0.0,0.0,0.0,0.0,0.0,0.0,0.0,0.0,0.0,0.0,0.0,0.0,0.0,0.0,0.0,0.0,0.0,0.0,0.0,0.0,0.0,0.0,0.0,0.0,0.0,0.0,0.0,0.0,0.0,0.0,0.0,0.0,0.0,0.0,0.0,0.0,0.0,0.0,0.0,0.0,0.0,0.0,0.0,0.0,0.0,0.0,0.0,0.0,0.0,0.0,0.0,0.0,0.0,0.0,0.0,0.0,0.0,0.0,0.0,0.0,0.0,0.0,0.0,0.0,0.0,0.0,0.0,0.0,0.0,0.0,0.0,0.0,0.0,0.0,0.0,0.0,0.0,0.0,0.0,0.0,0.0,0.0,0.0,0.0,0.0,0.0,0.0,0.0,0.0,0.0,0.0,0.0,0.0,0.0,0.0,0.0,0.0,0.0,0.0,0.0,0.0,0.0,0.0,0.0,0.0,0.0,0.0,0.0,0.0,0.0,0.0,0.0,0.0,0.0,0.0,0.0,0.0,0.0,0.0,0.0,0.0,0.0,0.0,0.0,0.0,0.0,0.0,0.0,0.0,0.0,0.0,0.0,0.0,0.0,0.0,0.0,0.0,0.0,0.0,0.0,0.0,0.0,0.0,0.0,0.0,0.0,0.0,0.0,0.0,0.0,0.0,0.0,0.0,0.0,0.0,0.0,0.0,0.0,0.0,0.0,0.0,0.0,0.0,0.0,0.0,0.0,0.0,0.0,0.0,0.0,0.0,0.0,0.0,0.0,0.0,0.0,0.0,0.0,0.0,0.0,0.0,0.0,0.0,0.0,0.0,0.0,0.0,0.0,0.0,0.0,0.0,0.0,0.0,0.0,0.0,0.0,0.0,0.0,0.0,0.0,0.0,0.0,0.0,0.0,0.0,0.0,0.0,0.0,0.0,0.0,0.0,0.0,0.0,0.0,0.0,0.0,0.0,0.0,0.0,0.0,0.0,0.0,0.0,0.0,0.0,0.0,0.0,0.0,0.0,0.0,0.0,0.0,0.0,0.0,0.0,0.0,0.0,0.0,0.0,0.0,0.0,0.0,0.0,0.0,0.0,0.0,0.0,0.0,0.0,0.0,0.0,0.0,0.0,0.0,0.0,0.0,0.0,0.0,0.0,0.0,0.0,0.0,0.0,0.0,0.0,0.0,0.0,0.0,0.0,0.0,0.0,0.0,0.0,0.0,0.0,0.0,0.0,0.0,0.0,0.0,0.0,0.0,0.0,0.0,0.0,0.0,0.0,0.0,0.0,0.0,0.0,0.0,0.0,0.0,0.0,0.0,0.0,0.0,0.0,0.0,0.0,0.0,0.0,0.0,0.0,0.0,0.0,0.0,0.0,0.0,0.0,0.0,0.0,0.0,0.0,0.0,0.0,0.0,0.0,0.0,0.0,0.0,0.0,0.0,0.0,0.0,0.0,0.0,0.0,0.0,0.0,0.0,0.0,0.0,0.0,0.0,0.0,0.0,0.0,0.0,0.0,0.0,0.0,0.0,0.0,0.0,0.0,0.0,0.0,0.0,0.0,0.0,0.0,0.0,0.0,0.0,0.0,0.0,0.0,0.0,0.0,0.0,0.0,0.0,0.0,0.0,0.0,0.0,0.0,0.0,0.0,0.0,0.0,0.0,0.0,0.0,0.0,0.0,0.0,0.0,0.0,0.0,0.0,0.0,0.0,0.0,0.0,0.0,0.0,0.0,0.0,0.0,0.0,0.0,0.0,0.0,0.0,0.0,0.0,0.0,0.0,0.0,0.0,0.0,0.0,0.0,0.0,0.0,0.0,0.0,0.0,0.0,0.0,0.0,0.0,0.0,0.0,0.0,0.0,0.0,0.0,0.0,0.0,0.0,0.0,0.0,0.0,0.0,0.0,0.0,0.0,0.0,0.0,0.0,0.0,0.0,0.0,0.0,0.0,0.0,0.0,0.0,0.0,0.0,0.0,0.0,0.0,0.0,0.0,0.0,0.0,0.0,0.0,0.0,0.0,0.0,0.0,0.0,0.0,0.0,0.0,0.0,0.0,0.0,0.0,0.0,0.0,0.0,0.0,0.0,0.0,0.0,0.0,0.0,0.0,0.0,0.0,0.0,0.0,0.0,0.0,0.0,0.0,0.0,0.0,0.0,0.0,0.0,0.0,0.0,0.0,0.0,0.0,0.0,0.0,0.0,0.0,0.0,0.0,0.0,0.0,0.0,0.0,0.0,0.0,0.0,0.0,0.0,0.0,0.0,0.0,0.0,0.0,0.0,0.0,0.0,0.0,0.0,0.0,0.0,0.0,0.0,0.0,0.0,0.0,0.0,0.0,0.0,0.0,0.0,0.0,0.0,0.0,0.0,0.0,0.0,0.0,0.0,0.0,0.0,0.0,0.0,0.0,0.0,0.0,0.0,0.0,0.0,0.0,0.0,0.0,0.0,0.0,0.0,0.0,0.0,0.0,0.0,0.0,0.0,0.0,0.0,0.0,0.0,0.0,0.0,0.0,0.0,0.0,0.0,0.0,0.0,0.0,0.0,0.0,0.0,0.0,0.0,0.0,0.0,0.0,0.0,0.0,0.0,0.0,0.0,0.0,0.0,0.0,0.0,0.0,0.0,0.0,0.0,0.0,0.0,0.0,0.0,0.0,0.0,0.0,0.0,0.0,0.0,0.0,0.0,0.0,0.0,0.0,0.0,0.0,0.0,0.0,0.0,0.0,0.0,0.0,0.0,0.0,0.0,0.0,0.0,0.0,0.0,0.0,0.0,0.0,0.0,0.0,0.0,0.0,0.0,0.0,0.0,0.0,0.0,0.0,0.0,0.0,0.0,0.0,0.0,0.0,0.0,0.0,0.0,0.0,0.0,0.0,0.0,0.0,0.0,0.0,0.0,0.0,0.0,0.0,0.0,0.0,0.0,0.0,0.0,0.0,0.0,0.0,0.0,0.0,0.0,0.0,0.0,0.0,0.0,0.0,0.0,0.0,0.0,0.0,0.0,0.0,0.0,0.0,0.0,0.0,0.0,0.0,0.0,0.0,0.0,0.0,0.0,0.0,0.0,0.0,0.0,0.0,0.0,0.0,0.0,0.0,0.0,0.0,0.0,0.0,0.0,0.0,0.0,0.0,0.0,0.0,0.0,0.0,0.0,0.0,0.0,0.0,0.0,0.0,0.0,0.0,0.0,0.0,0.0,0.0,0.0,0.0,0.0,0.0,0.0,0.0,0.0,0.0,0.0,0.0,0.0,0.0,0.0,0.0,0.0,0.0,0.0,0.0,0.0,0.0,0.0,0.0,0.0,0.0,0.0,0.0,0.0,0.0,0.0,0.0,0.0,0.0,0.0,0.0,0.0,0.0,0.0,0.0,0.0,0.0,0.0,0.0,0.0,0.0,0.0,0.0,0.0,0.0,0.0,0.0,0.0,0.0,0.0,0.0,0.0,0.0,0.0,0.0,0.0,0.0,0.0,0.0,0.0,0.0,0.0,0.0,0.0,0.0,0.0,0.0,0.0,0.0,0.0,0.0,0.0,0.0,0.0,0.0,0.0,0.0,0.0,0.0,0.0,0.0,0.0,0.0,0.0,0.0,0.0,0.0,0.0,0.0,0.0,0.0,0.0,0.0,0.0,0.0,0.0,0.0,0.0,0.0,0.0,0.0,0.0,0.0,0.0,0.0,0.0,0.0,0.0,0.0,0.0,0.0,0.0,0.0,0.0,0.0,0.0,0.0,0.0,0.0,0.0,0.0,0.0,0.0,0.0,0.0,0.0,0.0,0.0,0.0,0.0,0.0,0.0,0.0,0.0,0.0,0.0,0.0,0.0,0.0,0.0,0.0,0.0,0.0,0.0,0.0,0.0,0.0,0.0,0.0,0.0,0.0,0.0,0.0,0.0,0.0,0.0,0.0,0.0,0.0,0.0,0.0,0.0,0.0,0.0,0.0,0.0,0.0,0.0,0.0,0.0,0.0,0.0,0.0,0.0,0.0,0.0,0.0,0.0,0.0,0.0,0.0,0.0,0.0,0.0,0.0,0.0,0.0,0.0,0.0,0.0,0.0,0.0,0.0,0.0,0.0,0.0,0.0,0.0,0.0,0.0,0.0,0.0,0.0,0.0,0.0,0.0,0.0,0.0,0.0,0.0,0.0,0.0,0.0,0.0,0.0,0.0,0.0,0.0,0.0,0.0,0.0,0.0,0.0,0.0,0.0,0.0,0.0,0.0,0.0,0.0,0.0,0.0,0.0,0.0,0.0,0.0,0.0,0.0,0.0,0.0,0.0,0.0,0.0,0.0,0.0,0.0,0.0,0.0,0.0,0.0,0.0,0.0,0.0,0.0,0.0,0.0,0.0,0.0,0.0,0.0,0.0,0.0,0.0,0.0,0.0,0.0,0.0,0.0,0.0,0.0,0.0,0.0,0.0,0.0,0.0,0.0,0.0,0.0,0.0,0.0,0.0,0.0,0.0,0.0,0.0,0.0,0.0,0.0,0.0,0.0,0.0,0.0,0.0,0.0,0.0,0.0,0.0,0.0,0.0,0.0,0.0,0.0,0.0,0.0,0.0,0.0,0.0,0.0,0.0,0.0,0.0,0.0,0.0,0.0,0.0,0.0,0.0,0.0,0.0,0.0,0.0,0.0,0.0,0.0,0.0,0.0,0.0,0.0,0.0,0.0,0.0,0.0,0.0,0.0,0.0,0.0,0.0,0.0,0.0,0.0,0.0,0.0,0.0,0.0,0.0,0.0,0.0,0.0,0.0,0.0,0.0,0.0,0.0,0.0,0.0,0.0,0.0,0.0,0.0,0.0,0.0,0.0,0.0,0.0,0.0,0.0,0.0,0.0,0.0,0.0,0.0,0.0,0.0,0.0,0.0,0.0,0.0,0.0,0.0,0.0,0.0,0.0,0.0,0.0,0.0,0.0,0.0,0.0,0.0,0.0,0.0,0.0,0.0,0.0,0.0,0.0,0.0,0.0,0.0,0.0,0.0,0.0,0.0,0.0,0.0,0.0,0.0,0.0,0.0,0.0,0.0,0.0,0.0,0.0,0.0,0.0,0.0,0.0,0.0,0.0,0.0,0.0,0.0,0.0,0.0,0.0,0.0,0.0,0.0,0.0,0.0,0.0,0.0,0.0,0.0,0.0,0.0,0.0,0.0,0.0,0.0,0.0,0.0,0.0,0.0,0.0,0.0,0.0,0.0,0.0,0.0,0.0,0.0,0.0,0.0,0.0,0.0,0.0,0.0,0.0,0.0,0.0,0.0,0.0,0.0,0.0,0.0,0.0,0.0,0.0,0.0,0.0,0.0,0.0,0.0,0.0,0.0,0.0,0.0,0.0,0.0,0.0,0.0,0.0,0.0,0.0,0.0,0.0,0.0,0.0,0.0,0.0,0.0,0.0,0.0,0.0,0.0,0.0,0.0,0.0,0.0,0.0,0.0,0.0,0.0,0.0,0.0,0.0,0.0,0.0,0.0,0.0,0.0,0.0,0.0,0.0,0.0,0.0,0.0,0.0,0.0,0.0,0.0,0.0,0.0,0.0,0.0,0.0,0.0,0.0,0.0,0.0,0.0,0.0,0.0,0.0,0.0,0.0,0.0,0.0,0.0,0.0,0.0,0.0,0.0,0.0,0.0,0.0,0.0,0.0,0.0,0.0,0.0,0.0,0.0,0.0,0.0,0.0,0.0,0.0,0.0,0.0,0.0,0.0,0.0,0.0,0.0,0.0,0.0,0.0,0.0,0.0,0.0,0.0,0.0,0.0,0.0,0.0,0.0,0.0,0.0,0.0,0.0,0.0,0.0,0.0,0.0,0.0,0.0,0.0,0.0,0.0,0.0,0.0,0.0,0.0,0.0,0.0,0.0,0.0,0.0,0.0,-0.5619,0.0,0.0,0.0,0.0,0.0,0.0,0.0,0.0,0.0,0.0,0.0,0.0,0.0,0.0,0.0,0.0,0.0,0.0,0.0,0.0,0.0,0.0,0.0,0.0,-0.4357,-0.3695,-0.2852,-0.2616,0.0,0.0,0.0,0.0,0.0,0.0,0.0,0.0,0.0,-0.4814,-0.4814,-0.8264,-1.0264,-1.0815,-0.7505,-0.425,-0.1196,0.0,0.0,0.0,0.0,0.0,0.0,0.0,0.0,0.0,0.0,0.0,0.0,0.0,0.0,0.0,0.0,0.0,0.0,0.0,0.0,0.0,0.0,0.0,0.0,0.0,0.0,0.0,0.0,0.0,0.0,0.0,0.0,0.0,0.0,0.0,0.0,0.0,0.0,0.0,0.0,0.0,0.0,0.0,0.0,0.0,0.0,0.0,0.0,0.0,0.0,0.0,0.0,0.0,0.0,0.0,0.0,0.0,0.0,0.0,0.0,0.0,0.0,0.0,0.0,0.0,0.0,0.0,0.0,0.0,0.0,0.0,-0.5463,0.0,0.0,0.0,0.0,0.0,0.0,0.0,0.0,0.0,0.0,0.0,0.0,0.0,0.0,0.0,0.0,0.0,0.0,0.0,0.0,0.0,-0.3469,-0.5123,-0.4466,-0.3903,-0.3902,-0.2022,-0.0599,-0.0036,0.0,0.0,0.0,0.0,0.0,-0.0855,-0.6292,-0.9724,-1.0926,-1.3633,-1.4003,-1.2205,-1.2343,-0.9392,-0.4018,-0.3862,0.0,0.0,0.0,0.0,0.0,0.0,0.0,0.0,0.0,0.0,0.0,0.0,0.0,0.0,0.0,0.0,0.0,0.0,0.0,0.0,0.0,0.0,0.0,0.0,0.0,0.0,0.0,0.0,0.0,0.0,0.0,0.0,0.0,0.0,0.0,0.0,0.0,0.0,0.0,0.0,0.0,0.0,0.0,0.0,0.0,0.0,0.0,0.0,0.0,0.0,0.0,0.0,0.0,0.0,0.0,0.0,0.0,0.0,0.0,0.0,0.0,0.0,0.0,-0.8985,-0.9797,-1.1406,-1.0424,-0.9956,-0.9813,-0.8268,-0.7289,-0.651,-0.2748,0.0,0.0,0.0,0.0,0.0,0.0,0.0,0.0,0.0,0.0,0.0,0.0,0.0,0.0,0.0,0.0,0.0,0.0,0.0,-0.5167,-0.6721,-0.682,-0.6728,-0.6676,-0.5134,-0.2978,-0.0182,0.0,0.0,0.0,0.0,-0.1367,-0.4273,-0.5201,-0.8596,-1.4608,-1.3904,-1.2831,-1.1468,-1.2098,-1.1566,-1.0022,-0.9263,-0.7969,-0.6062,0.0,0.0,0.0,0.0,0.0,0.0,0.0,0.0,0.0,0.0,0.0,0.0,0.0,0.0,0.0,0.0,0.0,0.0,0.0,0.0,0.0,0.0,0.0,0.0,0.0,0.0,0.0,0.0,0.0,0.0,0.0,0.0,0.0,0.0,0.0,0.0,0.0,0.0,0.0,0.0,0.0,-0.9996,-0.7102,0.0,0.0,0.0,0.0,0.0,0.0,0.0,0.0,0.0,0.0,0.0,0.0,0.0,-1.0059,-1.0432,-0.9797,-0.9475,-0.9522,-0.9666,-0.9722,-0.9652,-0.9888,-0.9825,-0.9563,-0.9226,0.0,-0.7954,-0.6552,0.0,0.0,0.0,0.0,0.0,0.0,0.0,0.0,0.0,0.0,0.0,0.0,0.0,0.0,0.0,0.0,0.0,0.0,0.0,0.0,0.0,-0.7724,-0.839,-0.927,-0.8822,-0.6856,-0.2949,-0.0999,0.0,0.0,-0.1725,-0.3377,-0.4863,-1.0532,-1.4667,-1.7093,-1.5721,-1.4769,-1.4242,-1.4546,-1.4227,-1.338,-1.294,-1.1635,-0.9488,-0.5988,0.0,0.0,0.0,0.0,0.0,0.0,0.0,0.0,0.0,0.0,0.0,0.0,0.0,0.0,0.0,0.0,0.0,0.0,0.0,0.0,0.0,0.0,0.0,0.0,0.0,0.0,0.0,0.0,0.0,0.0,0.0,0.0,0.0,0.0,0.0,0.0,0.0,0.0,0.0,-1.0447,-0.8709,-0.8048,-0.6989,-0.5373,0.0,0.0,0.0,0.0,0.0,0.0,0.0,0.0,0.0,-0.8373,-0.9802,-1.071,-1.0981,-1.0524,-1.022,-1.0066,-0.969,-0.9479,-0.9474,-0.9385,-0.9589,-0.9969,-0.9698,-0.9562,-0.9492,-0.8695,-0.6681,-0.3981,0.0,0.0,0.0,0.0,-0.4655,-0.3893,0.0,0.0,0.0,0.0,0.0,0.0,0.0,0.0,0.0,0.0,0.0,0.0,-0.815,-0.9227,-1.0448,-1.1828,-1.1948,-1.0744,-0.7898,-0.3644,-0.1052,-0.0631,-0.29,-0.4753,-0.5981,-1.4407,-1.8406,-1.7639,-1.7018,-1.6758,-1.6804,-1.6772,-1.6258,-1.5381,-1.5285,-1.4087,-1.1986,-1.0133,-0.6853,-0.2762,0.0,0.0,0.0,0.0,0.0,0.0,0.0,0.0,0.0,0.0,0.0,0.0,0.0,0.0,0.0,0.0,0.0,0.0,0.0,0.0,0.0,0.0,0.0,0.0,0.0,0.0,0.0,0.0,0.0,0.0,0.0,0.0,0.0,0.0,0.0,0.0,0.0,-0.9202,-0.8346,-0.9011,-0.8071,-0.7245,0.0,0.0,0.0,0.0,0.0,0.0,-0.7098,-0.933,-1.0532,-1.0374,-1.0985,-1.1205,-1.0911,-1.0654,-1.0506,-1.0452,-0.9653,-0.9373,-0.9512,-0.9106,-0.9393,-1.0217,-0.9808,-0.9939,-1.0295,-0.9794,-0.8885,-0.7607,-0.5724,-0.4574,-0.4112,-0.5201,-0.5491,-0.5256,0.0,0.0,0.0,0.0,0.0,0.0,0.0,0.0,0.0,0.0,0.0,-0.909,-1.065,-1.2327,-1.3661,-1.4456,-1.3831,-1.4026,-1.5536,-0.8676,-0.3882,-0.2346,-0.2436,-0.4642,-0.9165,-1.3198,-1.525,-1.5267,-1.6854,-1.7644,-1.7644,-1.7516,-1.6973,-1.6143,-1.6008,-1.5038,-1.3468,-1.3176,-1.2132,-1.0236,-0.457,0.0,0.0,0.0,0.0,0.0,0.0,0.0,0.0,0.0,0.0,0.0,0.0,0.0,0.0,0.0,0.0,0.0,0.0,0.0,0.0,0.0,0.0,0.0,0.0,0.0,0.0,0.0,0.0,0.0,0.0,0.0,0.0,0.0,0.0,0.0,0.0,0.0,0.0,-1.094,-0.8806,0.0,0.0,0.0,0.0,-1.0158,-1.0267,-1.0305,-1.0531,-1.1001,-1.1053,-1.0595,-1.112,-1.1325,-1.1175,-1.1044,-1.0818,-1.059,-0.9893,-0.9478,-0.9306,-0.9244,-0.9374,-0.9731,-0.9579,-0.9678,-0.9922,-0.9815,-0.9572,-0.9105,-0.808,-0.67,-0.5437,-0.6505,-0.5909,-0.4545,0.0,0.0,0.0,-0.4806,-0.4806,-0.4792,-0.4797,-0.5247,-0.5678,-0.5968,-0.842,-1.0539,-1.1589,-1.3811,-1.5734,-1.7019,-1.6956,-1.6646,-1.6167,-1.2975,-0.9617,-0.6283,-0.5847,-0.8702,-1.5155,-1.5686,-1.6728,-1.8386,-1.8997,-1.9043,-1.8539,-1.849,-1.7983,-1.7066,-1.6419,-1.5789,-1.5131,-1.3895,-1.3063,-1.238,-1.0181,-0.6799,0.0,0.0,0.0,0.0,0.0,0.0,0.0,0.0,0.0,0.0,0.0,0.0,0.0,0.0,0.0,0.0,0.0,0.0,0.0,0.0,0.0,0.0,0.0,0.0,0.0,0.0,0.0,0.0,0.0,0.0,0.0,0.0,0.0,0.0,0.0,0.0,0.0,-1.1882,-0.9906,0.0,-1.2328,-1.162,-1.1103,-1.1405,-1.1543,-1.1413,-1.0885,-1.1377,-1.1534,-1.119,-1.1351,-1.1388,-1.1184,-1.0923,-1.0545,-1.0083,-0.9631,-0.9244,-0.8913,-0.8897,-0.8969,-0.9163,-0.9136,-0.9405,-0.9837,-0.953,-0.9349,-0.9256,-0.8791,-0.8092,-0.7351,-0.7327,-0.6758,-0.5934,0.0,0.0,0.0,-0.4807,-0.4804,-0.4804,-0.481,-0.5483,-0.6289,-0.7068,-0.9902,-1.2335,-1.36,-1.5909,-1.7818,-1.888,-1.9043,-1.8367,-1.6586,-1.5082,-1.2761,-0.9399,-0.9373,-1.2065,-1.7669,-1.7114,-1.7903,-2.0197,-2.0205,-1.9918,-1.9408,-1.9331,-1.8828,-1.7945,-1.7236,-1.6591,-1.5997,-1.4771,-1.4092,-1.3766,-1.2825,-1.0518,-0.7213,0.0,0.0,0.0,0.0,0.0,0.0,0.0,0.0,0.0,0.0,0.0,0.0,0.0,0.0,0.0,0.0,0.0,0.0,0.0,0.0,0.0,0.0,0.0,0.0,0.0,0.0,0.0,0.0,0.0,0.0,0.0,0.0,0.0,0.0,-1.0574,-1.1237,-1.2641,-1.1377,-1.1222,-1.3299,-1.3351,-1.3048,-1.265,-1.2456,-1.2021,-1.1266,-1.1559,-1.1649,-1.141,-1.1638,-1.1584,-1.1236,-1.0993,-1.0614,-1.0077,-0.9526,-0.9116,-0.8853,-0.8853,-0.8955,-0.9047,-0.8941,-0.9155,-0.9555,-0.9153,-0.904,-0.9083,-0.8923,-0.8567,-0.8156,-0.7842,-0.7467,-0.6923,0.0,0.0,-0.4801,-0.4802,-0.4809,-0.4793,-0.4793,-0.5497,-0.6881,-0.9204,-1.1865,-1.4427,-1.6756,-1.8725,-1.9889,-1.9896,-1.9908,-1.9126,-1.733,-1.4935,-1.2913,-1.1404,-1.2715,-1.4413,-1.6429,-1.7221,-1.8453,-2.0197,-2.0203,-2.0203,-2.0188,-2.0,-1.9479,-1.8722,-1.8441,-1.7492,-1.6071,-1.596,-1.553,-1.4727,-1.2291,-1.2022,-1.2606,0.0,0.0,0.0,0.0,0.0,0.0,0.0,0.0,0.0,0.0,0.0,0.0,0.0,0.0,0.0,0.0,0.0,0.0,0.0,0.0,0.0,0.0,0.0,0.0,0.0,0.0,0.0,0.0,0.0,0.0,0.0,0.0,0.0,-1.2198,-1.1734,-1.1895,-1.3257,-1.3208,-1.3658,-1.5139,-1.3868,-1.3193,-1.3756,-1.2941,-1.2258,-1.1909,-1.166,-1.1432,-1.1244,-1.1875,-1.1914,-1.1317,-1.1292,-1.1087,-1.0685,-0.9709,-0.919,-0.919,-0.919,-0.9289,-0.938,-0.9061,-0.8962,-0.9076,-0.8813,-0.8664,-0.8684,-0.8619,-0.8256,-0.7777,-0.8055,-0.7895,-0.7246,-0.4768,-0.4815,-0.486,-0.4809,-0.4849,-0.4882,-0.4868,-0.6057,-0.7568,-0.9349,-1.2336,-1.5009,-1.686,-1.8634,-1.9744,-1.9877,-1.9866,-1.9115,-1.7436,-1.4982,-1.3167,-1.222,-1.551,-1.7623,-1.8195,-1.9073,-1.9761,-2.0277,-2.0257,-2.0257,-2.0269,-2.0117,-1.9867,-1.9547,-1.8786,-1.8186,-1.7657,-1.6481,-1.5899,-1.5659,-1.4352,-1.3309,-1.2501,0.0,0.0,0.0,0.0,0.0,0.0,0.0,0.0,0.0,0.0,0.0,0.0,0.0,0.0,0.0,0.0,0.0,0.0,0.0,0.0,0.0,0.0,0.0,0.0,0.0,0.0,0.0,0.0,0.0,0.0,0.0,-1.2043,-1.2379,-1.2489,-1.2895,-1.3452,-1.4177,-1.4384,-1.4674,-1.5255,-1.4729,-1.4209,-1.3822,-1.334,-1.2731,-1.1945,-1.2208,-1.2219,-1.1936,-1.2443,-1.2393,-1.1762,-1.1433,-1.0992,-1.0406,-0.9776,-0.9497,-0.9497,-0.9497,-0.9438,-0.9394,-0.8989,-0.8937,-0.9137,-0.841,-0.8306,-0.8619,-0.8495,-0.8421,-0.8309,-0.8055,-0.7295,-0.6253,-0.4693,-0.4792,-0.485,-0.4812,-0.4849,-0.4899,-0.4896,-0.626,-0.8101,-1.0341,-1.3003,-1.5564,-1.7888,-1.9083,-1.9769,-1.9889,-1.9556,-1.8499,-1.6517,-1.4338,-1.3592,-1.4587,-1.7026,-1.8712,-1.9473,-2.0007,-2.0312,-2.0312,-2.0233,-2.0216,-2.0208,-2.0011,-1.9877,-1.979,-1.922,-1.8752,-1.8342,-1.7396,-1.6637,-1.6015,-1.5536,-1.4354,-1.2906,-1.3236,-1.2238,-1.0727,-1.1488,-1.1168,-1.054,-1.1541,0.0,0.0,0.0,0.0,0.0,0.0,0.0,0.0,0.0,0.0,0.0,0.0,0.0,0.0,0.0,0.0,0.0,0.0,0.0,0.0,0.0,0.0,0.0,0.0,-1.2962,-1.3481,-1.4143,-1.4366,-1.4597,-1.4969,-1.5023,-1.5088,-1.5283,-1.4842,-1.4406,-1.4052,-1.3454,-1.2876,-1.245,-1.2609,-1.2625,-1.2505,-1.2997,-1.2979,-1.2402,-1.2032,-1.1472,-1.0761,-1.014,-0.9777,-0.9614,-0.9614,-0.9465,0.0,-0.885,-0.8745,-0.8738,-0.8109,-0.7996,0.0,0.0,0.0,0.0,0.0,-0.7001,-0.6063,-0.4706,-0.4758,-0.4793,-0.4793,-0.4853,-0.4892,-0.4916,-0.6277,-0.8477,-1.1661,-1.3654,-1.5982,-1.9231,-1.9744,-1.9877,-1.99,-1.9252,-1.7833,-1.5426,-1.388,-1.4418,-1.7469,-1.7783,-1.8647,-2.0265,-2.0312,-2.0312,-2.0292,-2.0162,-2.0098,-2.0088,-1.9821,-1.9701,-1.9688,-1.9633,-1.9202,-1.8547,-1.8441,-1.7538,-1.6134,-1.6107,-1.5132,-1.3661,-1.3724,-1.3221,-1.2406,-1.1692,-1.1476,-1.1601,-1.204,0.0,0.0,0.0,0.0,0.0,0.0,0.0,0.0,0.0,0.0,0.0,0.0,0.0,0.0,0.0,0.0,0.0,0.0,0.0,0.0,0.0,0.0,0.0,0.0,-1.3689,-1.4919,-1.6368,-1.5801,-1.5316,-1.555,-1.5239,-1.5088,-1.5283,-1.461,-1.4195,-1.4287,-1.351,-1.3035,-1.3091,0.0,0.0,0.0,0.0,-1.3583,-1.3202,-1.2865,-1.2258,-1.1466,-1.0685,-1.0087,-0.9666,-0.9666,-0.9465,-0.9061,-0.8732,-0.8474,-0.8268,-0.7883,-0.7783,-0.7901,-0.7901,-0.7919,-0.7859,-0.7404,-0.6818,-0.6229,-0.4706,-0.4758,-0.4793,-0.4793,-0.4846,-0.4919,-0.4975,-0.6384,-0.8567,-1.1618,-1.3503,-1.5796,-1.9068,-1.9518,-1.9663,-1.9881,-1.9801,-1.896,-1.7066,-1.6675,-1.6848,-1.7565,-1.8956,-1.9898,-2.0285,-2.0312,-2.03,-2.0296,-2.0171,-2.0107,-2.0078,-1.9832,-1.9701,-1.9688,-1.9633,-1.9532,-1.9406,-1.869,-1.7887,-1.6999,-1.6371,-1.5499,-1.4624,-1.4631,-1.4502,-1.4279,-1.4172,-1.4141,-1.4264,-1.4944,-1.4073,-1.2664,-1.2502,-1.0424,0.0,0.0,0.0,0.0,0.0,0.0,0.0,0.0,0.0,0.0,0.0,0.0,0.0,0.0,0.0,0.0,0.0,0.0,0.0,-1.335,-1.4154,-1.5129,-1.6767,-1.6066,-1.538,-1.5418,-1.5133,-1.5025,-1.5283,-1.4856,-1.4511,-1.4319,-1.4275,-1.3899,-1.3153,-1.3807,-1.4013,-1.3543,-1.4002,-1.4103,-1.3835,-1.3321,-1.2716,-1.2061,0.0,0.0,-1.0095,-1.0095,-0.994,-0.9584,-0.889,-0.8685,-0.8798,-0.799,-0.7783,-0.7901,-0.7901,-0.7858,-0.7706,-0.7007,-0.6473,-0.6053,-0.5304,-0.5003,-0.4761,-0.4785,-0.486,-0.4912,-0.495,-0.6395,-0.8346,-1.0692,-1.2806,-1.4886,-1.6971,-1.724,-1.7135,-1.682,-1.6819,-1.6838,-1.6791,-1.7236,-1.789,-1.8764,-1.9667,-2.018,-2.0241,-2.0277,-2.03,-2.0304,-2.0171,-2.0088,-2.0041,-1.9821,-1.9676,-1.9643,-1.9606,-1.9625,-1.9623,-1.9181,-1.8566,-1.7821,-1.7026,-1.6231,-1.5452,-1.5055,-1.4876,-1.485,-1.4894,-1.4911,-1.4995,-1.5339,-1.4745,-1.3835,-1.3722,-1.238,-1.0373,0.0,0.0,0.0,0.0,0.0,0.0,0.0,0.0,0.0,0.0,0.0,0.0,0.0,0.0,-1.0038,-0.9962,0.0,-1.2804,-1.362,-1.4532,-1.5466,-1.6424,-1.6196,-1.5936,-1.5963,-1.5374,-1.5088,-1.5418,-1.4873,-1.4617,-1.4886,-1.4663,-1.4385,-1.4122,-1.4429,-1.4454,-1.4069,-1.4264,-1.4337,-1.4197,-1.3716,-1.3112,-1.2414,-1.1913,-1.1283,-1.0557,-1.03,-1.0043,-0.9681,-0.9054,-0.8791,-0.8791,-0.8474,-0.8397,-0.8469,-0.8469,-0.8159,-0.7666,-0.6808,-0.6387,-0.6076,-0.5899,-0.5248,-0.4719,-0.4769,-0.4842,-0.4889,-0.4903,-0.623,-0.7844,-0.9495,-1.1729,-1.3512,-1.4336,-1.4598,-1.4433,-1.3773,-1.402,-1.4839,-1.6347,-1.7397,-1.8572,-1.9952,-2.004,-2.0117,-2.018,-2.026,-2.0292,-2.0277,-2.0171,-2.0069,-1.9972,-1.9797,-1.9669,-1.9601,-1.9597,-1.9611,-1.9628,-1.9628,-1.9188,-1.8427,-1.7615,-1.6811,-1.6007,-1.5207,-1.4894,-1.4911,-1.4911,-1.4833,-1.4755,-1.4854,-1.4889,-1.4737,-1.415,-1.3546,-1.2722,-1.1186,-0.9821,0.0,0.0,0.0,0.0,0.0,0.0,0.0,0.0,-0.9859,-0.9495,-1.0221,-1.1432,-1.2104,-1.1276,-1.2724,-1.3932,-1.3623,-1.4641,-1.562,-1.6023,-1.6255,-1.6423,-1.6549,-1.5637,-1.5163,-1.5625,-1.498,-1.484,-1.5578,-1.5194,-1.503,-1.5196,-1.5006,-1.478,-1.4501,-1.4419,-1.4373,-1.4373,-1.4093,-1.3505,-1.2716,-1.2365,-1.1783,-1.1023,-1.0557,-1.0087,-0.9666,-0.9211,-0.8844,-0.8626,-0.8798,-0.8911,-0.8942,-0.8886,-0.8471,-0.7869,-0.6928,-0.6467,-0.6269,-0.5899,-0.5251,-0.4702,-0.4715,-0.4763,-0.4838,-0.4885,-0.5723,-0.6901,-0.8464,-1.0212,-1.1599,-1.2336,-1.3168,-1.3707,-1.3776,-1.5144,-1.6391,-1.7293,-1.8777,-1.9736,-2.0001,-2.0,-2.0049,-2.0117,-2.0171,-2.0214,-2.0219,-2.0134,-2.0041,-1.9903,-1.9767,-1.9662,-1.9597,-1.9602,-1.9638,-1.9686,-1.9686,-1.9239,-1.8437,-1.7618,-1.6822,-1.6007,-1.5216,-1.4895,-1.4911,-1.4911,-1.4419,-1.3863,-1.4648,-1.4468,-1.4059,-1.4734,-1.4449,-1.3797,-1.3478,-1.1738,-0.9882,-0.9681,-1.0703,-1.1252,-0.8945,-0.9924,-1.1599,0.0,-1.1603,-1.1235,-1.197,-1.2179,-1.2164,-1.2008,-1.2567,-1.3167,-1.3461,-1.4143,-1.503,-1.6204,-1.6124,-1.6193,-1.6795,-1.5766,-1.5227,-1.5813,-1.5609,-1.564,-1.6094,-1.6605,-1.6529,-1.568,-1.5825,-1.5616,-1.4858,-1.4558,-1.4373,-1.4373,-1.4384,-1.3941,-1.3112,-1.3064,-1.2491,-1.1427,-1.1023,-1.0565,-1.0095,-0.9472,-0.8942,-0.8573,-0.8527,-0.8587,-0.8781,-0.8509,-0.8486,-0.8487,-0.7522,-0.6985,-0.6515,-0.6537,-0.5549,-0.4693,-0.4702,-0.4753,-0.4824,-0.4892,-0.5633,-0.6427,-0.7079,-0.8628,-0.9601,-0.9432,-0.9319,-0.9495,-1.0079,-1.2566,-1.4638,-1.5893,-1.8485,-1.9963,-1.9936,-1.9979,-2.0001,-2.0031,-2.0107,-2.0143,-2.015,-2.0152,-2.0107,-2.0002,-1.9918,-1.9823,-1.9713,-1.9633,-1.9638,-1.9686,-1.9587,-1.9383,-1.9027,-1.776,-1.7041,-1.6613,-1.5367,-1.4904,-1.4895,-1.4859,-1.4286,0.0,-1.4494,-1.4327,-1.3907,-1.4813,-1.4566,-1.3927,-1.3819,-1.2728,-1.1671,-1.2157,-1.2302,-1.2228,-1.1859,-1.2396,-1.3057,-1.3171,-1.2974,-1.2934,-1.3601,-1.4033,-1.4101,-1.3437,-1.3811,-1.42,-1.4106,-1.4725,-1.5474,-1.6238,-1.6464,-1.6629,-1.6853,-1.6399,-1.6139,-1.6308,-1.6379,-1.6647,-1.7198,-1.7186,-1.7082,-1.6983,-1.6754,-1.6201,-1.5332,-1.5152,-1.4858,-1.4373,-1.4373,-1.4093,-1.3573,-1.3573,-1.317,-1.2491,-1.1891,-1.1191,-1.03,-0.9673,-0.9368,-0.9263,-0.9001,-0.9065,-0.9365,-0.8966,-0.8948,-0.9074,-0.8083,-0.7245,-0.6514,-0.728,-0.5906,-0.4764,-0.4988,-0.4894,-0.4793,-0.4856,-0.5406,-0.582,-0.5843,-0.71,-0.7792,-0.7211,-0.6372,-0.6209,-0.7061,-1.0215,-1.2823,-1.4465,-1.7757,-1.9725,-1.9922,-1.9958,-1.9971,-1.9991,-2.0079,-2.0098,-2.0096,-2.0188,-2.018,-2.0088,-2.001,-1.9904,-1.9769,-1.9633,-1.9597,-1.9647,-1.9485,-1.9485,-1.9439,-1.782,-1.7184,-1.7023,-1.548,-1.4604,-1.4227,-1.441,-1.3905,-1.3196,-1.357,-1.3361,-1.3085,-1.3774,-1.3767,-1.3511,-1.3672,-1.3156,-1.2579,-1.2852,-1.2811,-1.283,-1.3413,-1.3927,-1.4221,-1.411,-1.4107,-1.4246,-1.4653,-1.5072,-1.5141,-1.4353,-1.452,-1.464,-1.4246,-1.5009,-1.5724,-1.594,-1.6635,-1.7068,-1.6901,-1.7114,-1.7197,-1.6934,-1.7117,-1.7512,-1.807,-1.774,-1.7625,-1.7813,-1.7299,-1.6642,-1.5808,-1.5644,-1.5254,-1.4547,-1.4558,-1.428,-1.3821,-1.3821,-1.3573,-1.317,-1.2511,-1.1575,-1.0541,-1.0079,-0.9829,-0.9755,-0.9408,-0.9432,-0.9731,-0.9343,-0.9309,-0.9454,-0.88,-0.7714,-0.6536,-0.8014,-0.6286,-0.4952,-0.573,-0.5214,-0.4732,-0.4785,-0.4831,-0.4864,-0.4928,-0.5715,-0.626,-0.6236,-0.5515,-0.5366,-0.6168,-0.93,-1.1958,-1.3626,-1.6886,-1.9111,-1.996,-1.9934,-1.9934,-1.9998,-2.0068,-2.0098,-2.0096,-2.0241,-2.0225,-2.0108,-1.996,-1.9835,-1.9686,-1.9555,-1.9493,-1.9518,-1.9499,-1.9499,-1.9369,-1.7751,-1.7142,-1.7029,-1.5402,-1.3827,-1.2589,-1.3355,-1.3037,-1.2113,-1.137,-1.1108,-1.1102,-1.1193,-1.1781,-1.2591,-1.3296,-1.2938,-1.2003,-1.0592,-1.1432,-1.2712,-1.2726,-1.3956,-1.5149,-1.5068,-1.5004,-1.4923,-1.4831,-1.4555,-1.4325,-1.4211,-1.3952,-1.3655,-1.3379,-1.4613,-1.5496,-1.5183,-1.6495,-1.7314,-1.6866,-1.7824,-1.833,-1.7829,-1.7841,-1.8061,-1.8433,-1.8539,-1.833,-1.776,-1.7256,-1.6782,-1.6312,-1.5768,-1.5277,-1.4903,-1.4858,-1.4501,-1.3821,-1.3821,-1.3573,-1.317,-1.2511,-1.1765,-1.0965,-1.0685,-1.03,-0.9769,-0.9486,-0.9455,-0.9583,-0.9259,-0.9295,-0.9548,-0.9664,-0.8544,-0.685,-0.8224,-0.7171,-0.6162,-0.5947,-0.5678,-0.533,-0.4804,-0.4771,-0.4813,-0.4827,-0.5122,0.0,0.0,0.0,0.0,0.0,-0.877,-1.0878,-1.1977,-1.5721,-1.8022,-1.8327,-1.9389,-1.9988,-2.001,-2.002,-2.0021,-2.0022,-2.0116,-2.0144,-2.0088,-2.0059,-1.9966,-1.9811,-1.9649,-1.9574,-1.955,-1.9372,-1.9357,-1.9287,-1.7623,-1.704,-1.7064,-1.6522,-1.4691,-1.2489,0.0,-1.1782,-0.978,-0.9997,-0.9772,-0.9507,-1.01,-1.0105,-0.9931,-1.0187,-1.1244,-1.2284,-1.186,-1.2671,-1.3759,-1.424,-1.4815,-1.521,-1.5015,-1.4976,-1.4963,-1.4823,-1.4672,-1.4551,-1.4549,-1.4283,-1.4208,-1.451,-1.5193,-1.5764,-1.6042,-1.6907,-1.7592,-1.7827,-1.8451,-1.8882,-1.8919,-1.8991,-1.9068,-1.9213,-1.9026,-1.886,-1.8784,-1.812,-1.745,-1.687,-1.6386,-1.5876,-1.5277,-1.5277,-1.5051,-1.4547,-1.4326,-1.4046,-1.3716,-1.2861,-1.2209,-1.1765,-1.0897,-1.0545,-1.0508,-0.9638,-0.9576,-0.9973,-0.9278,-0.9176,-0.9484,-0.9548,-0.863,-0.7251,-0.863,-0.7781,-0.6948,-0.6762,-0.6269,0.0,0.0,0.0,0.0,0.0,0.0,0.0,0.0,0.0,0.0,0.0,0.0,-0.9584,-1.0707,-1.3872,-1.5984,-1.658,-1.733,-1.7766,-1.7775,-1.747,-1.7764,-1.8669,-1.8761,-1.9237,-2.0126,-2.0079,-2.0019,-1.9885,-1.9657,-1.9564,-1.9546,-1.9341,-1.9264,-1.9164,-1.7247,-1.6362,-1.6109,-1.521,-1.3113,0.0,-1.0978,-0.9397,-0.7299,-0.8055,-0.821,-0.8199,-0.8754,-0.8947,-0.9028,-0.9408,-1.0692,-1.2136,-1.2925,-1.3613,-1.4283,-1.5051,-1.5269,-1.525,-1.4985,-1.4968,-1.4963,-1.4832,-1.4509,-1.4239,-1.4244,-1.409,-1.4167,-1.4814,-1.5587,-1.625,-1.6713,-1.7329,-1.7912,-1.8317,-1.8734,-1.9126,-1.9452,-1.9634,-1.9705,-1.9472,-1.925,-1.9087,-1.8936,-1.8422,-1.7841,-1.7146,-1.6854,-1.6355,-1.5691,-1.5691,-1.5412,-1.4903,-1.4558,-1.4291,-1.4104,-1.3409,-1.2919,-1.257,-1.1601,-1.1149,-1.1015,-1.0012,-0.9836,-1.0026,-0.9389,-0.9265,-0.9484,-0.9484,-0.863,-0.7381,-0.926,-0.8172,-0.7351,0.0,0.0,0.0,0.0,0.0,0.0,0.0,0.0,0.0,0.0,0.0,0.0,0.0,0.0,0.0,-0.9703,-1.1427,-1.3109,-1.4737,-1.4096,-1.3762,-1.3854,-1.3055,-1.3811,-1.625,-1.6307,-1.7566,-1.9943,-1.9812,-1.9705,-1.9631,-1.9376,-1.9258,-1.9244,-1.9107,-1.8987,-1.869,-1.6428,-1.5067,-1.4169,-1.1829,-0.9473,-0.7397,-0.7406,-0.6277,-0.492,-0.5737,-0.6578,-0.7281,-0.733,-0.8427,-0.9895,-1.0919,-1.1261,-1.1751,-1.3594,-1.4136,-1.4343,-1.5117,-1.5302,-1.5251,-1.5056,-1.5008,-1.4944,-1.4782,-1.4033,-1.3388,-1.3306,-1.3306,-1.3526,-1.4164,-1.5674,-1.6832,-1.7044,-1.7736,-1.8266,-1.8409,-1.8815,-1.9174,-1.9452,-1.9873,-1.9909,-1.9317,0.0,-1.8983,-1.8383,-1.8254,-1.7909,-1.7282,-1.7089,-1.6697,-1.6076,-1.5988,-1.5623,-1.4903,-1.4558,-1.4384,-1.4373,-1.4104,-1.3763,-1.3372,-1.2696,-1.1999,-1.1243,-1.0675,-1.0236,-0.9856,-0.9587,-0.9484,-0.9484,-0.9484,-0.863,-0.7451,0.0,0.0,0.0,0.0,0.0,0.0,0.0,0.0,0.0,0.0,0.0,0.0,0.0,0.0,0.0,0.0,0.0,0.0,-0.7133,-0.9338,-1.1117,-1.2192,-1.3232,-1.4095,-1.4744,-1.4554,-1.4763,-1.5407,-1.5415,-1.5765,-1.6387,-1.6372,-1.6295,-1.6168,-1.6003,-1.5867,-1.5771,-1.5685,-1.528,-1.463,-1.3438,-1.2537,-1.1897,-1.1764,-0.9928,-0.7533,-0.8569,-0.7154,-0.4929,-0.5777,-0.7079,-0.8445,-0.9145,-1.004,-1.093,-1.1183,-1.2221,-1.3389,-1.3886,-1.4543,-1.5117,-1.5251,-1.5299,-1.5255,-1.5108,-1.4999,-1.4749,-1.4098,-1.3783,-1.3257,-1.2051,-1.268,-1.3214,-1.2704,-1.4623,-1.6337,-1.6669,-1.7795,-1.8906,-1.9827,-2.0,-2.0166,-2.0495,-2.0619,-2.0563,-2.0204,-1.9818,-1.942,-1.9139,-1.8592,-1.8201,-1.8028,-1.7462,-1.7005,-1.674,-1.592,-1.54,-1.5175,-1.4466,-1.4104,-1.4104,-1.381,-1.3668,-1.3515,-1.2977,-1.2702,-1.2661,-1.1375,-1.092,-1.0953,-0.9901,-0.9484,-0.9484,-0.9215,-0.8624,-0.7907,0.0,0.0,0.0,0.0,0.0,0.0,0.0,0.0,0.0,0.0,0.0,0.0,0.0,0.0,0.0,0.0,0.0,0.0,0.0,-0.7534,-0.8722,-0.9596,-1.0166,-1.0679,-1.1184,-1.0847,-1.119,-1.2288,-1.2319,-1.2897,-1.3956,-1.3982,-1.3954,-1.3841,-1.3714,-1.3598,-1.353,-1.3431,-1.311,0.0,0.0,-1.0483,-0.9791,-0.949,-0.8063,-0.6357,-0.716,-0.7268,-0.7238,-0.8476,-0.9301,-0.9899,-1.0443,-1.1186,-1.1916,-1.2326,-1.3185,-1.4081,-1.4491,-1.5002,-1.5385,-1.5318,-1.5294,-1.5164,-1.468,-1.4514,-1.4098,-1.2824,-1.2601,-1.2154,-1.0503,-1.1735,-1.2819,-1.2274,-1.4643,-1.6678,-1.6958,-1.8318,-1.9476,-2.0047,-2.0365,-2.0665,-2.0894,-2.0623,-2.032,-2.0044,-1.9932,-1.9747,-1.9545,-1.9064,-1.8592,-1.8187,-1.7801,-1.7406,-1.6976,-1.6194,-1.5756,-1.5579,-1.472,-1.4326,-1.4326,-1.3952,-1.3773,-1.3773,0.0,-1.3392,-1.3208,-1.2253,-1.1747,-1.1554,-1.0552,-1.0174,-1.011,-0.9524,-0.9005,-0.8484,0.0,0.0,0.0,0.0,0.0,0.0,0.0,0.0,0.0,-0.5616,-0.5216,-0.4994,-0.5051,-0.4965,0.0,0.0,0.0,0.0,0.0,0.0,-0.6433,-0.7288,-0.6603,-0.6259,-0.6376,-0.5685,-0.639,-0.8538,-0.8608,-0.9725,-1.185,-1.19,-1.1881,-1.1825,-1.1707,-1.1633,-1.1631,-1.1498,-1.1351,-1.1076,-0.9684,-0.8614,-0.7683,0.0,-0.5406,-0.4811,-0.492,-0.7078,-1.0152,-1.1908,-1.223,-1.1915,-1.1972,-1.2494,-1.3187,-1.3892,-1.4149,-1.4393,-1.5321,-1.5498,-1.5412,-1.5479,-1.5382,-1.5051,-1.4136,-1.3914,-1.3337,-1.1373,-1.1056,-1.0625,-0.8953,-1.0575,-1.2166,-1.2164,-1.4806,-1.698,-1.7369,-1.8743,-1.9712,-1.9662,-2.0323,-2.0755,-2.0718,-2.0256,-1.9782,-1.9406,-1.9816,-1.9928,-1.9682,-1.9337,-1.8795,-1.7958,-1.8054,-1.7747,-1.696,-1.6565,-1.6207,-1.5944,-1.5119,-1.4709,-1.4663,-1.428,-1.4057,-1.4041,-1.4314,0.0,-1.334,-1.3052,-1.2572,-1.1866,-1.1229,-1.0919,-1.073,-0.9964,-0.932,-0.8801,0.0,0.0,0.0,0.0,0.0,0.0,0.0,0.0,0.0,0.0,-0.7421,-0.588,0.0,0.0,0.0,0.0,0.0,0.0,0.0,0.0,0.0,-0.6395,-0.6278,-0.6546,-0.725,-0.7141,-0.7273,-0.7705,-0.7713,-0.7945,-0.8362,-0.8381,-0.8381,-0.8357,-0.8216,-0.8166,-0.8167,-0.8086,-0.7662,-0.7027,-0.6736,-0.6137,-0.537,-0.512,0.0,0.0,-0.5551,-0.7522,-1.0088,-1.1891,-1.3879,-1.5594,-1.5659,-1.5818,-1.5862,-1.5305,-1.5156,-1.5343,-1.6239,-1.5953,-1.5567,-1.6278,-1.5869,-1.5073,-1.4173,-1.3948,-1.3211,-1.0761,-1.0254,-0.9726,-0.811,-0.9199,-1.0467,-1.085,-1.2975,-1.5108,-1.6704,-1.7693,-1.8682,-1.979,-2.035,-2.0433,-1.986,-2.0056,-1.9941,-1.9267,-1.9669,-1.9798,-1.946,-1.8465,-1.7826,-1.7576,-1.7623,-1.7475,-1.7157,-1.6194,-1.5724,-1.568,-1.5232,-1.4869,-1.4547,-1.4582,-1.4444,-1.4208,-1.4742,0.0,-1.4154,-1.3571,-1.2992,-1.2464,-1.1406,-1.0604,-0.9964,-0.9378,-0.8742,-0.8112,0.0,0.0,0.0,0.0,0.0,0.0,0.0,-0.977,-1.0695,-1.389,-1.243,-1.0433,-0.8729,-0.674,-0.5532,0.0,0.0,0.0,0.0,0.0,0.0,0.0,0.0,0.0,-0.62,-0.62,-0.62,-0.62,0.0,-0.62,-0.62,-0.62,-0.618,-0.6143,-0.6072,-0.6029,-0.5993,-0.5976,-0.5732,-0.537,-0.537,-0.5138,-0.4848,0.0,0.0,0.0,-0.6918,-0.8606,-1.0658,-1.1958,-1.45,-1.7131,-1.7233,-1.7299,-1.7242,-1.6815,-1.6691,-1.6699,-1.6698,-1.638,-1.6078,-1.6038,-1.5695,-1.4995,-1.3633,-1.2968,-1.1912,-0.9325,-0.8772,-0.8248,-0.6597,-0.828,-0.9804,-0.9543,-1.212,-1.4567,-1.5746,-1.7244,-1.8512,-1.9365,-2.0044,-2.0269,-1.9786,-1.9605,-1.9359,-1.9012,-1.9094,-1.9302,-1.9626,-1.9173,-1.8748,-1.8424,-1.8278,-1.7974,-1.7475,-1.6837,-1.6454,-1.6262,-1.5468,-1.5017,-1.4789,-1.4671,-1.4413,-1.4136,-1.5012,0.0,-1.4274,-1.3949,-1.3535,-1.2991,-1.1851,-1.117,-1.0661,-0.9436,-0.8801,-0.8361,0.0,0.0,0.0,0.0,0.0,0.0,0.0,-1.2419,-1.3531,-1.7659,-1.6827,-1.4885,-1.2299,-0.8949,-0.6669,0.0,0.0,0.0,0.0,0.0,0.0,0.0,0.0,0.0,0.0,0.0,0.0,-0.4995,-0.4995,0.0,0.0,0.0,0.0,0.0,-0.489,-0.4857,-0.4802,-0.4797,-0.4793,0.0,0.0,-0.5066,0.0,0.0,0.0,0.0,0.0,-0.9386,-1.0946,-1.1963,-1.4206,-1.6669,-1.7147,-1.7567,-1.7845,-1.7677,-1.7616,-1.7577,-1.7321,-1.7129,-1.6814,-1.6128,-1.5811,-1.5153,-1.3161,-1.2083,-1.0755,-0.8138,-0.7451,-0.6979,-0.5849,-0.757,-0.9134,-0.9062,-1.1434,-1.3661,-1.4716,-1.6527,-1.8029,-1.875,-1.9572,-1.9986,-1.9756,-1.9142,-1.8713,-1.8579,-1.8543,-1.8886,-1.9636,-2.0042,-1.9869,-1.9075,-1.8896,-1.8472,-1.772,-1.7421,-1.7102,-1.6705,-1.5901,-1.5412,-1.5198,-1.4898,-1.4531,-1.4276,-1.4992,0.0,0.0,-1.4063,-1.3794,-1.3321,-1.2228,-1.1615,-1.1296,-0.9697,-0.893,-0.842,0.0,0.0,0.0,0.0,0.0,0.0,0.0,-1.2834,-1.4488,-1.9182,-1.7822,-1.6325,-1.6004,-1.2081,-0.8557,0.0,0.0,0.0,0.0,0.0,0.0,0.0,0.0,0.0,0.0,0.0,0.0,-0.4995,-0.4995,0.0,0.0,0.0,0.0,0.0,0.0,-0.4811,-0.4804,-0.4802,0.0,0.0,0.0,0.0,0.0,0.0,0.0,0.0,0.0,-0.896,-1.0072,-1.1738,-1.2597,-1.3257,-1.4846,-1.6494,-1.7675,-1.6938,-1.6717,-1.7056,-1.8623,-1.8475,-1.7851,-1.7772,-1.7165,-1.5897,-1.3292,-1.208,-1.0753,-0.8148,-0.6963,-0.6606,-0.7257,-0.7008,-0.7627,-1.0412,-1.0393,-1.0989,-1.372,-1.4868,-1.6123,-1.8052,-1.8874,-1.927,-1.9177,-1.8872,-1.8473,-1.7855,-1.8332,0.0,-1.898,-2.0115,-2.0082,-1.8609,-1.8547,-1.8288,-1.772,-1.7256,-1.671,-1.6076,-1.6723,-1.6484,-1.5543,-1.5501,-1.5322,-1.496,-1.4471,0.0,0.0,-1.3512,-1.3277,-1.3208,-1.205,-1.1108,-1.0338,-0.9703,-0.8554,-0.7288,0.0,0.0,0.0,0.0,0.0,0.0,-1.4414,-1.4228,-1.5651,-2.1375,-2.0565,-1.9255,-1.8734,-1.5496,-1.1571,-0.7154,0.0,0.0,0.0,0.0,0.0,0.0,0.0,0.0,0.0,0.0,-0.4995,-0.4995,-0.5477,0.0,0.0,0.0,0.0,0.0,0.0,-0.4831,-0.4806,-0.4797,0.0,0.0,0.0,0.0,0.0,0.0,0.0,0.0,0.0,0.0,-0.9865,-1.0557,-1.1539,-1.2465,-1.2648,-1.3882,-1.553,-1.688,-1.7607,-1.8174,-1.9002,-1.8984,-1.8483,-1.7479,-1.6521,-1.5304,-1.3186,-1.1645,-1.0083,-0.8024,-0.6915,-0.6412,-0.6763,-0.655,-0.7097,-0.9401,-0.9782,-1.0334,-1.1906,-1.3194,-1.4731,-1.6816,-1.7772,-1.872,-1.9951,-1.9579,-1.9024,-1.8511,-1.9116,0.0,-1.9389,-1.9975,-2.0036,-1.9437,-1.917,-1.8977,-1.8783,-1.808,-1.7516,-1.7076,-1.6993,-1.6685,-1.6151,-1.6248,-1.5851,-1.5085,-1.5129,0.0,0.0,-1.3141,-1.2734,-1.2568,-1.1203,-1.0408,-0.9831,-0.8603,-0.7724,-0.6983,0.0,0.0,0.0,0.0,0.0,-1.0705,-1.5008,-1.4965,-1.6276,-2.1405,-2.1225,-2.0298,-1.9434,-1.6483,-1.2946,-0.8942,-0.6554,0.0,0.0,0.0,0.0,0.0,0.0,0.0,0.0,0.0,-0.5357,-0.5347,-0.6164,-0.6259,0.0,0.0,-0.6087,-0.5264,0.0,0.0,0.0,0.0,0.0,0.0,0.0,0.0,0.0,0.0,0.0,0.0,0.0,0.0,0.0,0.0,0.0,-1.1547,-1.0915,-1.1697,-1.3402,-1.6347,-1.7645,-1.8339,-1.923,-1.9526,-1.918,-1.7506,-1.6389,-1.5161,-1.3167,-1.1172,-0.9343,-0.7892,-0.6702,-0.6003,-0.6255,-0.6109,-0.6593,-0.8571,-0.9086,-0.9624,-1.0798,-1.2108,-1.361,-1.5428,-1.6242,-1.7571,-1.9853,-2.0016,-1.9826,-1.9463,0.0,0.0,-1.9547,-1.9947,-2.0159,-2.0111,-1.9758,-1.9656,-1.9828,-1.8962,-1.8316,-1.7866,-1.7409,-1.698,-1.6595,-1.6697,-1.6287,-1.5475,-1.5506,0.0,0.0,-1.3177,-1.2788,-1.268,-1.105,-1.0401,-1.0161,-0.8289,-0.7421,-0.695,0.0,0.0,0.0,0.0,0.0,0.0,-1.3426,-1.4642,-1.6052,-1.8429,-1.8787,-1.8521,-1.7717,-1.4154,-1.1837,-1.1848,-0.8324,0.0,0.0,0.0,0.0,0.0,0.0,0.0,0.0,0.0,-0.6188,-0.6183,-0.7003,-0.7391,-0.7372,-0.7391,-0.6915,-0.6094,0.0,0.0,0.0,0.0,0.0,0.0,0.0,0.0,0.0,0.0,0.0,0.0,0.0,0.0,0.0,0.0,0.0,0.0,0.0,-1.0369,-1.1684,-1.5038,-1.6208,-1.6964,-1.9426,-2.0269,-2.0071,-1.8403,-1.7287,-1.5908,-1.329,-1.0731,-0.8657,-0.7777,-0.6217,-0.527,-0.6138,-0.5648,-0.5937,-0.8493,-0.8188,-0.8438,-1.0769,-1.1797,-1.2764,-1.398,-1.4307,-1.5542,-1.8356,-1.9992,-2.0767,-2.0495,0.0,0.0,-1.9166,-2.0037,-2.0496,-2.0303,-2.0111,-2.0191,-2.0572,-1.9788,-1.8935,-1.8012,-1.8131,-1.772,-1.6786,-1.6786,-1.6648,0.0,0.0,0.0,0.0,-1.3741,-1.3561,-1.4016,-1.2212,-1.1615,-1.1519,-0.9383,-0.8068,-0.7104,0.0,0.0,0.0,0.0,0.0,0.0,0.0,-1.2081,-1.2949,-1.586,-1.582,-1.5833,-1.6687,-1.4298,-1.2621,-1.2662,-0.9102,0.0,0.0,0.0,0.0,0.0,0.0,0.0,0.0,0.0,-0.7566,-0.8652,-0.9507,-0.9932,-0.9937,-0.9932,-0.9194,-0.7848,-0.7215,-0.6757,0.0,0.0,0.0,0.0,0.0,0.0,0.0,0.0,0.0,0.0,0.0,0.0,0.0,0.0,0.0,0.0,0.0,0.0,0.0,-1.2593,-1.4167,-1.5432,-1.6368,-1.7087,-1.7186,-1.5593,-1.4534,-1.3517,-1.2127,-1.0264,-0.8589,-0.7706,-0.6654,-0.5974,-0.6253,-0.5648,-0.6121,-0.9208,-0.8534,-0.8273,-1.0213,-1.1641,-1.3196,-1.5043,-1.8513,-2.0916,-2.1294,-2.1655,-2.1619,0.0,0.0,0.0,-2.0634,-2.1179,-2.1129,-2.0391,-2.0544,-2.0858,-2.1409,-2.0619,-1.9893,-1.9214,-1.9126,-1.8755,-1.8159,-1.8159,-1.7475,0.0,0.0,0.0,0.0,-1.3266,-1.2978,-1.2569,-1.1413,-1.0448,-0.9604,-0.8353,-0.6925,-0.5422,0.0,0.0,0.0,0.0,0.0,0.0,0.0,-1.0901,-1.1528,-1.3475,-1.3372,-1.3715,-1.5323,-1.3168,-1.1976,-1.2909,-0.9978,0.0,0.0,0.0,0.0,0.0,0.0,0.0,-0.7401,-0.7695,-0.8791,-1.0747,-1.1588,-1.2333,-1.2946,-1.294,-1.1742,-0.955,-0.8922,-0.8132,0.0,0.0,0.0,0.0,0.0,0.0,-0.95,0.0,0.0,0.0,0.0,0.0,0.0,0.0,0.0,0.0,0.0,0.0,0.0,0.0,-1.2049,-1.343,-1.4573,-1.5315,-1.5434,-1.4176,-1.3232,-1.2309,-1.1147,-0.9548,-0.8077,-0.7221,-0.6384,-0.5813,-0.5807,-0.5392,-0.586,-0.8284,-0.8075,-0.8309,-1.033,-1.1775,-1.3362,-1.5337,-1.9694,-2.2283,-2.1495,-2.2349,-2.2733,0.0,0.0,0.0,-2.1718,-2.2123,-2.1984,-2.1104,-2.111,-2.1416,-2.1965,-2.1305,-2.0668,-2.0169,-1.9829,-1.9354,-1.8769,-1.8769,-1.8003,0.0,0.0,0.0,0.0,-1.3872,-1.3561,-1.3081,-1.1233,-1.019,-0.9527,-0.7449,-0.6003,-0.4597,0.0,0.0,0.0,0.0,0.0,0.0,0.0,-1.0807,-1.1326,-1.1337,-1.1386,-1.2005,-1.3498,-1.105,-1.0222,-1.2537,0.0,0.0,0.0,0.0,0.0,0.0,0.0,0.0,-0.7568,-0.8365,-0.9984,-1.2466,-1.3318,-1.4615,-1.6252,-1.6271,-1.4475,-1.1269,-1.114,-0.9699,0.0,0.0,0.0,0.0,-0.8695,-0.884,0.0,0.0,0.0,0.0,0.0,0.0,0.0,0.0,0.0,0.0,0.0,0.0,0.0,0.0,0.0,0.0,0.0,-1.4516,-1.452,-1.371,-1.29,-1.188,-1.0273,-0.8601,0.0,-0.6441,-0.5595,-0.502,-0.5072,-0.5036,-0.5325,-0.6308,-0.71,-0.8472,-1.1035,-1.2401,-1.3772,-1.5512,-1.8787,-2.0593,-1.9849,-2.2313,0.0,0.0,0.0,0.0,-2.2503,-2.2954,-2.2939,-2.2335,-2.1812,-2.1772,-2.2315,-2.179,-2.1289,-2.0814,-2.0249,-1.9564,-1.8779,-1.8779,-1.8315,0.0,0.0,0.0,0.0,-1.5111,-1.4983,-1.4974,-1.1577,-1.0707,-1.0857,-0.6923,-0.5049,-0.4161,0.0,0.0,0.0,0.0,0.0,0.0,0.0,0.0,0.0,0.0,-0.9728,-0.99,-1.03,-0.9673,-0.9476,0.0,0.0,0.0,0.0,0.0,0.0,0.0,0.0,0.0,-0.9238,-1.0031,-1.1647,-1.4137,-1.5558,-1.7107,-1.8759,-1.8745,-1.7018,-1.3877,-1.3142,-1.1405,0.0,0.0,0.0,0.0,-0.9292,-0.9319,0.0,0.0,0.0,0.0,-0.95,-0.9517,0.0,0.0,0.0,0.0,0.0,0.0,0.0,0.0,-0.9635,-0.9924,-1.0548,0.0,-1.1601,-1.084,-1.0069,-0.9374,0.0,-0.7668,-0.6455,-0.6251,-0.557,-0.5198,-0.587,-0.5455,-0.5703,-0.7856,-0.7829,-0.8645,-1.1842,-1.5224,-1.819,-2.0437,-2.1926,-2.2682,-2.251,-2.3066,0.0,0.0,0.0,-2.3582,-2.3971,-2.3731,-2.3516,-2.3358,-2.2341,-2.2002,-2.2449,-2.2022,-2.1552,-2.1023,-2.0797,-2.0311,-1.969,-1.953,-1.8784,0.0,0.0,0.0,-1.4573,-1.4844,-1.4779,-1.4248,-1.172,-1.0548,-1.0026,-0.7252,-0.4046,-0.0817,0.0,0.0,0.0,0.0,0.0,0.0,0.0,0.0,0.0,0.0,0.0,-0.9158,-0.9196,-0.9191,0.0,0.0,0.0,0.0,0.0,0.0,0.0,0.0,0.0,-0.9703,-0.9703,-1.0534,-1.2539,-1.5762,-1.7028,-1.8846,-2.1152,-2.0849,-1.8748,-1.511,-1.2715,-1.0857,0.0,0.0,0.0,-0.9473,-0.9094,0.0,0.0,0.0,0.0,0.0,-0.95,-0.95,0.0,-1.002,-0.9909,-0.9664,0.0,0.0,0.0,0.0,-0.95,-0.95,-0.95,-0.9869,-1.0149,-0.9759,-0.9065,-0.8415,-0.8073,-0.7065,-0.6078,-0.5688,-0.5274,-0.5141,-0.5625,-0.5941,-0.6482,-0.7489,-0.8912,-1.095,-1.3958,-1.6865,-1.933,-2.1166,-2.1961,-2.2514,0.0,0.0,0.0,0.0,0.0,-2.3929,-2.3987,-2.3952,-2.3919,-2.3896,-2.3039,-2.2428,-2.2057,-2.1523,-2.1042,-2.0636,-2.0591,-2.0446,-2.0178,-1.972,-1.9137,0.0,0.0,0.0,-1.5057,-1.5555,-1.481,-1.3156,-1.0758,-0.932,-0.8212,-0.4724,-0.1841,0.0784,0.0,0.0,0.0,0.0,0.0,0.0,0.0,0.0,0.0,0.0,0.0,0.0,0.0,0.0,0.0,0.0,0.0,0.0,0.0,0.0,0.0,0.0,-0.9593,-0.9765,-1.0139,-1.0627,-1.2879,-1.6946,-1.7945,-1.9929,-2.2794,-2.2602,-2.0144,-1.5729,-1.1892,-0.9886,0.0,0.0,-0.8863,-0.9421,-0.8746,0.0,0.0,0.0,0.0,0.0,0.0,0.0,0.0,-1.0286,-1.006,-0.9617,-1.0304,0.0,0.0,0.0,0.0,0.0,-0.9653,-0.9831,-0.9928,-0.9649,-0.9037,-0.8273,-0.7463,-0.6715,-0.5925,-0.5085,-0.4951,-0.5109,-0.5474,-0.6508,-0.7249,-0.7052,-1.0551,-1.4121,-1.6543,-1.8191,-1.9534,-2.0471,-2.1028,0.0,-2.2253,0.0,0.0,0.0,0.0,-2.3832,-2.327,-2.3648,-2.3861,-2.3805,-2.3272,-2.2482,-2.1394,-2.0894,-2.0487,-2.0093,-2.0164,-2.0247,-2.0274,-1.959,-1.9276,-1.9262,0.0,0.0,-1.6467,-1.6664,-1.4908,-1.1868,-0.9284,-0.7191,-0.5151,-0.134,0.0857,0.2531,0.0,0.0,0.0,0.0,0.0,0.0,0.0,0.0,0.0,0.0,0.0,0.0,0.0,0.0,0.0,0.0,0.0,0.0,0.0,0.0,0.0,-0.9349,-0.9508,-1.0531,-1.2524,-1.1405,-1.2767,-1.6743,-1.8301,-1.9999,-2.1862,-2.3915,-2.1981,-1.6682,-1.3941,-1.1524,-0.9473,-0.9296,-0.9296,-0.9412,-0.9349,0.0,0.0,0.0,0.0,0.0,0.0,0.0,0.0,-0.9635,-0.9599,-0.9527,-0.9653,0.0,0.0,0.0,0.0,0.0,-1.0322,-1.1139,-1.144,-0.9903,-0.8969,-0.8205,-0.7403,-0.6604,-0.5813,-0.5049,-0.4899,-0.5566,-0.7654,-0.715,-0.7281,-0.9936,-1.3492,-1.6543,-1.8353,-2.0706,-2.2269,-2.24,0.0,-2.2144,0.0,0.0,0.0,0.0,0.0,-2.1954,-2.2434,-2.2439,-2.2421,-2.2421,-2.1622,-2.1113,-2.0908,-2.1274,-2.0994,-2.0106,-2.0237,-2.0133,-1.9781,-1.9402,-1.9061,0.0,0.0,-1.8119,-1.8062,-1.7319,-1.4608,-1.0616,-0.783,-0.3652,0.0725,-0.0,0.3189,0.8207,0.0,0.0,0.0,0.0,0.0,0.0,0.0,0.0,0.0,0.0,0.0,0.0,0.0,0.0,0.0,0.0,0.0,0.0,0.0,0.0,0.0,-1.1036,-1.1237,-1.1862,-1.2974,-1.36,-1.5882,-1.9902,-2.157,-2.3186,-2.4628,-2.2334,-1.9421,-1.6031,-1.2727,-1.0585,-0.9439,-0.9412,-0.9394,-0.9394,0.0,0.0,0.0,0.0,0.0,0.0,0.0,0.0,0.0,0.0,-0.9861,-0.9581,-1.0005,0.0,0.0,0.0,0.0,0.0,-0.9843,-1.0072,-1.0231,-1.0811,-1.1132,-1.1225,-1.0859,-1.0167,-0.9238,-0.7888,-0.7662,-0.7873,-0.8451,-0.9503,-1.1575,-1.5491,-1.6697,-1.7608,-1.8926,-1.9707,-2.0501,0.0,0.0,0.0,0.0,0.0,0.0,0.0,0.0,0.0,-2.1768,-2.2475,-2.2661,-2.2125,-2.2173,-2.1749,-2.0814,-2.1113,-2.0735,-1.9683,-1.9775,-1.9685,-1.9425,-1.9206,-1.903,-1.8916,0.0,-1.8648,-1.8139,-1.805,-1.4136,-0.8044,-0.6199,-0.1566,0.4181,0.535,0.8394,1.2141,0.0,0.0,0.0,0.0,0.0,0.0,0.0,0.0,0.0,0.0,0.0,0.0,0.0,0.0,0.0,0.0,0.0,0.0,0.0,0.0,-1.0128,-1.2226,-1.2758,-1.3559,-1.4751,-1.6299,-1.9075,-2.3091,-2.454,-2.5881,-2.6898,-2.1216,-1.7471,-1.5356,-1.1898,-1.0015,-0.9394,-0.9394,-0.9394,-0.9394,0.0,0.0,0.0,0.0,0.0,0.0,0.0,0.0,0.0,0.0,0.0,0.0,0.0,0.0,0.0,-0.95,-0.893,-0.8514,-0.9508,-0.9385,-0.9529,-1.189,-1.2633,-1.2972,-1.3645,-1.3041,-1.1973,-1.0775,-1.0633,-1.0439,-0.9576,-1.1965,-1.5177,-1.862,-1.871,-1.8698,-1.9665,-1.9374,-1.9465,-2.0644,-2.0145,0.0,0.0,0.0,0.0,0.0,0.0,0.0,-2.1081,-2.2159,-2.2445,-2.1687,-2.2319,-2.2026,-2.0698,-2.0821,-2.0394,-1.9447,-1.9294,-1.9163,-1.905,-1.8709,-1.8591,-1.8715,-1.921,-1.885,-1.7966,-1.8427,-1.3458,-0.5539,-0.525,-0.0745,0.6127,1.0594,1.2765,1.3631,0.0,0.0,0.0,0.0,0.0,0.0,0.0,0.0,0.0,0.0,0.0,0.0,0.0,0.0,0.0,0.0,0.0,0.0,0.0,0.0,-0.9812,-1.1425,-1.2878,-1.573,-2.023,-1.9213,-2.0573,-2.4557,-2.5361,-2.59,-2.6123,-2.2718,-1.9125,-1.5406,-1.3695,-1.1616,-0.9394,-0.9394,-0.9394,-0.9394,-0.9394,0.0,0.0,0.0,0.0,0.0,0.0,0.0,0.0,0.0,0.0,0.0,0.0,0.0,-0.95,-0.95,-0.893,-0.8641,-1.0195,-1.0748,-1.1295,-1.2915,-1.1551,-1.051,-1.3195,-1.2465,-1.1435,-1.2245,-1.2467,-1.2429,-1.2179,-1.3595,-1.4999,-1.5486,-1.8232,-2.0601,-2.1484,0.0,-2.244,0.0,0.0,0.0,0.0,0.0,0.0,0.0,0.0,0.0,-2.0296,-2.0377,-2.0416,-2.0336,-2.0458,-2.0456,-2.0332,-2.0473,-2.0308,-1.9857,-1.905,-1.8659,-1.8621,-1.7671,-1.7204,-1.7197,-1.7795,-1.8123,-1.826,-1.8099,-1.2376,-0.3877,-0.5744,-0.1559,0.6357,1.3333,1.3778,1.1362,0.0,0.0,0.0,0.0,0.0,0.0,0.0,0.0,0.0,0.0,0.0,0.0,0.0,0.0,0.0,0.0,0.0,0.0,0.0,-0.9109,-1.0198,-1.2653,-1.4324,-1.65,-1.9275,-2.1308,-2.4247,-2.8184,-2.7584,-2.6576,-2.513,-2.0511,-1.7012,-1.4531,-1.1967,-1.03,-0.9394,-0.9394,-0.9109,-0.8655,-0.8655,-0.8655,0.0,0.0,0.0,0.0,0.0,0.0,0.0,0.0,-0.9501,-0.9501,-0.95,-0.95,-0.95,-0.95,-0.8605,-0.7852,-0.892,-0.9739,-1.056,-1.1693,-1.1535,-1.2006,-1.5427,-1.5708,-1.5465,-1.6389,-1.6203,-1.5666,-1.4939,-1.7112,-1.868,-1.7714,-1.9639,-2.1377,-2.1746,-2.1659,0.0,0.0,0.0,0.0,0.0,0.0,0.0,0.0,0.0,0.0,-2.1075,-2.1584,-2.1391,-2.0296,-2.0852,-2.0912,-2.0371,-2.0461,-2.0428,-2.0269,-1.9272,-1.8223,-1.7159,-1.7217,-1.6984,-1.6592,-1.7152,-1.7475,-1.7605,-1.7439,-1.2589,-0.4809,-0.0508,0.3362,0.701,1.121,1.1681,1.0639,0.0,0.0,0.0,0.0,0.0,0.0,0.0,0.0,0.0,0.0,0.0,0.0,0.0,0.0,0.0,0.0,0.0,0.0,-0.9109,-0.9109,-1.0238,-1.2793,-1.4238,-1.6132,-1.8617,-2.1966,-2.5243,-2.851,-2.8037,-2.6371,-2.3463,-1.8967,-1.6002,-1.4345,-1.1187,-1.0063,-1.0463,-0.9715,-0.9091,-0.8583,-0.8583,-0.8583,0.0,0.0,0.0,0.0,0.0,0.0,0.0,0.0,-0.9475,-0.9483,-0.9457,-0.943,-0.9394,-0.9125,-0.8496,-0.799,-0.8525,-0.9179,-1.0028,-1.1434,-1.214,-1.3374,-1.6823,-1.7215,-1.7407,-1.9381,-1.8941,-1.797,-1.7305,-1.8892,-2.0019,-1.9172,-2.0297,-2.1308,-2.1377,0.0,0.0,0.0,0.0,0.0,0.0,0.0,0.0,0.0,0.0,0.0,0.0,-2.219,-2.1845,-2.0361,-2.094,-2.1009,-2.0402,-2.0476,-2.0214,-1.9648,-1.8893,-1.7939,-1.6797,-1.6728,-1.6434,-1.6016,-1.6576,-1.6739,-1.6567,-1.6113,-1.2206,-0.5687,0.2628,0.5672,0.5818,0.9289,1.0394,1.0488,0.0,0.0,0.0,0.0,0.0,0.0,0.0,0.0,0.0,0.0,0.0,0.0,0.0,0.0,0.0,0.0,0.0,0.0,-0.9109,-0.9099,-0.9783,-1.1322,-1.2103,-1.4607,-1.912,-2.0935,-2.2729,-2.4593,-2.6167,-2.4926,-2.1001,-1.8663,-1.6753,-1.5131,-1.202,-1.1455,-1.2715,-1.0392,-0.9394,-0.9394,-0.9394,-0.9394,-0.9394,0.0,0.0,0.0,0.0,0.0,0.0,0.0,-0.9439,-0.9466,-0.934,-0.9303,-0.9143,-0.8329,-0.8656,-0.9295,-0.9438,-0.9508,-1.0131,-1.2648,-1.3301,-1.4046,-1.6782,-1.6178,-1.6285,-2.0617,-2.0205,-1.9076,-1.91,-1.8371,-1.8053,-1.8958,-1.9854,-2.0448,0.0,0.0,0.0,0.0,0.0,0.0,0.0,0.0,0.0,0.0,0.0,0.0,0.0,-2.1679,-2.1287,-2.0336,-2.0377,-2.0406,-2.0391,-2.0469,-1.9599,-1.7818,-1.7799,-1.7823,-1.7813,-1.6159,-1.5362,-1.533,-1.5937,-1.5854,-1.5192,-1.4041,-1.0973,-0.6171,0.2377,0.4053,0.2358,0.825,1.0433,1.0715,0.0,0.0,0.0,0.0,0.0,0.0,0.0,0.0,0.0,0.0,0.0,0.0,0.0,0.0,0.0,0.0,0.0,0.0,-0.9109,-0.9007,-0.9418,-1.045,-1.1625,-1.2695,-1.358,-1.5853,-1.919,-2.3631,-2.3519,-2.1529,-1.7772,-1.6509,-1.4798,-1.274,-1.2371,-1.1551,-1.0392,-0.9697,-0.9073,-0.8548,-0.8548,-0.8548,-0.8548,0.0,0.0,0.0,0.0,0.0,0.0,0.0,0.0,0.0,-0.932,-0.9301,-0.9142,-0.8329,-0.7861,-0.7637,-0.7781,-0.9633,-1.1562,-1.1655,-1.3943,-1.6392,-1.7216,-1.7908,-1.9135,-2.1805,-2.2912,-2.2694,-2.026,-2.1198,-2.1791,-2.0134,-2.1196,-2.2435,0.0,0.0,0.0,0.0,0.0,0.0,0.0,0.0,0.0,0.0,0.0,0.0,0.0,-2.2936,-2.2238,-2.1386,-2.0772,-2.0479,-2.0469,-2.0497,-1.9904,-1.8702,-1.815,-1.7203,-1.5982,-1.5486,-1.5144,-1.4954,-1.519,-1.5081,-1.4514,-1.1675,-0.9811,-0.8239,-0.2995,-0.1415,-0.1514,0.3308,0.5026,0.5476,0.0,0.0,0.0,0.0,0.0,0.0,0.0,0.0,0.0,0.0,-0.853,-0.8648,0.0,0.0,0.0,0.0,0.0,0.0,-0.8974,-0.8942,-0.9247,-0.9984,-1.0835,-1.1523,-1.2052,-1.4469,-1.6793,-1.8959,-1.9811,-1.8565,-1.5418,-1.5844,-1.5278,-1.3949,-1.4473,-1.3729,-1.2079,-1.1172,-1.016,-0.9144,-0.9144,-0.9144,-0.9144,0.0,0.0,0.0,0.0,0.0,0.0,0.0,0.0,0.0,-0.8841,-0.8602,-0.8321,-0.8144,-0.8206,-0.8505,-0.9298,-1.1346,-1.3354,-1.3849,-1.5932,-1.814,-1.9152,-1.9915,-2.0836,-2.2355,-2.3543,-2.3769,-2.2002,-2.2808,0.0,-2.2006,-2.2455,0.0,0.0,0.0,0.0,0.0,0.0,0.0,0.0,0.0,0.0,0.0,0.0,0.0,0.0,-2.3521,0.0,0.0,-2.0854,-2.0659,-1.9994,-2.0327,-1.9869,-1.8571,-1.7961,-1.6712,-1.496,-1.5097,-1.5031,-1.4798,-1.4749,-1.391,-1.2367,-1.0125,-0.8482,-0.7152,-0.4735,-0.3738,-0.3189,0.0788,0.2191,0.2688,0.0,0.0,0.0,0.0,0.0,0.0,0.0,0.0,0.0,-0.8205,-0.8351,-0.8495,0.0,0.0,0.0,-0.8794,-0.8846,-0.8858,-0.8806,-0.8846,-0.9183,-0.9852,-1.0005,-1.1061,-1.3108,-1.5212,-1.4963,-1.2264,-1.5483,-1.5883,-1.3725,-1.6097,-1.7116,-1.6992,-1.7205,-1.6747,-1.5706,-1.3511,-1.1753,-1.0463,-1.0474,-1.0474,-1.0463,-1.0345,0.0,0.0,0.0,0.0,0.0,0.0,0.0,0.0,-0.7996,-0.7482,-0.7013,-0.7681,-0.907,-1.0766,-1.2436,-1.3735,-1.5239,-1.7768,-1.8569,-1.9356,-2.1745,-2.1707,-2.1471,-2.2477,-2.2844,-2.3234,-2.403,-2.3593,-2.3354,0.0,0.0,0.0,0.0,0.0,0.0,0.0,0.0,0.0,0.0,0.0,0.0,0.0,0.0,0.0,0.0,0.0,0.0,-1.9214,-2.0714,-2.0795,-1.9191,-1.9962,-1.9444,0.0,-1.7329,-1.6261,-1.4565,-1.4901,-1.4945,-1.4753,-1.4436,-1.267,-0.9964,-0.9418,-0.7381,-0.4601,-0.4045,-0.3731,-0.3203,0.0165,0.141,0.1869,0.0,0.0,0.0,0.0,0.0,0.0,0.0,0.0,-0.8149,-0.8137,-0.8205,-0.8314,-0.8422,-0.8508,0.0,-0.8719,-0.8743,-0.8766,-0.8794,-0.8818,-0.91,-0.9713,-1.0837,-1.1447,-1.1364,-1.1953,-1.1662,-1.0464,-1.2554,-1.3049,-1.2078,-1.4996,-1.5713,-1.4609,-1.5904,-1.5007,-1.2429,-1.0713,-0.9801,-0.9502,-0.9551,-0.957,-0.9588,-0.9597,-0.9117,0.0,0.0,0.0,0.0,0.0,0.0,0.0,-0.7037,-0.6875,-0.667,-0.6263,-0.7759,-0.9689,-1.0281,-1.3012,-1.5974,-1.7246,-1.8642,-2.0001,-2.1117,-2.0816,-2.0866,-2.2962,-2.3904,-2.4436,-2.4683,-2.4667,-2.4685,0.0,0.0,0.0,0.0,0.0,0.0,0.0,0.0,0.0,0.0,0.0,0.0,0.0,0.0,0.0,0.0,0.0,0.0,-2.0828,-2.0608,-2.0055,-1.9046,-1.9226,-1.8325,0.0,-1.6307,-1.5591,-1.4301,-1.4567,-1.4634,-1.4423,-1.3341,-1.2959,-1.292,-1.0174,-0.8669,-0.784,-0.5047,-0.3835,-0.3271,0.0146,0.1427,0.1947,0.0,0.0,0.0,0.0,0.0,0.0,0.0,0.0,-0.8176,-0.8108,-0.8137,-0.8191,-0.8287,-0.834,0.0,0.0,-0.8575,-0.86,-0.86,-0.8696,-0.9189,-1.0184,-1.1237,-1.1499,-1.0811,-1.0524,-1.0048,-0.938,-0.9937,-1.0599,-1.1416,-1.3775,-1.483,-1.4846,-1.6116,-1.5138,-1.2474,-1.1381,-1.0485,-0.9771,-0.9812,-0.9822,-0.9786,-0.9396,-0.877,-0.8031,-0.7553,0.0,0.0,0.0,0.0,0.0,0.0,0.0,-0.6176,-0.6218,-0.7386,-0.9162,-1.1398,-1.3893,-1.6306,-1.8127,-1.9268,-2.0047,-2.0474,-2.0535,-2.1005,-2.2691,-2.3417,-2.3999,-2.4796,-2.508,0.0,0.0,0.0,0.0,0.0,0.0,0.0,0.0,0.0,0.0,0.0,0.0,0.0,0.0,0.0,0.0,0.0,-2.3246,-2.2281,-2.0539,-2.0232,-1.9526,-1.8282,-1.8378,-1.7605,-1.5996,-1.5894,-1.5218,-1.4051,-1.4075,-1.4044,-1.3953,-1.2699,-1.2082,-1.1751,-0.9274,-0.7854,-0.7049,-0.4612,-0.3704,-0.3434,-0.0853,0.04,0.1107,0.0,0.0,0.0,0.0,0.0,0.0,0.0,0.0,0.0,-0.8108,-0.8094,-0.8123,-0.8178,-0.8178,-0.8218,0.0,0.0,0.0,-0.8374,-0.8677,-0.936,-1.0564,-1.1205,-1.1287,-1.0796,-1.0063,-0.9435,-0.8947,-0.8193,-0.9029,-1.135,-1.2783,-1.4178,-1.5483,-1.6214,-1.5332,-1.3251,-1.2463,-1.1363,-1.0142,-1.0024,-0.9971,-0.9873,-0.9052,-0.8266,-0.7518,-0.6707,-0.6495,-0.666,-0.7215,0.0,0.0,0.0,0.0,-0.5685,-0.6292,-0.7309,-0.8992,-1.2477,-1.456,-1.6414,-1.9243,-1.9908,-1.9866,-1.9908,-2.0382,-2.1098,-2.2077,-2.2533,-2.321,-2.4708,0.0,0.0,0.0,0.0,0.0,0.0,0.0,0.0,0.0,0.0,0.0,0.0,0.0,0.0,0.0,0.0,0.0,-2.3191,-2.3107,-2.2009,-1.9634,-1.9813,-1.9231,-1.7697,-1.7649,-1.7056,-1.5904,-1.5503,-1.4787,-1.3838,-1.3498,-1.3449,-1.3539,-1.2238,-1.1039,-0.9864,-0.816,-0.6735,-0.5473,-0.4051,-0.3638,-0.3647,-0.1843,-0.0703,0.0122,0.0,0.0,0.0,0.0,0.0,0.0,0.0,0.0,0.0,0.0,-0.8094,-0.8094,-0.8123,-0.8123,-0.815,-0.8205,-0.8232,-0.8258,-0.8322,0.0,0.0,-0.9823,-1.0489,-1.08,-1.0718,-1.0005,-0.9584,-0.9484,-0.8757,-0.9555,-1.1827,-1.2857,-1.3481,-1.3735,-1.3803,-1.3035,-1.1615,-1.0064,-0.9299,-0.9043,-0.8531,-0.829,-0.8166,-0.7532,-0.679,-0.6061,-0.5819,-0.5712,-0.5676,-0.5706,-0.6045,0.0,0.0,0.0,-0.5343,-0.4863,-0.6812,-0.9135,-0.9135,-1.2419,-1.65,-1.9088,-1.9695,-1.9625,-1.9585,-1.9628,-2.0108,-2.1514,-2.2656,-2.3695,0.0,0.0,0.0,0.0,0.0,0.0,0.0,0.0,0.0,0.0,0.0,0.0,0.0,0.0,0.0,0.0,0.0,0.0,-2.2152,-2.1464,-2.0578,-1.946,-1.9623,-1.9307,-1.8384,-1.748,-1.652,-1.5557,-1.4356,-1.374,-1.3625,-1.3055,-1.3109,-1.3484,-1.1607,-1.1092,-1.1383,-0.8755,-0.7517,-0.7071,-0.504,-0.4208,-0.3865,-0.154,-0.0551,-0.0019,0.0,0.0,0.0,0.0,0.0,0.0,0.0,0.0,0.0,0.0,0.0,-0.8094,-0.8094,-0.8094,-0.8123,-0.815,-0.815,-0.8205,-0.8353,-0.865,-0.9067,-0.9563,-0.9475,-0.9609,-1.0027,-0.9348,-0.8976,-0.8976,-0.8669,-0.9632,-1.1792,-1.2222,-1.2955,-1.3849,-1.2588,-1.1709,-1.1036,-0.9055,-0.8223,-0.8166,-0.7532,-0.8358,-0.9701,-0.7128,-0.7114,-0.8127,-0.5767,-0.4903,-0.5002,-0.5757,-0.6208,-0.6405,-0.6118,0.0,0.0,0.0,-0.5664,-0.7682,-1.0322,-1.3721,-1.7044,-1.9195,-1.9643,-1.9559,-1.9564,-1.949,-1.9863,-2.1377,-2.2152,0.0,0.0,0.0,0.0,0.0,0.0,0.0,0.0,0.0,0.0,0.0,0.0,0.0,0.0,0.0,0.0,0.0,0.0,-2.2912,-2.1937,-2.0993,-2.0118,-1.9357,-1.8994,-1.8196,-1.6935,-1.6608,-1.585,-1.4652,-1.3806,-1.3092,-1.2523,-1.2147,-1.2414,-1.3059,-1.1538,-1.0884,-1.0711,-0.838,-0.7226,-0.6714,-0.465,-0.391,-0.3865,-0.2549,-0.1264,-0.0038,0.0,0.0,0.0,0.0,0.0,0.0,0.0,0.0,0.0,0.0,0.0,-0.8094,-0.8094,0.0,0.0,0.0,-0.8094,-0.8164,-0.8343,-0.8298,-0.8544,-0.9163,-0.8658,-0.8629,-0.9183,-0.8701,-0.8454,-0.8483,-0.8483,-0.9687,-1.1982,-1.1788,-1.2773,-1.4622,-1.2439,-1.1191,-1.0597,-0.8744,-0.7948,-0.7942,-0.7737,-0.9091,-1.0983,-0.8352,-0.8868,-1.0498,-0.6645,-0.5343,-0.558,-0.625,-0.6592,-0.6723,-0.6526,-0.6477,0.0,0.0,0.0,-0.6154,-1.0891,-1.3589,-1.5647,-1.8143,-1.8756,-1.8869,-1.9392,-1.938,-1.9714,0.0,-2.1622,0.0,0.0,0.0,0.0,0.0,0.0,0.0,0.0,0.0,0.0,0.0,0.0,0.0,0.0,0.0,0.0,0.0,0.0,-2.2309,-2.1625,-2.0615,-1.9725,-1.8987,-1.8433,-1.7435,-1.5991,-1.588,-1.5154,-1.3786,-1.3476,-1.2925,-1.2141,-1.1638,-1.1791,-1.2385,-1.1014,-1.0185,-0.9647,-0.7859,-0.6803,-0.6153,-0.4472,-0.3854,-0.3823,-0.3168,-0.1711,-0.0058,0.0,0.0,0.0,0.0,0.0,0.0,0.0,0.0,0.0,0.0,0.0,-0.8094,-0.8094,-0.8094,-0.8094,-0.8094,-0.8094,-0.8137,-0.8205,-0.8205,-0.8261,-0.8356,-0.8338,0.0,-0.8369,-0.8338,-0.8348,-0.8415,-0.8415,-0.9899,-1.2729,-1.2031,-1.3197,-1.5827,-1.3674,-1.1679,-0.9902,-0.9023,-0.8639,-0.8736,-0.9787,-1.0269,-1.0511,-1.1899,-1.2415,-1.1988,-0.877,-0.7954,-0.8179,-0.6847,-0.6869,-0.7335,-0.6626,-0.6405,-0.6113,0.0,0.0,0.0,-0.8488,-0.9545,-1.0709,-1.4864,-1.6278,-1.7116,-1.882,-1.9119,-1.9399,-2.0764,0.0,0.0,0.0,0.0,0.0,0.0,0.0,0.0,0.0,0.0,0.0,0.0,0.0,0.0,0.0,0.0,0.0,0.0,0.0,-2.0529,-2.0662,-1.989,-1.9014,-1.8097,-1.8153,-1.7725,-1.6758,-1.5684,-1.45,-1.3244,-1.3346,-1.3413,-1.3361,-1.2019,-1.1466,-1.1455,-0.9426,-0.8709,-0.8851,-0.7479,-0.6598,-0.6055,-0.5309,-0.4548,-0.3748,-0.2589,-0.1358,-0.0141,0.0,0.0,0.0,0.0,0.0,0.0,0.0,0.0,0.0,0.0,0.0,0.0,0.0,-0.8094,-0.7924,-0.7505,-0.7459,-0.7644,-0.8106,-0.8137,-0.815,-0.8176,-0.8203,-0.8245,-0.8245,-0.7844,-0.766,-0.77,-0.77,-0.8709,-1.0624,-1.0881,-1.1784,-1.3151,-1.2417,-1.171,-1.0926,-0.8816,-0.7967,-0.8177,-1.0227,-1.2258,-1.4023,-1.3514,-1.4843,-1.6498,-1.2845,-1.0602,-0.9471,-1.0089,-0.8745,-0.6746,-0.6486,-0.6072,-0.5497,-0.4491,-0.4546,-0.5451,-0.7787,-0.8851,-0.9932,-1.2597,-1.4575,-1.6041,-1.6729,-1.798,-1.9381,-2.0764,0.0,0.0,0.0,0.0,0.0,0.0,0.0,0.0,0.0,0.0,0.0,0.0,0.0,0.0,0.0,0.0,0.0,0.0,0.0,0.0,-2.0537,-1.9685,-1.8596,-1.7268,-1.7702,-1.7337,-1.6041,-1.4769,-1.3908,-1.3459,-1.3106,-1.2626,-1.1979,-1.0697,-0.9883,-0.9444,-0.8133,-0.8075,-0.8846,-0.8193,-0.7223,-0.6087,-0.5276,-0.4477,-0.3705,-0.3181,-0.2285,-0.1245,0.0,0.0,0.0,0.0,0.0,0.0,0.0,0.0,-0.8057,-0.8057,0.0,0.0,0.0,0.0,-0.7911,-0.7462,-0.7444,-0.7616,-0.8063,-0.8094,-0.8094,-0.8094,-0.7934,-0.7836,-0.7836,-0.7218,-0.6908,-0.6941,-0.6941,-0.7771,-0.9413,-0.9951,-1.0832,-1.1919,-1.1234,-1.1091,-1.1221,-0.9113,-0.8095,-0.8203,-1.1602,-1.3959,-1.5479,-1.5819,-1.7088,-1.8293,-1.5276,-1.2908,-1.1463,-1.3292,-1.2075,-0.958,-0.8392,-0.6568,-0.4792,-0.4316,-0.4514,-0.5157,-0.6331,-0.7285,-0.8391,-1.0351,-1.2054,-1.3702,-1.5386,-1.6805,-1.8393,-2.0621,0.0,0.0,0.0,0.0,0.0,0.0,0.0,0.0,0.0,0.0,0.0,0.0,0.0,0.0,0.0,0.0,0.0,0.0,0.0,0.0,-1.9811,-1.9321,-1.8308,-1.6715,-1.6627,-1.6063,-1.4906,-1.4049,-1.354,-1.3328,-1.2929,-1.2425,-1.1807,-1.0594,-0.9703,-0.9044,-0.822,-0.8149,-0.8618,-0.8406,-0.751,-0.6215,-0.561,-0.4767,-0.384,-0.3685,-0.2946,-0.1935,0.0,0.0,0.0,0.0,0.0,0.0,0.0,0.0,-0.8,-0.8,0.0,0.0,0.0,0.0,0.0,-0.8125,-0.8109,-0.8094,-0.8079,-0.8063,-0.8063,-0.8048,-0.7416,-0.7073,-0.7073,-0.6418,-0.611,-0.616,-0.616,-0.7241,-0.927,-0.9318,-1.0447,-1.2345,-1.0288,-0.9822,-1.0541,-0.9814,-0.9135,-0.8974,-1.4015,-1.5237,-1.4551,-1.8962,-1.9286,-1.7238,-1.6099,-1.5019,-1.4411,-1.6273,-1.6648,-1.5741,-1.216,-0.7837,-0.4096,-0.4096,-0.4096,-0.4082,0.0,0.0,0.0,-0.7993,-0.8667,-1.001,-1.4784,-1.5518,-1.6268,-2.0076,0.0,0.0,0.0,0.0,0.0,0.0,0.0,0.0,0.0,0.0,0.0,0.0,0.0,0.0,0.0,0.0,0.0,0.0,0.0,-1.8452,-1.8528,-1.8717,-1.8071,-1.6447,-1.4952,-1.3966,-1.3495,-1.3605,-1.3395,-1.2815,-1.2813,-1.29,-1.306,-1.1866,-1.1047,-1.0497,-0.9727,-0.8914,-0.8156,-0.8046,-0.7374,-0.6403,-0.633,-0.5435,-0.4192,-0.4001,-0.321,-0.2204,0.0,0.0,0.0,0.0,0.0,-0.7899,-0.7899,-0.7912,-0.7926,0.0,0.0,0.0,-0.8046,-0.8014,-0.8225,-0.8713,-0.83,-0.7838,-0.74,-0.7382,-0.7153,-0.6668,-0.6468,-0.6376,-0.6376,-0.5716,-0.5387,-0.5399,-0.5399,-0.5712,-0.6317,-0.7336,-0.8156,-0.8763,-0.87,-0.8533,-0.8277,-0.7522,-0.8024,-0.9588,-1.3048,-1.5801,-1.8078,-2.0533,-2.2447,-2.372,-2.2902,-2.1154,-1.9386,-2.0715,-1.7625,-1.2438,-0.8248,-0.5626,-0.4092,-0.4092,-0.4098,-0.4068,-0.3957,0.0,0.0,0.0,0.0,0.0,-0.9721,-1.1334,-1.3488,-1.6783,0.0,0.0,0.0,0.0,0.0,0.0,0.0,0.0,0.0,0.0,0.0,0.0,0.0,0.0,0.0,0.0,0.0,0.0,-1.8766,-1.8598,-1.9401,-1.7825,-1.6675,-1.6267,-1.4543,-1.3572,-1.3428,-1.3362,-1.3356,-1.3372,-1.302,-1.3039,-1.3272,-1.2113,-1.1677,-1.1696,-1.0088,-0.9407,-0.9356,-0.8646,-0.7599,-0.6403,-0.633,-0.5497,-0.4362,-0.4386,-0.4274,-0.4025,0.0,0.0,-0.7989,-0.8259,-0.8544,-0.8739,-0.8739,-0.874,-0.8635,0.0,0.0,0.0,-0.8394,-0.9134,-0.9468,-0.9032,-0.8637,-0.8041,-0.7129,-0.7052,-0.6776,-0.612,-0.6089,-0.6089,-0.6089,-0.5439,-0.5101,-0.5101,-0.4809,-0.4824,-0.5116,-0.5935,-0.6494,-0.6796,-0.6955,-0.6962,-0.6789,-0.5792,-0.6645,-0.9032,-1.3697,-1.6494,-1.8243,-2.1505,-2.33,-2.4121,-2.4566,-2.2926,-2.0991,-2.3736,-1.9857,-1.3407,-1.0511,-0.7492,-0.4891,-0.424,-0.4456,-0.48,-0.4347,-0.453,-0.4801,-0.4673,0.0,0.0,-0.9059,-1.0532,-1.2635,0.0,0.0,0.0,0.0,0.0,0.0,0.0,0.0,0.0,0.0,0.0,0.0,0.0,0.0,0.0,0.0,0.0,0.0,-1.8853,-1.8323,-1.8314,-1.9096,-1.7147,-1.6011,-1.6028,-1.4382,-1.3411,-1.3278,-1.3511,-1.3514,-1.3308,-1.3283,-1.3306,-1.3346,-1.2664,-1.2365,-1.2294,-1.0763,-1.0018,-0.9794,-0.8842,-0.7699,-0.6558,-0.6578,-0.5836,-0.4785,-0.4823,-0.4883,-0.4916,0.0,0.0,-0.8139,-0.889,-0.9563,-1.0024,-1.0099,-1.0114,-0.9908,0.0,-0.8694,-0.8649,-0.9475,-1.0962,-1.1177,-0.9379,-0.9137,-0.85,-0.7098,-0.6931,-0.6653,-0.6109,-0.6028,-0.6013,-0.6079,-0.543,-0.5086,-0.5086,-0.4433,-0.4402,-0.4993,-0.507,-0.5378,-0.5854,-0.5331,-0.5393,-0.5808,-0.4765,-0.5679,-0.8383,-1.4824,-1.6932,-1.6839,-2.2115,-2.3087,-2.182,-2.3589,-2.2654,-2.1198,-2.5214,-2.2395,-1.697,-1.5589,-1.1475,-0.6778,-0.4803,-0.5252,-0.6154,-0.5105,-0.5245,-0.5685,-0.5613,-0.5192,0.0,-1.0203,-1.0906,-1.2129,0.0,0.0,0.0,0.0,0.0,0.0,0.0,0.0,0.0,0.0,0.0,0.0,0.0,0.0,0.0,0.0,-1.8749,-1.8187,-1.798,-1.7822,-1.7861,-1.8194,-1.6728,-1.5828,-1.579,-1.4298,-1.3413,-1.3163,-1.3795,-1.3783,-1.3053,-1.3599,-1.3677,-1.3367,-1.3398,-1.3152,-1.2641,-1.1647,-1.0732,-0.9892,-0.8899,-0.7868,-0.6913,-0.7032,-0.6419,-0.5494,-0.5377,-0.5363,-0.529,-0.7794,-0.7899,-0.8289,-0.9503,-1.0219,-1.0817,-1.1356,-1.1431,-1.1386,-1.1251,-1.1117,-1.17,-1.3451,-1.2538,-1.1467,-1.0595,-1.0037,-0.8953,-0.7121,-0.6485,-0.6136,-0.6026,-0.55,-0.547,-0.6011,-0.5362,-0.5029,-0.5029,-0.4402,-0.4171,-0.4309,-0.484,-0.4886,-0.451,-0.4917,-0.4871,-0.454,-0.5371,-0.7818,-1.1315,-1.297,-1.5609,-1.8991,-2.2915,-2.534,-2.6604,-2.6801,-2.6498,-2.5773,-2.3864,-2.1936,-1.9401,-1.4109,-1.248,-1.1612,-0.7022,-0.714,-0.8274,-0.6157,-0.5646,-0.5573,-0.5024,-0.516,0.0,-0.5423,-0.5718,-0.6736,0.0,-0.9993,0.0,0.0,0.0,0.0,0.0,0.0,0.0,0.0,0.0,0.0,0.0,0.0,0.0,0.0,-1.7743,-1.7482,-1.7755,-1.7861,-1.8031,-1.8266,-1.6556,-1.56,-1.5644,-1.3891,-1.313,-1.35,-1.3702,-1.3874,-1.4038,-1.4143,-1.4083,-1.3859,-1.3982,-1.3982,-1.3786,-1.242,-1.1505,-1.0918,-0.952,-0.8396,-0.753,-0.7559,-0.7198,-0.6644,-0.6422,-0.6367,-0.6381,-0.7839,-0.7899,-0.8424,-1.0069,-1.0892,-1.164,-1.2643,-1.2807,-1.2807,-1.2807,-1.3376,-1.3805,-1.3805,-1.3196,-1.2149,-1.0542,-0.9776,-0.871,-0.7055,-0.633,-0.5813,-0.5521,-0.5535,-0.5697,-0.6047,-0.5717,-0.5558,-0.5558,-0.4548,-0.4042,-0.4065,-0.4425,-0.5141,-0.6059,-0.5048,-0.5156,-0.6059,-0.5387,-0.6712,-0.9639,-1.4058,-1.8437,-2.2656,-2.61,-2.8138,-2.9124,-2.8676,-2.8035,-2.6943,-2.4073,-2.1384,-1.8893,-1.6795,-1.4864,-1.2716,-0.9213,-0.9467,-1.0204,-0.7016,-0.6342,-0.6387,-0.5764,-0.5608,0.0,0.0,-0.6018,-0.6715,-0.9104,-0.9438,-0.9963,0.0,0.0,0.0,0.0,0.0,0.0,0.0,0.0,0.0,0.0,0.0,0.0,0.0,0.0,-1.7085,-1.7248,-1.804,-1.8381,-1.8074,-1.6458,-1.5566,-1.5607,-1.4048,-1.3336,-1.3589,-1.4151,-1.4368,-1.4197,-1.4472,-1.4351,-1.396,-1.4026,-1.3945,-1.3673,-1.2432,-1.1479,-1.0704,-0.956,-0.8673,-0.8031,-0.7868,-0.7482,-0.6973,-0.6781,-0.6691,-0.6669,-0.7899,-0.7899,-0.8484,-1.0305,-1.1281,-1.2209,-1.3421,-1.3735,-1.3899,-1.4154,-1.5139,-1.5319,-1.409,-1.4303,-1.3705,-1.1595,-1.0912,-0.9863,-0.8154,-0.7405,-0.6757,-0.6138,-0.6071,-0.6302,-0.6824,-0.6206,-0.5895,-0.5895,-0.4631,-0.402,-0.402,-0.4065,-0.5248,-0.7277,-0.5879,-0.6095,-0.7431,-0.6033,-0.6776,-0.9462,-1.6348,-2.0737,-2.3608,-2.7657,-2.926,-2.9318,-2.9508,-2.8657,-2.7066,-2.4673,-2.1375,-1.8326,-1.89,-1.6864,-1.3719,-1.0729,-1.137,-1.2113,-0.7855,-0.7054,-0.7223,-0.6463,-0.6038,-0.6043,0.0,0.0,0.0,0.0,0.0,0.0,0.0,0.0,0.0,0.0,0.0,0.0,0.0,0.0,0.0,0.0,0.0,0.0,0.0,0.0,-1.6862,-1.6773,-1.7732,-1.8154,-1.7743,-1.6298,-1.5539,-1.5637,-1.4425,-1.3812,-1.3955,-1.4754,-1.4917,-1.4371,-1.4815,-1.4641,-1.3974,-1.3974,-1.3786,-1.3369,-1.2459,-1.156,-1.0677,-0.9917,-0.9242,-0.8624,-0.8195,-0.7762,-0.7326,-0.7159,-0.702,-0.691,-0.7899,-0.7899,-0.8349,-0.9755,-1.0997,-1.2044,-1.2816,-1.3421,-1.4229,-1.5424,-1.5709,-1.6383,-1.7864,-1.758,-1.713,-1.6831,-1.6726,-1.5411,-1.2336,-1.1491,-1.0832,-1.0155,-0.7436,-0.7032,-0.9413,-0.6616,-0.5127,-0.5127,-0.4433,-0.4094,-0.4094,-0.4042,-0.4211,-0.4694,-0.7961,-0.7945,-0.5654,-0.8911,-1.3179,-1.7838,-1.8783,-1.755,0.0,-2.2668,-2.5255,-2.5699,-2.9076,-2.9417,-2.7814,0.0,-2.2863,-2.0696,-1.5217,-1.6368,-1.8189,-1.0437,-1.1565,-1.4174,-0.8898,-0.7441,-0.7095,-0.5842,-0.5963,-0.5999,-0.4463,0.0,-0.476,-0.4572,0.0,0.0,0.0,0.0,0.0,0.0,0.0,0.0,0.0,0.0,0.0,0.0,0.0,0.0,0.0,0.0,0.0,-1.6628,-1.6185,-1.635,-1.7372,-1.594,-1.5299,-1.5847,-1.4851,-1.4577,-1.5193,-1.5124,-1.5185,-1.533,-1.5345,-1.4951,-1.4268,-1.4332,-1.4163,-1.3808,-1.3262,-1.276,-1.2303,-1.1742,-1.0746,-0.9561,-0.8809,-0.854,-0.8557,-0.8241,-0.7984,-0.7715,-0.7899,-0.7899,-0.8319,-0.9665,-1.0339,-1.1161,-1.2591,-1.4333,-1.5547,-1.5784,-1.6428,-1.7071,-1.7488,-1.6637,-1.6383,-1.7257,-1.7,-1.571,-1.3206,-1.2405,-1.0989,-0.8648,-0.7253,-0.6875,-0.7627,-0.6296,-0.5394,-0.4994,-0.4349,-0.4042,-0.4042,-0.4013,-0.5075,-0.7098,-0.9463,-1.0679,-1.0992,-1.1395,-1.2785,-1.4771,-1.5147,-1.4553,0.0,-2.5103,-2.8853,-2.8688,-3.0251,-2.9981,-2.8646,0.0,-2.3363,0.0,-2.0365,-1.8418,-1.56,-1.3722,-1.3442,-1.2838,-0.8716,-0.876,-0.9315,-0.6688,-0.7243,-0.765,-0.4727,-0.3934,-0.3807,-0.3834,0.0,0.0,0.0,0.0,0.0,0.0,-0.5398,0.0,0.0,0.0,0.0,0.0,0.0,0.0,0.0,0.0,0.0,0.0,0.0,-1.612,-1.5971,-1.5343,-1.495,-1.4857,-1.4853,-1.4838,-1.477,-1.5312,-1.5527,-1.5448,-1.5448,-1.5074,-1.442,-1.456,-1.4241,-1.3615,-1.3439,-1.2934,-1.2187,-1.2027,-1.1111,-0.9758,-0.9477,-0.9057,-0.8589,-0.8365,-0.8052,-0.7695,-0.7899,-0.7899,-0.8214,-0.9172,-0.9518,-1.0223,-1.1969,-1.3859,-1.5188,-1.5499,-1.6323,-1.698,-1.7219,-1.6922,-1.7269,-1.8728,-1.8994,-1.799,-1.5415,-1.4357,-1.2717,-1.0234,-0.8109,-0.7339,-0.8124,-0.6552,-0.5394,-0.4729,-0.4235,-0.4097,-0.4273,-0.409,-0.5417,-0.8068,-1.0001,-1.2091,-1.4108,-1.3611,-1.4136,-1.5277,-1.5489,-1.6259,-1.8248,-2.7009,-3.0853,-3.151,-3.1358,-3.0595,-2.9454,-2.7879,-2.3835,0.0,-2.2996,-1.9801,-1.5213,-1.658,-1.5903,-1.3803,-0.9848,-1.0262,-1.0907,-0.7141,-0.7402,-0.7811,-0.4808,-0.3805,-0.3609,-0.3949,0.0,0.0,0.0,0.0,0.0,0.0,0.0,-0.5196,0.0,0.0,0.0,0.0,0.0,0.0,0.0,0.0,0.0,0.0,0.0,0.0,-1.4993,-1.4828,-1.4675,-1.4411,-1.4898,-1.5047,-1.4779,-1.5497,-1.577,-1.5551,-1.558,-1.5195,-1.4533,-1.469,-1.428,-1.3431,-1.3494,-1.3041,-1.2359,-1.2433,-1.1711,-1.0493,-1.0285,-0.9642,-0.8842,-0.8682,-0.8352,-0.796,-0.7899,-0.7899,-0.7914,-0.7959,-0.8514,-0.9368,-1.0663,-1.0932,-1.1903,-1.4483,-1.4857,-1.5845,-1.8373,-2.0333,-2.1994,-2.3266,-2.541,-2.4909,-2.0707,-1.8849,-1.8017,-1.8298,-1.0997,-0.8992,-1.3451,-0.7959,-0.4711,-0.4024,-0.4014,-0.4334,-0.4952,-0.4303,-0.4409,-0.531,-0.931,-1.1227,-1.1683,-1.5557,-2.0136,-2.4696,-2.3704,-2.519,-2.7711,0.0,-2.8117,-3.2144,-3.188,0.0,0.0,-2.695,-2.4433,0.0,0.0,0.0,0.0,0.0,0.0,0.0,0.0,0.0,0.0,-0.6505,0.0,0.0,0.0,-0.3761,-0.407,-0.4095,-0.4437,0.0,0.0,0.0,0.0,0.0,0.0,0.0,0.0,0.0,0.0,0.0,0.0,0.0,0.0,0.0,0.0,0.0,0.0,0.0,-1.5051,-1.4538,-1.4501,-1.5139,-1.5123,-1.5366,-1.5935,-1.5854,-1.5827,-1.5871,-1.5827,-1.5359,-1.4596,-1.4596,-1.42,-1.3488,-1.3488,-1.3475,-1.3462,-1.3462,-1.3017,-1.2221,-1.1325,-1.048,-0.9747,-0.9537,-0.9256,-0.892,-0.7899,-0.7899,-0.7899,-0.7899,-0.8079,-0.8829,-1.0529,-1.1918,-1.3725,-1.6383,-1.7116,-1.8388,-2.1051,-2.1934,-2.3125,-2.5002,-2.591,-2.4802,-2.1197,-1.9588,-1.817,-1.6848,-1.17,-1.0009,-1.2418,-0.8829,-0.6367,-0.5265,-0.4861,-0.4982,-0.5566,-0.4506,-0.484,-0.6477,-0.9986,-1.321,-1.6133,-1.8141,-2.0904,-2.3847,0.0,-2.3568,-2.586,0.0,0.0,-2.981,-3.0853,-3.0864,0.0,-2.8645,-2.6165,-2.3719,-2.3703,-2.1423,-1.8924,-1.9533,-1.8858,0.0,0.0,0.0,-1.6234,-1.0473,0.0,0.0,0.0,0.0,0.0,0.0,0.0,0.0,0.0,0.0,0.0,0.0,0.0,0.0,0.0,0.0,0.0,0.0,0.0,0.0,0.0,0.0,0.0,0.0,0.0,0.0,0.0,-1.4268,-1.4577,-1.4489,-1.5098,-1.5349,-1.5139,-1.5574,-1.5741,-1.5639,-1.5841,-1.5653,-1.5134,-1.5226,-1.4984,-1.4501,-1.4501,-1.4342,-1.4084,-1.4084,-1.3383,-1.2225,-1.1575,-1.0766,-0.9866,-0.9157,-0.8627,-0.8267,-0.7944,-0.7899,-0.7899,-0.7899,-0.8304,-0.9097,-1.0574,-1.2523,-1.4752,-1.7354,-1.8298,-1.972,-2.2424,-2.3086,-2.4056,-2.5712,-2.6364,-2.5181,-2.1561,-2.0786,-1.9717,-1.7972,-1.4543,-1.351,-1.5276,-1.1602,-0.8993,-0.7644,-0.6322,-0.5871,-0.622,-0.4925,-0.5154,-0.6739,-0.8809,-1.2708,-1.7843,-1.8917,-2.176,-2.5389,0.0,-2.3503,0.0,0.0,-2.7334,-2.7564,0.0,-3.051,-3.0311,-2.9741,-2.7898,-2.5995,-2.6953,-2.4185,-2.0921,-2.2561,-2.1372,-1.9217,-1.82,-1.9249,0.0,-1.3835,-1.3366,0.0,-0.7185,0.0,-0.5784,0.0,0.0,0.0,0.0,0.0,0.0,0.0,0.0,0.0,0.0,-0.2713,0.0,0.0,0.0,0.0,0.0,0.0,0.0,0.0,0.0,0.0,0.0,0.0,-1.4637,-1.4329,-1.4892,-1.5123,-1.4917,-1.5388,-1.5566,-1.5433,-1.5639,-1.5536,-1.5134,-1.5196,-1.5015,-1.4627,-1.4456,-1.4264,-1.4052,-1.3888,-1.3349,-1.2556,-1.1916,-1.13,-1.0637,-0.9538,-0.8818,-0.8378,-0.8034,-0.7929,-0.7944,-0.7944,-0.9008,-1.0084,-1.0783,-1.2515,-1.4767,-1.7518,-1.8463,-1.9884,-2.2622,-2.4029,-2.5016,-2.5644,-2.7116,-2.6272,-2.2184,-2.2612,0.0,0.0,-1.9271,-1.9046,-2.168,-1.5889,-1.2209,-1.0902,-0.8214,-0.6912,-0.6882,-0.5521,-0.5295,-0.5989,-0.5991,-0.9919,-1.6622,-1.7945,-2.2738,-2.9139,-2.6343,-2.5189,-2.5239,-2.5416,-2.535,-2.5578,-2.8878,-3.0234,-3.0377,-3.0133,-2.9495,-2.879,-2.8571,-2.7402,-2.617,-2.6494,-2.5838,-2.4428,-2.1692,-2.0866,-1.9967,-1.6452,0.0,0.0,0.0,0.0,-0.9298,0.0,0.0,0.0,0.0,0.0,0.0,0.0,0.0,0.0,0.0,0.0,0.0,0.0,0.0,0.0,0.0,0.0,0.0,0.0,0.0,0.0,0.0,0.0,-1.4718,-1.4718,-1.4593,-1.476,-1.5268,-1.5313,-1.5297,-1.5326,-1.5297,-1.5056,-1.4669,-1.461,-1.4406,-1.4052,-1.3542,-1.3399,-1.348,-1.3037,-1.3072,-1.3272,-1.2311,-1.2037,-1.2013,-1.0597,-0.9766,-0.9231,-0.8034,-0.8289,-0.8649,-0.8649,-0.8935,-0.9863,0.0,0.0,0.0,-2.0004,-2.0827,-2.2293,-2.5976,-2.6617,-2.6886,-2.7051,-2.748,0.0,0.0,0.0,0.0,-2.4567,-2.1126,-2.0198,-2.2383,-1.6593,-1.3121,-1.2284,-0.8663,-0.6912,-0.6882,-0.5521,-0.5267,-0.5925,-0.597,-0.9558,-1.5635,-1.6828,-2.0799,-2.6182,-2.5486,-2.4121,0.0,0.0,-2.5568,-2.4708,-2.8514,-2.9705,-2.947,-2.9364,-2.9207,-2.8939,-2.837,-2.7929,-2.7395,-2.6433,-2.5948,-2.5471,-2.4223,-2.3891,-2.3122,-2.0031,-1.8796,-1.7448,0.0,0.0,0.0,0.0,0.0,0.0,0.0,0.0,0.0,0.0,0.0,0.0,0.0,0.0,0.0,0.0,0.0,0.0,0.0,0.0,0.0,0.0,0.0,0.0,0.0,0.0,0.0,-1.4697,-1.4815,-1.4946,-1.5088,-1.5269,-1.5455,-1.5677,-1.5224,-1.527,-1.5745,-1.4727,-1.4537,-1.5013,-1.4251,-1.3894,-1.3927,-1.3868,-1.3523,-1.299,-1.2684,-1.2203,-1.1565,-1.0507,-0.987,-0.9551,-0.8424,-0.9323,-1.0163,-1.0163,-1.0897,0.0,-1.346,-1.3685,0.0,-2.0183,-2.1335,0.0,-2.5525,-2.692,-2.7625,-2.7625,-2.7625,0.0,-2.4852,0.0,0.0,-2.4747,-2.3714,-2.3655,-2.4837,-2.0393,0.0,-1.4947,-1.1266,-0.8588,-0.6882,-0.5521,-0.5126,-0.5516,-0.5853,-0.8789,-1.3783,-1.8089,-2.1288,-2.3595,-2.5203,0.0,0.0,-2.6329,-2.6824,-2.6782,-2.8995,-2.9499,-2.9075,-2.9075,-2.9075,-2.9012,-2.8663,-2.8347,-2.7936,-2.7146,-2.6483,-2.5914,-2.5535,-2.5243,-2.4586,-2.2949,-2.2133,-2.0833,-1.7456,-1.6515,-1.5987,0.0,0.0,0.0,0.0,0.0,0.0,0.0,0.0,0.0,0.0,0.0,0.0,0.0,0.0,0.0,0.0,0.0,0.0,0.0,0.0,0.0,0.0,0.0,0.0,-1.4242,-1.3857,-1.4042,-1.486,-1.4209,-1.4359,-1.5298,-1.4675,-1.4789,-1.5533,-1.4917,-1.4809,-1.5081,-1.4552,-1.4075,-1.3699,-1.3666,-1.3424,-1.3071,-1.3131,-1.2653,-1.1941,-1.1557,-1.0827,-1.0001,-0.904,-1.0537,-1.1775,-1.1685,-1.3481,0.0,0.0,-1.5426,0.0,-1.9675,0.0,-2.2667,-2.3864,-2.6138,-2.7625,-2.7625,0.0,-2.6587,-2.4268,-2.6288,-2.6542,-2.4223,-2.6333,-2.7625,-2.7625,-2.4881,-2.1505,-1.7563,-1.4247,-1.0574,-0.6613,-0.5446,-0.488,-0.4883,-0.5657,-0.8221,-1.2432,-1.9984,-2.267,-2.2065,-2.5368,-2.6977,-2.7342,-2.7534,-2.8496,-2.9722,-2.9722,-2.947,-2.9075,-2.9075,-2.9075,-2.9075,-2.9075,-2.8711,-2.8205,-2.8126,-2.7162,-2.6119,-2.604,-2.5503,-2.5005,-2.5005,-2.4726,-2.3652,-2.0702,-1.9698,-1.8869,-1.7022,-1.5848,-1.5711,0.0,0.0,0.0,0.0,0.0,0.0,0.0,0.0,0.0,0.0,0.0,0.0,0.0,0.0,0.0,0.0,0.0,0.0,0.0,0.0,0.0,-1.3524,-1.2745,0.0,-1.433,0.0,-1.3216,-1.4615,-1.4169,-1.4306,-1.5008,-1.5064,-1.4974,-1.4734,-1.45,-1.3954,-1.3179,-1.3107,-1.3187,-1.3395,-1.3493,-1.3197,-1.2698,-1.2954,-1.2105,-1.0754,-0.9728,-1.0847,-1.1625,-1.1066,-1.354,-1.6353,-1.8493,-1.8822,-1.963,-2.1859,-2.3774,-2.5211,-2.5974,-2.6961,-2.7625,-2.7625,-2.7625,0.0,0.0,0.0,0.0,-2.6901,-2.737,-2.7625,-2.7625,-2.4388,-2.0801,0.0,-1.3465,-0.9555,-0.5237,-0.5006,-0.4608,-0.4144,-0.5435,-0.9477,-1.5545,-1.8638,0.0,-2.4055,-2.6002,-2.6835,-2.7032,-2.8316,-2.8992,-2.9213,-2.9213,-2.9167,-2.9075,-2.9075,-2.9075,-2.9075,-2.9075,-2.8996,-2.8837,-2.8252,-2.7525,-2.6767,-2.6167,-2.5503,-2.5005,-2.5005,-2.5045,-2.4847,-2.3708,-2.3214,-2.2742,-2.1814,-2.1153,-2.006,-1.7763,0.0,0.0,0.0,0.0,0.0,0.0,0.0,0.0,0.0,0.0,0.0,0.0,0.0,0.0,0.0,0.0,0.0,0.0,0.0,0.0,0.0,-1.3754,0.0,0.0,0.0,0.0,-1.4219,-1.4944,-1.5715,-1.6456,-1.4848,-1.4495,-1.5027,-1.3811,-1.3271,-1.3203,-1.3541,-1.3674,-1.3673,-1.3337,-1.3103,-1.3006,-1.2773,-1.2594,-1.2361,-1.185,-1.2418,-1.3166,-1.4188,-1.6278,0.0,0.0,-2.2892,-2.3759,-2.3699,-2.4507,-2.536,-2.6019,-2.6976,-2.7724,-2.8068,-2.7784,-2.7625,-2.7625,-2.7625,-2.7625,-2.7625,-2.7625,-2.7625,-2.7625,-2.5986,-2.2524,-1.7219,0.0,-1.0921,-0.5406,-0.4704,-0.4211,-0.4025,-0.712,-1.0743,0.0,0.0,0.0,-2.4101,-2.6694,-2.7811,-2.7964,-2.8451,-2.8842,-2.9075,-2.8936,-2.8982,-2.9075,-2.9075,-2.9075,-2.9075,-2.9075,-2.9075,-2.9012,-2.8726,-2.8142,-2.7403,-2.6608,-2.5999,-2.552,-2.5005,-2.4966,-2.4982,-2.4726,-2.423,-2.3694,-2.3084,-2.2694,-2.1393,-1.7855,-1.3984,0.0,0.0,0.0,0.0,0.0,0.0,0.0,0.0,0.0,0.0,0.0,0.0,0.0,0.0,0.0,0.0,0.0,0.0,0.0,0.0,0.0,0.0,0.0,0.0,0.0,-1.5045,-1.5171,-1.5849,-1.6916,-1.6053,-1.5682,-1.5749,-1.5081,-1.4529,-1.4155,-1.4553,-1.4448,-1.4013,-1.3761,-1.3641,-1.3582,-1.3543,-1.3475,-1.3288,-1.4217,-1.4412,-1.5188,-1.7682,-1.9346,-2.1156,-2.3655,-2.6288,-2.7335,-2.5495,-2.551,-2.5824,-2.6213,-2.729,-2.8218,-2.8771,-2.8308,-2.7934,-2.7799,-2.7784,-2.7775,-2.7625,-2.7625,-2.7625,-2.7625,-2.7575,-2.4612,0.0,0.0,-1.2784,-0.6708,-0.4943,-0.4578,0.0,0.0,0.0,0.0,0.0,-2.3847,-2.4787,-2.7565,-2.8779,-2.8967,-2.8525,-2.8605,-2.9029,-2.8795,-2.8795,-2.8951,-2.8951,-2.9045,-2.9075,-2.9075,-2.9075,-2.9075,-2.9075,-2.8632,-2.7892,-2.7024,-2.6477,-2.5907,-2.5004,-2.4806,-2.4822,-2.4886,-2.4385,-2.3681,-2.3128,-2.268,-2.1334,-1.7763,-1.5435,0.0,0.0,0.0,0.0,0.0,0.0,0.0,0.0,0.0,0.0,0.0,0.0,0.0,0.0,0.0,0.0,0.0,0.0,0.0,0.0,0.0,-1.3599,-1.4689,0.0,-1.4917,0.0,-1.5894,-1.6421,-1.7509,-1.7543,-1.7237,-1.676,-1.6672,-1.6208,-1.5487,-1.5508,-1.5088,-1.4457,-1.4266,-1.4087,-1.4027,-1.4242,-1.4178,-1.3883,-1.6084,-1.6443,-1.707,-1.9151,-2.1111,0.0,-2.5121,-2.7679,-2.8891,-2.7485,-2.8353,-2.8906,-2.8382,-2.8966,-2.9415,-2.949,-2.943,-2.9131,-2.8547,-2.8502,-2.8233,-2.7655,-2.7625,-2.7625,-2.7625,-2.7488,-2.5399,0.0,0.0,-1.4068,-0.9456,-0.6284,-0.6782,0.0,0.0,0.0,0.0,-2.3072,-2.5268,-2.8233,-2.8685,-2.9013,-2.9213,-2.8873,-2.8811,-2.8873,-2.8653,-2.8541,-2.846,-2.846,-2.8763,-2.9075,-2.9075,-2.9075,-2.9075,-2.9075,-2.8632,-2.7952,-2.7229,-2.6493,-2.5743,-2.4995,-2.4782,-2.4782,-2.467,-2.4328,-2.3852,-2.3157,-2.2221,-2.0547,-1.7423,-1.7757,-1.6954,0.0,0.0,0.0,0.0,0.0,0.0,0.0,0.0,0.0,0.0,0.0,0.0,0.0,0.0,0.0,0.0,0.0,0.0,-1.1184,0.0,-1.2345,-1.0756,-1.593,0.0,-1.6203,-1.803,-1.894,-1.9083,-1.8526,-1.827,-1.8172,-1.7649,-1.7267,-1.6967,-1.5753,-1.5337,-1.5359,-1.4417,-1.3988,-1.4003,-1.4046,-1.4118,-1.4157,0.0,0.0,0.0,0.0,0.0,0.0,0.0,-2.8891,-2.9669,-2.9924,-3.0058,-3.0193,-3.0342,-2.9894,-2.9729,-3.0103,-2.9804,-2.9475,-2.9205,-2.919,-2.8891,-2.8218,-2.8188,-2.7993,-2.7625,-2.7524,-2.5792,0.0,0.0,0.0,0.0,-0.9261,0.0,0.0,0.0,-1.9873,-2.3416,-2.5487,-2.7272,-2.8668,-2.8732,-2.8889,-2.8967,-2.8684,-2.8684,-2.8811,-2.8589,-2.8541,-2.8652,-2.8652,-2.8716,-2.8889,-2.8889,-2.8982,-2.9137,-2.9213,-2.8962,-2.8523,-2.7621,-2.6989,-2.6325,-2.5341,-2.4916,-2.4726,-2.4806,-2.4369,-2.3867,-2.3709,-2.2815,-2.1592,-1.9983,-1.8694,-1.7718,0.0,0.0,0.0,0.0,0.0,0.0,0.0,0.0,0.0,0.0,0.0,0.0,0.0,0.0,0.0,0.0,0.0,0.0,-1.0643,0.0,-1.5026,-1.2755,-1.6738,-1.8358,-1.7599,-1.8763,-1.9383,-1.946,-1.9467,-1.9111,-1.8473,-1.829,-1.78,-1.7108,-1.7471,-1.7326,-1.6692,-1.6444,-1.588,-1.524,-1.5216,-1.4849,-1.4326,-2.2443,0.0,-2.1814,0.0,-2.4567,-2.5061,-2.8727,-2.9295,-2.9699,-3.0806,-3.0687,-3.0776,-3.1465,-3.0717,-3.0328,-3.0776,-3.0402,-3.0073,-2.9864,-2.9849,-2.9564,-2.8921,-2.8712,0.0,-2.7874,-2.773,-2.6486,-2.4162,-2.0333,0.0,0.0,-1.3217,0.0,0.0,-2.1054,-2.3102,-2.4866,-2.7349,-2.8444,-2.8525,-2.8653,-2.87,-2.8826,-2.8493,-2.8541,-2.8668,-2.8444,-2.8444,-2.8541,-2.8541,-2.8589,-2.8605,-2.87,-2.8889,-2.9121,-2.9167,-2.9075,-2.8779,-2.7967,-2.7404,-2.6795,-2.5706,-2.5033,-2.4756,-2.4813,-2.4302,-2.3739,-2.3752,-2.295,-2.2156,-2.1888,-1.9995,-1.8739,-1.9651,0.0,0.0,0.0,-1.8123,0.0,0.0,-1.4678,-1.3345,0.0,0.0,0.0,0.0,0.0,0.0,0.0,0.0,0.0,0.0,0.0,0.0,0.0,-1.7556,-1.9089,-1.9231,-1.9535,-1.99,-2.0385,-2.0515,-2.0009,-1.9108,-1.9233,-1.8747,-1.7994,-1.882,-1.8634,-1.7837,-1.7726,-1.7135,-1.6373,-1.6349,-1.5854,-1.5146,-2.4208,-2.4029,-2.4388,-2.7115,-2.6976,-2.7021,-2.8397,-2.8607,-2.8846,-2.952,-3.0133,-3.0776,-3.1465,-3.1467,-3.1452,-3.1467,-3.1452,-3.1225,-3.0537,-3.0492,-3.0223,0.0,0.0,-2.8607,-2.8592,-2.7919,-2.7595,-2.7565,0.0,0.0,-2.15,-1.8175,-1.85,-2.187,-2.2571,-2.4759,-2.7959,-2.8284,-2.8411,-2.8396,-2.8541,-2.87,-2.8858,-2.8541,-2.8462,-2.8479,-2.8268,-2.8103,-2.802,-2.802,-2.8217,-2.846,-2.87,-2.892,-2.9075,-2.8967,-2.8826,-2.8639,-2.8194,-2.7673,-2.6934,-2.5932,-2.5361,-2.4933,-2.457,-2.4051,-2.3508,-2.3069,-2.2282,-2.1746,-2.2278,-2.2049,-2.0771,-1.7827,0.0,0.0,0.0,0.0,0.0,-1.4664,-1.0743,-0.9833,-1.3971,0.0,0.0,0.0,0.0,0.0,0.0,0.0,0.0,-1.4274,-1.5163,0.0,-1.5599,-1.8656,-2.0446,-2.0966,-2.0733,-2.1126,-2.217,-2.1636,-2.1104,-2.0547,-2.0597,-2.0497,-2.0307,-1.9308,-1.8834,-1.8585,-1.7506,-1.7107,-1.7095,-1.7095,-1.7095,-1.6963,-2.7305,-2.7171,-2.7126,-2.75,-2.7395,-2.756,-2.8472,-2.8607,-2.8831,-2.949,-2.9759,-3.0118,-3.0761,-3.1255,-3.1482,0.0,-3.1482,-3.1377,0.0,-3.121,-3.0911,-3.0238,-3.0013,-2.9699,-2.928,-2.8607,-2.8263,-2.8263,0.0,0.0,0.0,-2.1276,-2.263,-2.5953,-2.6133,-2.6955,-2.8137,-2.8235,-2.8299,-2.8396,-2.8621,-2.8605,-2.8573,-2.8605,-2.851,-2.8429,-2.8348,-2.8299,-2.825,-2.825,-2.8396,-2.8541,-2.8556,-2.8716,-2.892,-2.8716,-2.8779,-2.8842,-2.8294,-2.7798,-2.7165,-2.6167,-2.5496,-2.4961,-2.4611,-2.4135,-2.358,-2.2725,-2.236,-2.2156,-2.203,-2.1902,-2.1489,-2.0509,-2.0631,0.0,0.0,0.0,-1.7029,-1.5592,-1.3646,-1.3053,0.0,-1.6254,0.0,0.0,0.0,0.0,0.0,0.0,0.0,0.0,-1.5896,0.0,-1.5566,-1.8346,-1.9914,-2.0207,-2.0459,-2.0759,-2.1104,-2.056,-2.0207,-2.0055,-2.0055,-2.0258,-2.0497,-2.0065,-2.0038,-2.0211,-1.9683,-1.8995,-1.8339,-1.824,-1.7712,-1.7083,-2.9056,-2.916,-2.9101,-2.8442,-2.8517,-2.8742,-2.8936,-2.8966,-2.9026,-2.919,-2.943,-2.9729,-3.0118,-3.0746,0.0,-3.1452,-3.1482,-3.1482,-3.1482,-3.1482,-3.1345,-3.0911,-3.0642,-3.0313,-2.9939,0.0,0.0,-2.8607,-2.5854,-2.4552,-2.4552,-2.4612,-2.5755,-2.779,-2.789,-2.7989,-2.8137,-2.8235,-2.8299,-2.8348,-2.8525,-2.8525,-2.8396,-2.8525,-2.8525,-2.8411,-2.8411,-2.8411,-2.8411,-2.8411,-2.846,-2.8493,-2.8348,-2.8525,-2.8732,-2.8542,-2.859,-2.87,-2.8381,-2.7898,-2.7361,-2.6641,-2.5895,-2.5134,-2.4307,-2.3952,-2.3537,-2.2694,-2.2466,-2.2388,-2.2077,-2.1902,-2.1793,-2.1793,-2.1458,-2.0864,-2.0062,0.0,-1.73,0.0,0.0,0.0,0.0,-1.5563,0.0,0.0,0.0,0.0,0.0,0.0,0.0,-1.4105,-1.7364,0.0,-1.6958,-1.8672,-1.9708,-2.0105,-2.0709,-2.0777,-2.0424,-2.0207,-2.0003,-1.9811,-1.9972,-2.0142,-2.0321,-2.0386,-2.045,-2.0547,-2.0359,-1.9838,-1.9246,-1.9145,-1.8683,-1.8077,-2.9654,-3.0103,0.0,0.0,-3.0088,0.0,-2.9729,-2.9639,-2.943,-2.8816,-2.922,-2.9594,-2.9639,-3.0163,-3.0776,-3.1422,0.0,0.0,0.0,-3.1482,-3.1482,-3.1482,-3.0911,-3.0567,-3.0567,-2.9968,-2.9295,-2.8607,-2.7964,-2.767,-2.7625,-2.774,-2.779,-2.779,-2.8088,-2.8088,-2.8005,-2.8266,-2.8299,-2.8235,-2.8348,-2.8411,-2.8411,-2.8411,-2.8411,-2.8411,-2.8411,-2.8411,-2.8411,-2.8411,-2.8411,-2.8396,-2.8235,-2.8381,-2.8589,-2.8396,-2.8299,-2.8235,-2.8348,-2.8039,-2.756,-2.7298,-2.6456,-2.5318,-2.3911,-2.3568,-2.3436,-2.3082,-2.2706,-2.2417,-2.2417,-2.2091,-2.1841,-2.1793,-2.1766,-2.109,-1.9253,0.0,-1.7255,0.0,0.0,0.0,0.0,-1.4912,-1.5522,0.0,0.0,0.0,0.0,0.0,-1.3746,-1.8831,-1.9263,-1.9393,-1.947,-1.947,-1.9899,-2.0727,-2.1336,-2.1218,-2.0365,-2.063,-2.0475,-2.0001,-2.0332,-2.0285,-1.995,-2.027,-2.017,-1.985,-1.9798,-1.9798,-1.9811,-1.9849,-1.9836,-1.9811,0.0,0.0,-3.0313,-2.9684,-3.0088,-3.0447,-3.0313,-3.0283,-3.0238,-3.0073,-2.9789,-2.9759,-3.0238,-3.0417,-3.0776,-3.1422,-3.1482,-3.1482,-3.1482,-3.1482,-3.1482,-3.1482,-3.1375,-3.1228,-3.1228,-3.0627,-2.9729,-2.8607,-2.8442,-2.8083,-2.7625,-2.7625,-2.7675,-2.779,-2.789,-2.7989,-2.8152,-2.8235,-2.8299,-2.8348,-2.8411,-2.8411,-2.8411,-2.8411,-2.8411,-2.8411,-2.8411,-2.8411,-2.8411,-2.8411,-2.8411,-2.8411,-2.8348,-2.8396,-2.8396,-2.8152,-2.8348,-2.8604,-2.8217,-2.8152,-2.8033,-2.7361,-2.6031,-2.4972,-2.5349,-2.4239,-2.3304,-2.406,-2.345,-2.2723,-2.2463,-2.2324,-2.2137,-2.1712,-2.1233,-2.069,-2.0106,-1.9112,0.0,0.0,-1.6497,-1.6316,-1.6925,-1.6846,-1.6513,0.0,0.0,0.0,0.0,-1.4654,-1.5389,-1.8891,-1.904,-1.9499,-2.0373,-2.0373,-2.0907,-2.2009,-2.2102,-2.2074,-2.1882,-2.2088,-2.2062,-2.177,-2.1564,-2.1459,-2.1353,-2.0553,-2.0284,-2.0359,-2.0067,-1.9926,-1.9989,-2.0484,-2.037,-1.9989,-3.1435,-3.1659,-3.1674,-3.1031,-3.145,-3.1764,-3.1465,-3.142,-3.142,-3.142,-3.1135,-3.1046,-3.139,-3.115,-3.124,-3.1928,-3.1704,-3.1482,-3.1482,-3.1482,-3.1482,-3.1482,-3.1482,-3.1482,-3.1482,-3.1165,-3.0342,-2.9056,-2.8742,-2.8248,-2.7625,-2.7675,-2.774,-2.789,-2.794,-2.8088,-2.8186,-2.8284,-2.8299,-2.8299,-2.8396,-2.8411,-2.8411,-2.8411,-2.8411,-2.8411,-2.8411,-2.8411,-2.8411,-2.8411,-2.8411,-2.8411,-2.8411,-2.8411,-2.8363,-2.8217,-2.8348,-2.8444,-2.8118,-2.8118,-2.8048,-2.7313,-2.6347,-2.5618,-2.5616,-2.4786,-2.4095,-2.4526,-2.39,-2.3273,-2.3212,-2.2706,-2.232,-2.2305,-2.1287,-2.0482,-2.039,-1.897,0.0,-1.8637,-1.7894,-1.7882,-1.9195,-1.8859,-1.8302,-1.7715,0.0,0.0,-1.7824,-1.7593,-1.7957,-1.9095,-1.9143,-1.9545,-2.0397,-2.0563,-2.1058,-2.2058,-2.2095,-2.2273,-2.2561,-2.2546,-2.2445,-2.2286,-2.2432,-2.227,-2.1772,-2.1559,-2.1233,-2.0894,-2.0308,-2.0067,-2.0067,-2.0122,-1.9942,-1.9808,-3.2377,-3.2961,-3.32,-3.2736,-3.32,-3.3455,-3.2901,-3.2811,-3.2811,-3.2811,-3.2721,-3.2662,-3.2662,-3.2153,-3.2018,-3.2482,-3.2003,-3.1586,-3.1482,-3.1482,-3.1482,-3.1482,-3.1482,-3.1482,-3.1482,-3.1482,-3.0941,-2.9729,-2.9071,-2.8449,-2.7775,-2.7786,-2.7855,-2.7955,-2.8088,-2.8186,-2.8186,-2.8348,-2.8348,-2.8235,-2.8348,-2.8411,-2.8411,-2.8411,-2.8411,-2.8411,-2.8411,-2.8411,-2.8411,-2.8411,-2.8411,-2.8411,-2.8411,-2.8411,-2.8348,-2.8348,-2.8284,-2.8137,-2.8054,-2.802,-2.7868,-2.7306,-2.6935,-2.6516,-2.5686,-2.5339,-2.5125,-2.4858,-2.4413,-2.4043,-2.4163,-2.33,-2.2572,-2.2547,-2.1307,-2.0241,-1.9917,0.0,-1.829,-1.9707,-1.9029,-1.9246,-2.1446,-2.068,-2.032,-2.0851,-2.0329,0.0,0.0,-2.0937,-2.0552,-1.9797,-1.9713,-2.0029,-2.0613,-2.094,-2.1382,-2.1987,-2.1933,-2.2242,-2.2904,-2.2721,-2.2617,-2.2442,-2.3137,-2.2921,-2.2145,-2.2563,-2.2282,-2.1553,-2.0814,-2.0526,-2.0527,-2.006,-1.9927,-2.0005,-3.2318,-3.2602,-3.2811,-3.326,-3.3888,-3.4292,-3.4188,-3.4173,-3.4173,-3.4173,-3.3694,-3.3335,-3.3335,-3.3245,-3.3006,-3.2557,-3.2422,-3.2123,-3.1511,-3.1482,-3.1482,-3.1482,-3.1482,-3.1482,-3.1482,-3.1482,-3.115,-3.0357,-2.9853,-2.9207,-2.8427,-2.8011,-2.779,-2.784,-2.7955,-2.8103,-2.8186,-2.8348,-2.8411,-2.8348,-2.8411,-2.8411,-2.8411,-2.8411,-2.8411,-2.8411,-2.8411,-2.8411,-2.8411,-2.8411,-2.8411,-2.8411,-2.8411,-2.8299,-2.8235,-2.8235,-2.8152,-2.8054,-2.8137,-2.8103,-2.7989,-2.7883,-2.7055,-2.648,-2.722,-2.5903,-2.4768,-2.5687,-2.5423,-2.4996,-2.4713,-2.4534,-2.3313,-1.9935,-1.9847,-1.956,-1.7623,0.0,-2.0279,-2.1613,-2.1915,-2.2036,-2.2259,-2.1843,-2.1706,-2.2066,-2.1619,-2.1564,-2.2133,-2.1708,-2.1619,-2.1823,-2.168,-2.2082,-2.3152,-2.3436,-2.3664,-2.3858,-2.317,-2.2993,-2.3234,-2.3767,-2.3975,-2.3957,-2.3675,-2.3722,-2.3898,-2.2537,-2.22,-2.2462,-2.2242,-2.2156,-2.2227,-2.2911,-2.283,-2.2405,-3.2064,-3.2378,-3.2617,-3.2916,-3.3514,-3.3948,-3.3948,-3.4247,-3.4607,-3.4981,-3.4771,-3.4577,-3.4577,-3.4247,-3.3903,-3.3589,-3.2916,-3.2377,-3.2078,-3.1676,-3.1482,-3.1482,-3.1482,-3.1482,-3.1482,-3.1482,-3.1195,-3.0507,-3.0278,-2.9868,-2.9207,-2.8634,-2.842,-2.8556,-2.8256,-2.8201,-2.8299,-2.8348,-2.8411,-2.8411,-2.8411,-2.8411,-2.8411,-2.8411,-2.8348,-2.8299,-2.8299,-2.825,-2.8152,-2.8152,-2.8152,-2.8152,-2.8152,-2.8152,-2.8103,-2.8103,-2.8054,-2.8005,-2.8054,-2.7775,-2.7509,-2.779,-2.7184,-2.6616,-2.7078,-2.6462,-2.5792,-2.6015,-2.5684,-2.535,-2.5223,-2.4753,-2.3582,-2.1332,-2.0973,0.0,0.0,-2.0241,-2.1244,-2.2468,-2.275,-2.2911,-2.3163,-2.2762,-2.2664,-2.3141,-2.2613,-2.2588,-2.3293,-2.308,-2.3197,-2.3756,-2.2994,-2.2853,-2.3341,-2.3495,-2.3754,-2.4176,-2.3813,-2.3813,-2.4221,-2.4523,-2.4646,-2.4545,-2.464,-2.4406,-2.3848,-2.3343,-2.2831,-2.2351,-2.1832,-2.1629,-2.1648,-2.1619,-2.143,-2.1313,-3.1748,-3.2137,-3.2437,-3.2586,-3.3229,-3.3664,-3.3453,-3.4125,-3.4846,-3.5091,-3.52,-3.526,-3.5344,-3.4827,-3.4472,-3.4394,-3.3483,-3.2901,-3.2751,-3.2123,-3.1631,-3.1482,-3.1482,-3.1482,-3.1482,-3.1482,-3.127,-3.0746,-3.0582,-3.0363,-2.9976,-2.9214,-2.894,-2.9063,-2.8476,-2.8235,-2.8348,-2.8411,-2.8411,-2.8411,-2.8348,-2.8348,-2.8411,-2.8348,-2.8299,-2.8186,-2.8186,-2.8088,-2.802,-2.802,-2.802,-2.802,-2.802,-2.7955,-2.7955,-2.7955,-2.7905,-2.7905,-2.7955,-2.7509,-2.7122,-2.7509,-2.7152,-2.6669,-2.6549,-2.6481,-2.6361,-2.6133,-2.5883,-2.575,-2.5901,-2.5222,-2.4151,-2.2624,0.0,0.0,0.0,-2.1803,-2.243,-2.3447,-2.346,-2.3581,-2.4065,-2.3648,-2.3564,-2.404,-2.3642,-2.3647,-2.4279,-2.4305,-2.4478,-2.5005,-2.4047,-2.3564,-2.3564,-2.3446,-2.3636,-2.4118,-2.3943,-2.4118,-2.458,-2.4708,-2.4747,-2.4668,-2.5149,-2.4833,-2.3929,-2.417,-2.3677,-2.2774,-2.2075,-2.1709,-2.1575,-2.1153,-2.0794,-2.0676,-3.1456,-3.188,-3.2239,-3.2845,-3.3761,-3.4125,-3.3173,-3.4386,-3.5091,-3.4253,-3.4356,-3.4658,-3.4927,-3.4669,-3.433,-3.3982,-3.4178,-3.4068,-3.3469,-3.2811,-3.2168,-3.1497,-3.1482,-3.1482,-3.1482,-3.1482,-3.1452,-3.1465,-3.0949,-3.0603,-3.0402,-2.9426,-2.8955,-2.8807,-2.8393,-2.8186,-2.8235,-2.8348,-2.8411,-2.8411,-2.8235,-2.8299,-2.8411,-2.8235,-2.8186,-2.8186,-2.8186,-2.8088,-2.802,-2.802,-2.802,-2.802,-2.802,-2.7905,-2.779,-2.779,-2.774,-2.7675,-2.779,-2.7675,-2.7458,-2.7071,-2.6811,-2.6616,-2.6133,-2.5563,-2.5384,-2.6122,-2.6304,-2.6419,-2.673,-2.6828,-2.555,-2.1541,0.0,0.0,-2.0745,-2.2621,-2.4501,-2.5135,-2.5094,-2.4968,-2.4768,-2.4543,-2.4543,-2.4878,-2.4738,-2.4724,-2.4935,-2.4835,-2.4835,-2.5005,-2.4892,-2.4935,-2.5048,-2.435,-2.4118,-2.4292,-2.3505,-2.3267,-2.3433,-2.393,-2.4221,-2.4315,-2.4394,-2.4859,-2.5436,-2.4451,-2.445,-2.5057,-2.4721,-2.4229,-2.381,-2.4721,-2.4103,-2.2962,-3.0838,-3.1052,-3.1306,-3.1615,-3.2372,-3.2983,-3.3161,-3.3606,-3.3976,-3.4011,-3.3735,-3.3621,-3.3682,-3.3821,-3.3734,-3.3391,-3.3285,-3.308,-3.2568,-3.2139,-3.1794,-3.1482,-3.1482,-3.1482,-3.1482,-3.1482,-3.1482,-3.1482,-3.1399,-3.1392,-3.1403,-3.0607,-3.0076,-2.9739,-2.9118,-2.8633,-2.8348,-2.8396,-2.8411,-2.8411,-2.8348,-2.8299,-2.8284,-2.8235,-2.8137,-2.8054,-2.7989,-2.794,-2.7855,-2.779,-2.7524,-2.7269,-2.7625,-2.7473,-2.7203,-2.7575,-2.7357,-2.7049,-2.71,-2.7137,-2.7122,-2.6953,-2.6573,-2.6254,-2.6094,-2.5783,-2.5522,-2.5618,-2.5986,-2.6254,-2.604,-2.6094,-2.5331,-2.2749,0.0,-2.3676,-2.2442,-2.3798,-2.5075,-2.548,-2.5494,-2.5189,-2.4523,-2.4536,-2.4607,-2.4721,-2.4778,-2.4835,-2.5005,-2.4948,-2.4948,-2.5005,-2.5005,-2.5005,-2.5061,-2.4778,-2.465,-2.4708,-2.4408,-2.4279,-2.4337,-2.4593,-2.4708,-2.4751,-2.4817,-2.4806,-2.4696,-2.4336,-2.4107,-2.396,-2.3877,-2.3675,-2.3418,-2.3709,-2.3433,-2.3015,-3.0592,-3.0592,-3.0702,-3.0642,-3.1569,-3.2399,-3.2727,-3.3018,-3.3382,-3.3789,-3.3084,-3.2687,-3.2972,-3.2978,-3.2939,-3.2694,-3.27,-3.2555,-3.2357,-3.202,-3.1691,-3.1482,-3.1482,-3.1482,-3.1482,-3.1482,-3.1539,-3.1597,-3.1727,-3.1841,-3.1981,-3.1313,-3.086,-3.0547,-2.9644,-2.8985,-2.8655,-2.8488,-2.8411,-2.8411,-2.8348,-2.8299,-2.8235,-2.8235,-2.8137,-2.8054,-2.7905,-2.784,-2.779,-2.7675,-2.7255,-2.6826,-2.7306,-2.7137,-2.693,-2.7575,-2.7423,-2.6982,-2.6826,-2.6864,-2.6901,-2.6678,-2.6347,-2.604,-2.5892,-2.5728,-2.5563,-2.5342,-2.5728,-2.6,-2.5783,-2.5837,-2.5502,-2.42,-2.4449,-2.4637,-2.4092,-2.4859,-2.5439,-2.5481,-2.5618,-2.5412,-2.4637,-2.4821,-2.4948,-2.4721,-2.4778,-2.4892,-2.4892,-2.5118,-2.5286,-2.5286,-2.5425,-2.5522,-2.5522,-2.516,-2.5005,-2.5005,-2.5005,-2.5005,-2.5005,-2.5005,-2.5005,-2.5005,-2.5118,-2.483,-2.4408,-2.4504,-2.4229,-2.3768,-2.3768,-2.3592,-2.3446,-2.3492,-2.3182,-2.2882,-3.0849,-3.0711,-3.0522,-3.0326,-3.1813,-3.2643,-3.1751,-3.2791,-3.3623,-3.3507,-3.2387,-3.1942,-3.2754,-3.2329,-3.2006,-3.1976,-3.2582,-3.3007,-3.3007,-3.2675,-3.2213,-3.1497,-3.1482,-3.1482,-3.1482,-3.1482,-3.1597,-3.1799,-3.1799,-3.1841,-3.1981,-3.1313,-3.101,-3.0934,-2.9739,-2.9195,-2.9149,-2.8639,-2.8411,-2.8411,-2.8235,-2.8299,-2.8396,-2.8235,-2.8186,-2.8186,-2.8054,-2.7905,-2.779,-2.779,-2.7408,-2.6901,-2.7071,-2.7071,-2.7225,-2.779,-2.7905,-2.7625,-2.7071,-2.7004,-2.6901,-2.6187,-2.6147,-2.6122,-2.5508,-2.5287,-2.5287,-2.5508,-2.5591,-2.5809,-2.639,-2.6587,-2.6414,-2.5563,-2.5906,-2.6014,-2.5287,-2.5645,-2.5809,-2.5287,-2.5591,-2.5729,-2.523,-2.5619,-2.5619,-2.5061,-2.5005,-2.4892,-2.462,-2.5453,-2.5893,-2.5893,-2.6443,-2.6692,-2.6678,-2.5577,-2.5005,-2.5005,-2.5005,-2.5005,-2.5005,-2.5005,-2.5005,-2.5005,-2.5005,-2.5005,-2.5005,-2.5005,-2.5005,-2.5005,-2.5005,-2.465,-2.4189,-2.4778,-2.4092,-2.2882,-3.1147,-3.0897,-3.0735,-3.0337,-3.0765,-3.1235,-3.1573,-3.1372,-3.1349,-3.1746,-3.1085,-3.0649,-3.0911,-3.1137,-3.1097,-3.0716,-3.1256,-3.1603,-3.1603,-3.1486,-3.1263,-3.0836,-3.127,-3.1467,-3.1351,-3.1467,-3.1539,-3.1597,-3.1727,-3.1841,-3.1841,-3.1645,-3.1354,-3.0964,-3.0137,-2.9535,-2.9149,-2.8639,-2.8411,-2.8411,-2.8348,-2.8299,-2.8235,-2.8235,-2.8186,-2.8186,-2.8054,-2.7775,-2.7479,-2.784,-2.7306,-2.6496,-2.6549,-2.6549,-2.6549,-2.6774,-2.6496,-2.6162,-2.639,-2.6269,-2.6,-2.5659,-2.555,-2.5342,-2.4794,-2.4681,-2.4624,-2.4434,-2.5356,-2.6054,-2.5342,-2.5618,-2.5823,-2.5453,-2.5175,-2.5329,-2.6254,-2.6467,-2.6347,-2.5972,-2.5932,-2.5508,-2.439,-2.4892,-2.5174,-2.4892,-2.5342,-2.58,-2.6117,-2.6623,-2.6844,-2.6789,-2.7198,-2.7181,-2.6678,-2.6361,-2.6014,-2.5619,-2.5619,-2.5397,-2.5005,-2.5005,-2.5005,-2.5005,-2.5005,-2.5005,-2.5005,-2.5005,-2.4948,-2.4892,-2.4948,-2.4835,-2.4607,-2.4892,-2.4708,-2.4337,-3.1795,-3.1397,-3.0988,-3.0649,-3.0701,-3.0953,-3.142,-3.0912,-3.0711,-3.1403,-3.0529,-3.0012,-3.0205,-3.0485,-3.0447,-2.9927,-3.0341,-3.0628,-3.0628,-3.0747,-3.0808,-3.0641,-3.0687,-3.0819,-3.1006,-3.0964,-3.1155,-3.1597,-3.1727,-3.1841,-3.194,-3.1883,-3.1728,-3.1469,-3.0784,-3.0166,-2.9546,-2.9039,-2.8642,-2.8411,-2.8411,-2.8348,-2.8299,-2.8299,-2.8299,-2.8235,-2.8152,-2.7745,-2.7348,-2.7645,-2.7188,-2.6443,-2.619,-2.6297,-2.6428,-2.6428,-2.604,-2.5659,-2.5837,-2.5563,-2.5175,-2.4865,-2.5287,-2.5605,-2.4908,-2.4738,-2.4637,-2.4099,-2.4978,-2.5577,-2.4794,-2.5119,-2.5398,-2.5007,-2.4681,-2.4781,-2.5823,-2.5863,-2.5877,-2.6,-2.6,-2.5728,-2.4935,-2.5384,-2.566,-2.5481,-2.5687,-2.6075,-2.6635,-2.7357,-2.7627,-2.7326,-2.8001,-2.8033,-2.7378,-2.7378,-2.6967,-2.6244,-2.6244,-2.592,-2.5342,-2.5342,-2.523,-2.5005,-2.5005,-2.5005,-2.5005,-2.5005,-2.4948,-2.4892,-2.4948,-2.4948,-2.4892,-2.4948,-2.5005,-2.4948,-3.2628,-3.2062,-3.1372,-3.1068,-3.132,-3.1445,-3.1252,-3.1123,-3.1225,-3.174,-3.0496,-2.9827,-3.0375,-3.0205,-2.9988,-2.9602,-2.9865,-3.005,-3.0111,-3.0401,-3.0613,-3.0689,-2.9915,-2.9811,-3.0451,-3.0184,-3.0624,-3.1727,-3.1727,-3.1883,-3.2079,-3.1981,-3.2038,-3.2104,-3.1433,-3.0861,-3.0234,-2.9669,-2.9058,-2.8488,-2.8427,-2.8411,-2.8411,-2.8411,-2.8411,-2.8396,-2.8235,-2.7795,-2.7246,-2.7195,-2.6938,-2.6534,-2.6042,-2.619,-2.652,-2.652,-2.624,-2.5809,-2.5329,-2.5007,-2.4637,-2.4099,-2.5287,-2.6308,-2.5453,-2.5175,-2.4894,-2.4176,-2.4421,-2.4778,-2.4523,-2.4951,-2.5175,-2.4509,-2.4408,-2.4452,-2.4624,-2.4624,-2.4908,-2.5605,-2.5948,-2.615,-2.6176,-2.6539,-2.6659,-2.6525,-2.6147,-2.6054,-2.6476,-2.7809,-2.8218,-2.7518,-2.8819,-2.915,-2.8411,-2.8473,-2.7871,-2.6678,-2.673,-2.6496,-2.5893,-2.5948,-2.566,-2.5061,-2.5061,-2.5061,-2.5005,-2.5005,-2.5005,-2.5005,-2.5005,-2.4948,-2.4948,-2.4948,-2.4948,-2.4892,-3.2,-3.2185,-3.2262,-3.1415,-3.1582,-3.1553,-3.0672,-3.0711,-3.0708,-3.0338,-2.9882,-2.9659,-2.9785,-3.0012,-2.9988,-2.9602,-2.9665,-2.9913,-3.0462,-3.028,-3.0125,-2.9856,-2.9218,-2.9287,-3.0157,-2.9884,-3.0192,-3.1161,-3.1161,-3.1204,-3.1263,-3.1524,-3.1582,-3.148,-3.1172,-3.1013,-3.0892,-2.9869,-2.9335,-2.915,-2.8611,-2.8411,-2.8411,-2.8411,-2.8411,-2.8411,-2.8348,-2.7695,-2.6782,-2.6336,-2.615,-2.6042,-2.5948,-2.566,-2.537,-2.537,-2.5314,-2.5258,-2.5356,-2.5287,-2.5175,-2.4768,-2.4966,-2.5078,-2.4176,-2.4176,-2.4118,-2.3484,-2.4163,-2.4794,-2.4292,-2.4681,-2.5189,-2.5495,-2.5147,-2.5063,-2.5673,-2.5728,-2.5673,-2.5467,-2.5906,-2.6014,-2.5508,-2.5825,-2.6272,-2.6712,-2.6645,-2.6633,-2.6707,-2.79,-2.83,-2.7594,-2.9282,-2.9627,-2.8411,-2.8935,-2.8324,-2.673,-2.7144,-2.6849,-2.5893,-2.6336,-2.6229,-2.5729,-2.5729,-2.5453,-2.5005,-2.5005,-2.4948,-2.4835,-2.4948,-2.4765,-2.4465,-2.458,-2.4465,-2.4247,-3.2205,-3.2484,-3.2563,-3.1551,-3.1678,-3.1754,-3.1209,-3.1268,-3.124,-3.0758,-3.0411,-3.0115,-3.0052,-2.991,-2.9803,-2.9602,-2.9602,-2.9727,-3.0097,-2.9974,-2.9832,-2.9865,-2.9129,-2.9059,-2.9856,-2.9434,-2.9856,-3.1219,-3.1087,-3.1146,-3.1409,-3.1409,-3.1524,-3.1724,-3.1434,-3.1268,-3.1136,-3.0591,-2.9945,-2.9281,-2.8978,-2.8704,-2.8348,-2.8073,-2.7959,-2.7959,-2.7695,-2.721,-2.664,-2.6096,-2.6096,-2.6176,-2.5481,-2.5203,-2.509,-2.4708,-2.4593,-2.4593,-2.458,-2.4509,-2.4452,-2.4137,-2.4021,-2.4034,-2.4002,-2.3956,-2.378,-2.3603,-2.4118,-2.4394,-2.3721,-2.4394,-2.5021,-2.5034,-2.5021,-2.5245,-2.592,-2.5974,-2.6028,-2.6082,-2.6365,-2.6365,-2.5974,-2.6218,-2.65,-2.6989,-2.6974,-2.7053,-2.7186,-2.8091,-2.8278,-2.7638,-2.8973,-2.9225,-2.8217,-2.8652,-2.8308,-2.7093,-2.7645,-2.7479,-2.6654,-2.6692,-2.639,-2.5893,-2.5619,-2.5286,-2.5005,-2.4821,-2.4821,-2.4892,-2.4821,-2.458,-2.4408,-2.4452,-2.435,-2.4015,-3.2403,-3.2723,-3.2687,-3.157,-3.187,-3.216,-3.2011,-3.2068,-3.2046,-3.1721,-3.1268,-3.0771,-3.053,-2.9968,-2.9602,-2.9665,-2.9602,-2.9602,-2.9665,-2.9602,-2.9741,-2.9988,-2.9195,-2.9032,-2.9666,-2.8993,-2.9489,-3.1187,-3.0925,-3.1102,-3.1612,-3.1292,-3.1379,-3.1766,-3.1667,-3.1423,-3.1101,-3.1267,-3.0525,-2.9331,-2.922,-2.8793,-2.8176,-2.761,-2.7414,-2.7363,-2.699,-2.6678,-2.6414,-2.5865,-2.596,-2.6133,-2.4951,-2.4908,-2.5119,-2.4408,-2.4118,-2.4015,-2.3675,-2.3675,-2.3675,-2.3258,-2.3258,-2.3484,-2.4279,-2.4073,-2.3734,-2.4015,-2.4131,-2.3943,-2.3543,-2.4221,-2.4738,-2.435,-2.4681,-2.5189,-2.566,-2.5839,-2.6111,-2.6621,-2.6727,-2.6779,-2.6779,-2.6779,-2.6884,-2.713,-2.713,-2.7167,-2.7306,-2.798,-2.8077,-2.7423,-2.8408,-2.8606,-2.7955,-2.8308,-2.8195,-2.758,-2.8137,-2.8073,-2.7515,-2.7159,-2.6654,-2.5988,-2.5495,-2.516,-2.5005,-2.4694,-2.4708,-2.4878,-2.4637,-2.4452,-2.435,-2.4292,-2.4118,-2.3826,-3.1341,-3.2407,-3.3072,-3.1652,-3.2514,-3.305,-3.2074,-3.2321,-3.2425,-3.1778,-3.1533,-3.1148,-3.0586,-2.9968,-2.9741,-2.9988,-2.9803,-2.9741,-2.9988,-2.9741,-2.9602,-2.9665,-2.9242,-2.9351,-3.0029,-2.8897,-2.8814,-2.9871,-3.0081,-3.0401,-3.0762,-3.0702,-3.0464,-3.0076,-3.0748,-3.0999,-3.0763,-3.097,-3.0554,-2.9725,-2.8708,-2.7992,-2.7608,-2.7299,-2.7144,-2.7174,-2.7312,-2.6611,-2.5508,-2.4908,-2.4738,-2.4781,-2.4878,-2.4821,-2.4624,-2.4452,-2.4292,-2.4015,-2.3675,-2.3956,-2.4234,-2.3675,-2.3734,-2.406,-2.4408,-2.4234,-2.4073,-2.4073,-2.4131,-2.4234,-2.4667,-2.4452,-2.435,-2.4794,-2.4951,-2.5007,-2.5133,-2.5591,-2.5948,-2.6002,-2.65,-2.6779,-2.6779,-2.6779,-2.6832,-2.6832,-2.6832,-2.6659,-2.6165,-2.6928,-2.7099,-2.651,-2.7876,-2.8336,-2.7675,-2.85,-2.8601,-2.7955,-2.825,-2.8073,-2.7515,-2.7959,-2.7595,-2.6587,-2.652,-2.5892,-2.5005,-2.4948,-2.4765,-2.458,-2.4523,-2.4176,-2.3675,-2.3378,-2.3245,-2.3185,-3.1254,-3.239,-3.3073,-3.1446,-3.2368,-3.3129,-3.2318,-3.2776,-3.3095,-3.2812,-3.2419,-3.2027,-3.1612,-3.0712,-3.0045,-2.9831,-2.9665,-2.9665,-2.9803,-2.9665,-2.9602,-2.9602,-2.9459,-2.9458,-2.9568,-2.9072,-2.8993,-2.9317,-2.95,-2.9748,-3.0016,-3.0393,-3.0478,-3.03,-3.0763,-3.0955,-3.0896,-3.1366,-3.0836,-2.9652,-2.9237,-2.8504,-2.7499,-2.6637,-2.6521,-2.6849,-2.6621,-2.624,-2.5755,-2.4993,-2.4711,-2.4654,-2.4305,-2.4452,-2.4597,-2.393,-2.4092,-2.4381,-2.3543,-2.3662,-2.3897,-2.3437,-2.3424,-2.3649,-2.4176,-2.4176,-2.4176,-2.4509,-2.435,-2.4292,-2.4908,-2.4794,-2.4794,-2.5425,-2.5481,-2.5591,-2.5988,-2.6218,-2.6394,-2.6394,-2.6621,-2.6779,-2.6779,-2.6779,-2.6779,-2.6779,-2.6779,-2.6674,-2.6394,-2.6922,-2.7063,-2.6788,-2.7757,-2.8142,-2.7855,-2.8228,-2.8393,-2.8201,-2.8201,-2.8103,-2.8024,-2.776,-2.7393,-2.6901,-2.6297,-2.5729,-2.5257,-2.4878,-2.4637,-2.4509,-2.435,-2.4015,-2.3569,-2.3198,-2.3078,-2.3078]},{"header":{"parameterUnit":"m.s-1","parameterCategory":1,"la1":30.6,"la2":28.766,"lo1":-90.7593,"lo2":-88.6598,"dx":0.0162,"dy":0.0183,"nx":116,"ny":114,"refTime":"2022-12-08T06:00:00:Z","depth":0,"parameterNumber":3,"parameterNumberName":"V-component_of_WINDS"},"data":[0.0,0.0,0.0,0.0,0.0,0.0,0.0,0.0,0.0,0.0,0.0,0.0,0.0,0.0,0.0,0.0,0.0,0.0,0.0,0.0,0.0,0.0,0.0,0.0,0.0,0.0,0.0,0.0,0.0,0.0,0.0,0.0,0.0,0.0,0.0,0.0,0.0,0.0,0.0,0.0,0.0,0.0,0.0,0.0,0.0,0.0,0.0,0.0,0.0,0.0,0.0,0.0,0.0,0.0,0.0,0.0,0.0,0.0,0.0,0.0,0.0,0.0,0.0,0.0,0.0,0.0,0.0,0.0,0.0,0.0,0.0,0.0,0.0,0.0,0.0,0.0,0.0,0.0,0.0,0.0,0.0,0.0,0.0,0.0,0.0,0.0,0.0,0.0,0.0,0.0,0.0,0.0,0.0,0.0,0.0,0.0,0.0,0.0,0.0,0.0,0.0,0.0,0.0,0.0,0.0,0.0,0.0,0.0,0.0,0.0,0.0,0.0,0.0,0.0,0.0,0.0,0.0,0.0,0.0,0.0,0.0,0.0,0.0,0.0,0.0,0.0,0.0,0.0,0.0,0.0,0.0,0.0,0.0,0.0,0.0,0.0,0.0,0.0,0.0,0.0,0.0,0.0,0.0,0.0,0.0,0.0,0.0,0.0,0.0,0.0,0.0,0.0,0.0,0.0,0.0,0.0,0.0,0.0,0.0,0.0,0.0,0.0,0.0,0.0,0.0,0.0,0.0,0.0,0.0,0.0,0.0,0.0,0.0,0.0,0.0,0.0,0.0,0.0,0.0,0.0,0.0,0.0,0.0,0.0,0.0,0.0,0.0,0.0,0.0,0.0,0.0,0.0,0.0,0.0,0.0,0.0,0.0,0.0,0.0,0.0,0.0,0.0,0.0,0.0,0.0,0.0,0.0,0.0,0.0,0.0,0.0,0.0,0.0,0.0,0.0,0.0,0.0,0.0,0.0,0.0,0.0,0.0,0.0,0.0,0.0,0.0,0.0,0.0,0.0,0.0,0.0,0.0,0.0,0.0,0.0,0.0,0.0,0.0,0.0,0.0,0.0,0.0,0.0,0.0,0.0,0.0,0.0,0.0,0.0,0.0,0.0,0.0,0.0,0.0,0.0,0.0,0.0,0.0,0.0,0.0,0.0,0.0,0.0,0.0,0.0,0.0,0.0,0.0,0.0,0.0,0.0,0.0,0.0,0.0,0.0,0.0,0.0,0.0,0.0,0.0,0.0,0.0,0.0,0.0,0.0,0.0,0.0,0.0,0.0,0.0,0.0,0.0,0.0,0.0,0.0,0.0,0.0,0.0,0.0,0.0,0.0,0.0,0.0,0.0,0.0,0.0,0.0,0.0,0.0,0.0,0.0,0.0,0.0,0.0,0.0,0.0,0.0,0.0,0.0,0.0,0.0,0.0,0.0,0.0,0.0,0.0,0.0,0.0,0.0,0.0,0.0,0.0,0.0,0.0,0.0,0.0,0.0,0.0,0.0,0.0,0.0,0.0,0.0,0.0,0.0,0.0,0.0,0.0,0.0,0.0,0.0,0.0,0.0,0.0,0.0,0.0,0.0,0.0,0.0,0.0,0.0,0.0,0.0,0.0,0.0,0.0,0.0,0.0,0.0,0.0,0.0,0.0,0.0,0.0,0.0,0.0,0.0,0.0,0.0,0.0,0.0,0.0,0.0,0.0,0.0,0.0,0.0,0.0,0.0,0.0,0.0,0.0,0.0,0.0,0.0,0.0,0.0,0.0,0.0,0.0,0.0,0.0,0.0,0.0,0.0,0.0,0.0,0.0,0.0,0.0,0.0,0.0,0.0,0.0,0.0,0.0,0.0,0.0,0.0,0.0,0.0,0.0,0.0,0.0,0.0,0.0,0.0,0.0,0.0,0.0,0.0,0.0,0.0,0.0,0.0,0.0,0.0,0.0,0.0,0.0,0.0,0.0,0.0,0.0,0.0,0.0,0.0,0.0,0.0,0.0,0.0,0.0,0.0,0.0,0.0,0.0,0.0,0.0,0.0,0.0,0.0,0.0,0.0,0.0,0.0,0.0,0.0,0.0,0.0,0.0,0.0,0.0,0.0,0.0,0.0,0.0,0.0,0.0,0.0,0.0,0.0,0.0,0.0,0.0,0.0,0.0,0.0,0.0,0.0,0.0,0.0,0.0,0.0,0.0,0.0,0.0,0.0,0.0,0.0,0.0,0.0,0.0,0.0,0.0,0.0,0.0,0.0,0.0,0.0,0.0,0.0,0.0,0.0,0.0,0.0,0.0,0.0,0.0,0.0,0.0,0.0,0.0,0.0,0.0,0.0,0.0,0.0,0.0,0.0,0.0,0.0,0.0,0.0,0.0,0.0,0.0,0.0,0.0,0.0,0.0,0.0,0.0,0.0,0.0,0.0,0.0,0.0,0.0,0.0,0.0,0.0,0.0,0.0,0.0,0.0,0.0,0.0,0.0,0.0,0.0,0.0,0.0,0.0,0.0,0.0,0.0,0.0,0.0,0.0,0.0,0.0,0.0,0.0,0.0,0.0,0.0,0.0,0.0,0.0,0.0,0.0,0.0,0.0,0.0,0.0,0.0,0.0,0.0,0.0,0.0,0.0,0.0,0.0,0.0,0.0,0.0,0.0,0.0,0.0,0.0,0.0,0.0,0.0,0.0,0.0,0.0,0.0,0.0,0.0,0.0,0.0,0.0,0.0,0.0,0.0,0.0,0.0,0.0,0.0,0.0,0.0,0.0,0.0,0.0,0.0,0.0,0.0,0.0,0.0,0.0,0.0,0.0,0.0,0.0,0.0,0.0,0.0,0.0,0.0,0.0,0.0,0.0,0.0,0.0,0.0,0.0,0.0,0.0,0.0,0.0,0.0,0.0,0.0,0.0,0.0,0.0,0.0,0.0,0.0,0.0,0.0,0.0,0.0,0.0,0.0,0.0,0.0,0.0,0.0,0.0,0.0,0.0,0.0,0.0,0.0,0.0,0.0,0.0,0.0,0.0,0.0,0.0,0.0,0.0,0.0,0.0,0.0,0.0,0.0,0.0,0.0,0.0,0.0,0.0,0.0,0.0,0.0,0.0,0.0,0.0,0.0,0.0,0.0,0.0,0.0,0.0,0.0,0.0,0.0,0.0,0.0,0.0,0.0,0.0,0.0,0.0,0.0,0.0,0.0,0.0,0.0,0.0,0.0,0.0,0.0,0.0,0.0,0.0,0.0,0.0,0.0,0.0,0.0,0.0,0.0,0.0,0.0,0.0,0.0,0.0,0.0,0.0,0.0,0.0,0.0,0.0,0.0,0.0,0.0,0.0,0.0,0.0,0.0,0.0,0.0,0.0,0.0,0.0,0.0,0.0,0.0,0.0,0.0,0.0,0.0,0.0,0.0,0.0,0.0,0.0,0.0,0.0,0.0,0.0,0.0,0.0,0.0,0.0,0.0,0.0,0.0,0.0,0.0,0.0,0.0,0.0,0.0,0.0,0.0,0.0,0.0,0.0,0.0,0.0,0.0,0.0,0.0,0.0,0.0,0.0,0.0,0.0,0.0,0.0,0.0,0.0,0.0,0.0,0.0,0.0,0.0,0.0,0.0,0.0,0.0,0.0,0.0,0.0,0.0,0.0,0.0,0.0,0.0,0.0,0.0,0.0,0.0,0.0,0.0,0.0,0.0,0.0,0.0,0.0,0.0,0.0,0.0,0.0,0.0,0.0,0.0,0.0,0.0,0.0,0.0,0.0,0.0,0.0,0.0,0.0,0.0,0.0,0.0,0.0,0.0,0.0,0.0,0.0,0.0,0.0,0.0,0.0,0.0,0.0,0.0,0.0,0.0,0.0,0.0,0.0,0.0,0.0,0.0,0.0,0.0,0.0,0.0,0.0,0.0,0.0,0.0,0.0,0.0,0.0,0.0,0.0,0.0,0.0,0.0,0.0,0.0,0.0,0.0,0.0,0.0,0.0,0.0,0.0,0.0,0.0,0.0,0.0,0.0,0.0,0.0,0.0,0.0,0.0,0.0,0.0,0.0,0.0,0.0,0.0,0.0,0.0,0.0,0.0,0.0,0.0,0.0,0.0,0.0,0.0,0.0,0.0,0.0,0.0,0.0,0.0,0.0,0.0,0.0,0.0,0.0,0.0,0.0,0.0,0.0,0.0,0.0,0.0,0.0,0.0,0.0,0.0,0.0,0.0,0.0,0.0,0.0,0.0,0.0,0.0,0.0,0.0,0.0,0.0,0.0,0.0,0.0,0.0,0.0,0.0,0.0,0.0,0.0,0.0,0.0,0.0,0.0,0.0,0.0,0.0,0.0,0.0,0.0,0.0,0.0,0.0,0.0,0.0,0.0,0.0,0.0,0.0,0.0,0.0,0.0,0.0,0.0,0.0,0.0,0.0,0.0,0.0,0.0,0.0,0.0,0.0,0.0,0.0,0.0,0.0,0.0,0.0,0.0,0.0,0.0,0.0,0.0,0.0,0.0,0.0,0.0,0.0,0.0,0.0,0.0,0.0,0.0,0.0,0.0,0.0,0.0,0.0,0.0,0.0,0.0,0.0,0.0,0.0,0.0,0.0,0.0,0.0,0.0,0.0,0.0,0.0,0.0,0.0,0.0,0.0,0.0,0.0,0.0,0.0,0.0,0.0,0.0,0.0,0.0,0.0,0.0,0.0,0.0,0.0,0.0,0.0,0.0,0.0,0.0,0.0,0.0,0.0,0.0,0.0,0.0,0.0,0.0,0.0,0.0,0.0,0.0,0.0,0.0,0.0,0.0,0.0,0.0,0.0,0.0,0.0,0.0,0.0,0.0,0.0,0.0,0.0,0.0,0.0,0.0,0.0,0.0,0.0,0.0,0.0,0.0,0.0,0.0,0.0,0.0,0.0,0.0,0.0,0.0,0.0,0.0,0.0,0.0,0.0,0.0,0.0,0.0,0.0,0.0,0.0,0.0,0.0,0.0,0.0,0.0,0.0,0.0,0.0,0.0,0.0,0.0,0.0,0.0,0.0,0.0,0.0,0.0,0.0,0.0,0.0,0.0,0.0,0.0,0.0,0.0,0.0,0.0,0.0,0.0,0.0,0.0,0.0,0.0,0.0,0.0,0.0,0.0,0.0,0.0,0.0,0.0,0.0,0.0,0.0,0.0,0.0,0.0,0.0,0.0,0.0,0.0,0.0,0.0,0.0,0.0,0.0,0.0,0.0,0.0,0.0,0.0,0.0,0.0,0.0,0.0,0.0,0.0,0.0,0.0,0.0,0.0,0.0,0.0,0.0,0.0,0.0,0.0,0.0,0.0,0.0,0.0,0.0,0.0,0.0,0.0,0.0,0.0,0.0,0.0,0.0,0.0,0.0,0.0,0.0,0.0,0.0,0.0,0.0,0.0,0.0,0.0,0.0,0.0,0.0,0.0,0.0,0.0,0.0,0.0,0.0,0.0,0.0,0.0,0.0,0.0,0.0,0.0,0.0,0.0,0.0,0.0,0.0,0.0,0.0,0.0,0.0,0.0,0.0,0.0,0.0,0.0,0.0,0.0,0.0,0.0,0.0,0.0,0.0,0.0,0.0,0.0,0.0,0.0,0.0,0.0,0.0,0.0,0.0,0.0,0.0,0.0,0.0,0.0,0.0,0.0,0.0,0.0,0.0,0.0,0.0,0.0,0.0,0.0,0.0,0.0,0.0,0.0,0.0,0.0,0.0,0.0,0.0,0.0,0.0,0.0,0.0,0.0,0.0,0.0,0.0,0.0,0.0,0.0,0.0,0.0,0.0,0.0,0.0,0.0,0.0,0.0,0.0,0.0,0.0,0.0,0.0,0.0,0.0,0.0,0.0,0.0,0.0,0.0,0.0,0.0,0.0,0.0,0.0,0.0,0.0,0.0,0.0,0.0,0.0,0.0,0.0,0.0,0.0,0.0,0.0,0.0,0.0,0.0,0.0,0.0,0.0,0.0,0.0,0.0,0.0,0.0,0.0,0.0,0.0,0.0,0.0,0.0,0.0,0.0,0.0,0.0,0.0,0.0,0.0,0.0,0.0,0.0,0.0,0.0,0.0,0.0,0.0,0.0,0.0,0.0,0.0,0.0,0.0,0.0,0.0,0.0,0.0,-0.7699,0.0,0.0,0.0,0.0,0.0,0.0,0.0,0.0,0.0,0.0,0.0,0.0,0.0,0.0,0.0,0.0,0.0,0.0,0.0,0.0,0.0,0.0,0.0,0.0,0.1564,0.1382,0.1073,0.0978,0.0,0.0,0.0,0.0,0.0,0.0,0.0,0.0,0.0,0.12,0.12,0.1494,0.2252,0.3436,0.217,0.1119,0.0287,0.0,0.0,0.0,0.0,0.0,0.0,0.0,0.0,0.0,0.0,0.0,0.0,0.0,0.0,0.0,0.0,0.0,0.0,0.0,0.0,0.0,0.0,0.0,0.0,0.0,0.0,0.0,0.0,0.0,0.0,0.0,0.0,0.0,0.0,0.0,0.0,0.0,0.0,0.0,0.0,0.0,0.0,0.0,0.0,0.0,0.0,0.0,0.0,0.0,0.0,0.0,0.0,0.0,0.0,0.0,0.0,0.0,0.0,0.0,0.0,0.0,0.0,0.0,0.0,0.0,0.0,0.0,0.0,0.0,0.0,0.0,-0.8024,0.0,0.0,0.0,0.0,0.0,0.0,0.0,0.0,0.0,0.0,0.0,0.0,0.0,0.0,0.0,0.0,0.0,0.0,0.0,0.0,0.0,0.1203,0.1677,0.1549,0.144,0.1498,0.0781,0.0238,0.0014,0.0,0.0,0.0,0.0,0.0,0.0205,0.1569,0.2334,0.2422,0.2312,0.2469,0.2874,0.3135,0.2451,0.1002,0.0981,0.0,0.0,0.0,0.0,0.0,0.0,0.0,0.0,0.0,0.0,0.0,0.0,0.0,0.0,0.0,0.0,0.0,0.0,0.0,0.0,0.0,0.0,0.0,0.0,0.0,0.0,0.0,0.0,0.0,0.0,0.0,0.0,0.0,0.0,0.0,0.0,0.0,0.0,0.0,0.0,0.0,0.0,0.0,0.0,0.0,0.0,0.0,0.0,0.0,0.0,0.0,0.0,0.0,0.0,0.0,0.0,0.0,0.0,0.0,0.0,0.0,0.0,0.0,-1.2831,-1.5086,-1.9077,-1.8518,-1.8241,-1.8074,-1.5799,-1.2818,-0.9127,-0.387,0.0,0.0,0.0,0.0,0.0,0.0,0.0,0.0,0.0,0.0,0.0,0.0,0.0,0.0,0.0,0.0,0.0,0.0,0.0,0.1792,0.2546,0.2449,0.2416,0.2663,0.2048,0.118,0.0072,0.0,0.0,0.0,0.0,0.0328,0.1026,0.1261,0.1632,0.2151,0.2577,0.2669,0.2411,0.2904,0.2937,0.2592,0.2482,0.2323,0.2072,0.0,0.0,0.0,0.0,0.0,0.0,0.0,0.0,0.0,0.0,0.0,0.0,0.0,0.0,0.0,0.0,0.0,0.0,0.0,0.0,0.0,0.0,0.0,0.0,0.0,0.0,0.0,0.0,0.0,0.0,0.0,0.0,0.0,0.0,0.0,0.0,0.0,0.0,0.0,0.0,0.0,-0.4192,-0.2154,0.0,0.0,0.0,0.0,0.0,0.0,0.0,0.0,0.0,0.0,0.0,0.0,0.0,-1.3719,-1.6141,-1.4122,-1.3345,-1.379,-1.433,-1.5042,-1.5984,-1.8211,-1.9282,-1.9391,-1.9899,0.0,-1.528,-1.0485,0.0,0.0,0.0,0.0,0.0,0.0,0.0,0.0,0.0,0.0,0.0,0.0,0.0,0.0,0.0,0.0,0.0,0.0,0.0,0.0,0.0,0.2584,0.2746,0.3192,0.2995,0.2344,0.1147,0.0396,0.0,0.0,0.0684,0.1229,0.1592,0.248,0.2951,0.2937,0.3056,0.2938,0.2575,0.286,0.2959,0.2905,0.3077,0.3063,0.2901,0.2047,0.0,0.0,0.0,0.0,0.0,0.0,0.0,0.0,0.0,0.0,0.0,0.0,0.0,0.0,0.0,0.0,0.0,0.0,0.0,0.0,0.0,0.0,0.0,0.0,0.0,0.0,0.0,0.0,0.0,0.0,0.0,0.0,0.0,0.0,0.0,0.0,0.0,0.0,0.0,-0.5266,-0.4015,-0.1951,-0.1759,-0.1528,0.0,0.0,0.0,0.0,0.0,0.0,0.0,0.0,0.0,-1.1419,-1.3616,-1.5366,-1.6434,-1.6128,-1.6276,-1.692,-1.6868,-1.7189,-1.7725,-1.8519,-1.9661,-2.1017,-2.1036,-2.0862,-2.0356,-1.7729,-1.3474,-0.8488,0.0,0.0,0.0,0.0,-1.3518,-1.2636,0.0,0.0,0.0,0.0,0.0,0.0,0.0,0.0,0.0,0.0,0.0,0.0,0.2786,0.2887,0.3169,0.3729,0.3739,0.3465,0.2855,0.1353,0.042,0.0263,0.1164,0.1896,0.2401,0.3492,0.387,0.3429,0.3346,0.3144,0.2888,0.3071,0.316,0.3164,0.3599,0.3643,0.3409,0.3195,0.2293,0.0978,0.0,0.0,0.0,0.0,0.0,0.0,0.0,0.0,0.0,0.0,0.0,0.0,0.0,0.0,0.0,0.0,0.0,0.0,0.0,0.0,0.0,0.0,0.0,0.0,0.0,0.0,0.0,0.0,0.0,0.0,0.0,0.0,0.0,0.0,0.0,0.0,0.0,-0.4389,-0.4184,-0.2288,-0.2391,-0.2763,0.0,0.0,0.0,0.0,0.0,0.0,-0.9593,-1.1419,-1.2833,-1.3704,-1.5984,-1.6849,-1.6176,-1.7386,-1.8381,-1.915,-1.8843,-1.9006,-1.9612,-1.9308,-2.0144,-2.1786,-2.1523,-2.2064,-2.3124,-2.2128,-2.0075,-1.7287,-1.5208,-1.4183,-1.4222,-1.7281,-1.7683,-1.6671,0.0,0.0,0.0,0.0,0.0,0.0,0.0,0.0,0.0,0.0,0.0,0.2932,0.3563,0.3769,0.4014,0.4489,0.4262,0.4422,0.5274,0.3115,0.1549,0.0972,0.1009,0.1911,0.3749,0.3567,0.3311,0.3037,0.3162,0.319,0.319,0.3643,0.3841,0.3876,0.4327,0.4241,0.3767,0.35,0.3536,0.3625,0.172,0.0,0.0,0.0,0.0,0.0,0.0,0.0,0.0,0.0,0.0,0.0,0.0,0.0,0.0,0.0,0.0,0.0,0.0,0.0,0.0,0.0,0.0,0.0,0.0,0.0,0.0,0.0,0.0,0.0,0.0,0.0,0.0,0.0,0.0,0.0,0.0,0.0,0.0,-0.409,-0.3944,0.0,0.0,0.0,0.0,-1.0337,-1.0585,-1.1246,-1.2606,-1.5352,-1.6008,-1.4124,-1.6104,-1.7191,-1.7126,-1.82,-1.8833,-1.9007,-1.9313,-1.9541,-1.9732,-2.0642,-2.1054,-2.1107,-2.2031,-2.2392,-2.2285,-2.1412,-2.2013,-2.3262,-2.1187,-1.932,-1.7924,-1.8892,-1.7918,-1.6251,0.0,0.0,0.0,0.1869,0.1869,0.1851,0.189,0.208,0.2265,0.2381,0.2961,0.3526,0.4019,0.4124,0.4437,0.5122,0.4782,0.4656,0.4904,0.4247,0.3265,0.2026,0.1718,0.2311,0.3884,0.3513,0.3403,0.3574,0.3607,0.3572,0.3394,0.3552,0.37,0.3783,0.398,0.4083,0.4125,0.4116,0.39,0.3521,0.304,0.2209,0.0,0.0,0.0,0.0,0.0,0.0,0.0,0.0,0.0,0.0,0.0,0.0,0.0,0.0,0.0,0.0,0.0,0.0,0.0,0.0,0.0,0.0,0.0,0.0,0.0,0.0,0.0,0.0,0.0,0.0,0.0,0.0,0.0,0.0,0.0,0.0,0.0,-0.6723,-0.6619,0.0,-0.8198,-0.9079,-1.0085,-1.1355,-1.185,-1.251,-1.3502,-1.5659,-1.6625,-1.6055,-1.675,-1.7453,-1.8161,-1.8636,-1.9321,-2.0223,-2.0421,-2.0642,-2.0872,-2.1218,-2.1653,-2.2123,-2.2472,-2.2847,-2.3174,-2.3007,-2.2996,-2.3055,-2.2902,-2.2537,-2.2131,-2.255,-2.2279,-2.1764,0.0,0.0,0.0,0.1809,0.182,0.182,0.1858,0.2174,0.2525,0.2892,0.3458,0.4067,0.4716,0.4675,0.4816,0.5369,0.5147,0.4879,0.4795,0.4647,0.4085,0.3054,0.2599,0.2786,0.3675,0.356,0.3602,0.388,0.3836,0.3781,0.3641,0.3933,0.4045,0.406,0.4417,0.4562,0.4512,0.4657,0.4275,0.356,0.3527,0.314,0.2448,0.0,0.0,0.0,0.0,0.0,0.0,0.0,0.0,0.0,0.0,0.0,0.0,0.0,0.0,0.0,0.0,0.0,0.0,0.0,0.0,0.0,0.0,0.0,0.0,0.0,0.0,0.0,0.0,0.0,0.0,0.0,0.0,0.0,0.0,-0.5861,-0.758,-0.8607,-0.869,-0.9047,-1.0067,-1.0668,-1.1544,-1.2816,-1.3594,-1.4262,-1.4816,-1.613,-1.6949,-1.7158,-1.7335,-1.7838,-1.87,-1.943,-2.0281,-2.1247,-2.1521,-2.174,-2.1912,-2.1912,-2.2165,-2.2676,-2.2697,-2.2948,-2.3355,-2.3537,-2.3246,-2.2767,-2.3708,-2.4192,-2.4375,-2.4498,-2.4615,-2.4753,0.0,0.0,0.1771,0.1712,0.175,0.1792,0.1792,0.2138,0.278,0.386,0.4056,0.4514,0.5566,0.5414,0.5236,0.5285,0.5241,0.5214,0.5174,0.4318,0.3856,0.3955,0.3556,0.3294,0.3305,0.3621,0.3838,0.388,0.3744,0.3744,0.3924,0.4709,0.4947,0.4755,0.5682,0.5641,0.4952,0.5109,0.4785,0.405,0.3179,0.3278,0.3794,0.0,0.0,0.0,0.0,0.0,0.0,0.0,0.0,0.0,0.0,0.0,0.0,0.0,0.0,0.0,0.0,0.0,0.0,0.0,0.0,0.0,0.0,0.0,0.0,0.0,0.0,0.0,0.0,0.0,0.0,0.0,0.0,0.0,-0.5304,-0.7016,-0.8682,-0.9765,-1.0089,-1.1159,-1.3572,-1.2764,-1.2908,-1.4946,-1.5909,-1.649,-1.6696,-1.6965,-1.719,-1.7314,-1.7857,-1.8346,-1.8743,-2.0582,-2.1642,-2.1908,-2.2464,-2.2745,-2.2745,-2.2745,-2.2705,-2.2646,-2.2712,-2.2752,-2.2749,-2.281,-2.2867,-2.2922,-2.3841,-2.4321,-2.4478,-2.4429,-2.4481,-2.466,0.1963,0.1788,0.1662,0.1691,0.1634,0.1598,0.1641,0.2086,0.2736,0.3659,0.4308,0.4877,0.5437,0.5653,0.5615,0.528,0.5323,0.5256,0.4877,0.4225,0.3682,0.3217,0.3403,0.3506,0.3537,0.3621,0.3662,0.3667,0.3663,0.3663,0.3711,0.4276,0.4678,0.4919,0.5343,0.5517,0.5441,0.5078,0.471,0.4343,0.4014,0.3754,0.3526,0.0,0.0,0.0,0.0,0.0,0.0,0.0,0.0,0.0,0.0,0.0,0.0,0.0,0.0,0.0,0.0,0.0,0.0,0.0,0.0,0.0,0.0,0.0,0.0,0.0,0.0,0.0,0.0,0.0,0.0,0.0,-0.5268,-0.6547,-0.7467,-0.9029,-1.051,-1.1635,-1.2449,-1.3155,-1.3735,-1.3616,-1.3963,-1.5018,-1.555,-1.6077,-1.667,-1.7274,-1.7695,-1.7864,-1.8535,-1.9083,-1.9478,-2.0839,-2.169,-2.2064,-2.3031,-2.3506,-2.3506,-2.3506,-2.3508,-2.3547,-2.3725,-2.3745,-2.3648,-2.3916,-2.3952,-2.3841,-2.4155,-2.4284,-2.4302,-2.4429,-2.4626,-2.485,0.204,0.1851,0.1694,0.174,0.1634,0.1545,0.1555,0.2034,0.275,0.3738,0.4288,0.487,0.5554,0.5653,0.5529,0.5236,0.5194,0.4914,0.431,0.3842,0.3452,0.3234,0.3503,0.3637,0.3609,0.3618,0.3581,0.3581,0.3796,0.3884,0.3928,0.4574,0.5048,0.5303,0.5602,0.5733,0.5739,0.536,0.4968,0.4592,0.4491,0.415,0.367,0.3795,0.3859,0.3878,0.3705,0.3282,0.2923,0.3667,0.0,0.0,0.0,0.0,0.0,0.0,0.0,0.0,0.0,0.0,0.0,0.0,0.0,0.0,0.0,0.0,0.0,0.0,0.0,0.0,0.0,0.0,0.0,0.0,-0.6079,-0.7822,-0.9766,-1.0728,-1.1611,-1.2728,-1.3526,-1.3947,-1.3821,-1.4208,-1.4596,-1.4937,-1.5477,-1.6187,-1.6979,-1.7515,-1.8031,-1.854,-1.9269,-1.9796,-2.014,-2.1266,-2.2037,-2.2435,-2.332,-2.375,-2.3795,-2.3795,-2.3876,0.0,-2.4152,-2.419,-2.4172,-2.4411,-2.4428,0.0,0.0,0.0,0.0,0.0,-2.5461,-2.6002,0.2108,0.1935,0.1792,0.1792,0.1683,0.1566,0.1491,0.1979,0.2795,0.3987,0.424,0.4772,0.5971,0.5615,0.528,0.5193,0.4889,0.4446,0.3846,0.3428,0.3362,0.3673,0.3699,0.3667,0.3619,0.3581,0.3581,0.3578,0.4056,0.4272,0.4316,0.5265,0.5696,0.5739,0.619,0.6193,0.5803,0.5814,0.5362,0.4741,0.4695,0.4411,0.4014,0.3935,0.3916,0.3912,0.3575,0.3345,0.319,0.3058,0.0,0.0,0.0,0.0,0.0,0.0,0.0,0.0,0.0,0.0,0.0,0.0,0.0,0.0,0.0,0.0,0.0,0.0,0.0,0.0,0.0,0.0,0.0,0.0,-0.6862,-0.892,-1.1729,-1.1907,-1.2183,-1.3281,-1.3782,-1.3947,-1.3821,-1.442,-1.4828,-1.4794,-1.561,-1.6535,-1.7452,0.0,0.0,0.0,0.0,-2.0521,-2.0722,-2.1731,-2.2459,-2.2873,-2.3312,-2.362,-2.3774,-2.3774,-2.3876,-2.4074,-2.4154,-2.4266,-2.4358,-2.4444,-2.4497,-2.45,-2.45,-2.4555,-2.4739,-2.5611,-2.6601,-2.7527,0.2108,0.1935,0.1792,0.1792,0.1645,0.148,0.1356,0.1755,0.264,0.4228,0.4815,0.5478,0.6473,0.6295,0.5825,0.5188,0.5029,0.4771,0.4374,0.4003,0.3774,0.3694,0.3814,0.3778,0.3622,0.3581,0.3534,0.3442,0.4012,0.4228,0.4176,0.5221,0.5696,0.5739,0.619,0.6252,0.5933,0.5803,0.5426,0.4915,0.4694,0.4408,0.4056,0.3955,0.4056,0.4264,0.393,0.3822,0.3889,0.4215,0.3541,0.2605,0.3059,0.243,0.0,0.0,0.0,0.0,0.0,0.0,0.0,0.0,0.0,0.0,0.0,0.0,0.0,0.0,0.0,0.0,0.0,0.0,0.0,-0.5225,-0.698,-0.8912,-1.1151,-1.1513,-1.207,-1.3403,-1.3927,-1.4072,-1.3821,-1.4222,-1.4574,-1.4763,-1.5715,-1.6638,-1.7455,-1.8575,-1.9465,-2.0078,-2.0758,-2.1207,-2.1406,-2.1845,-2.2248,-2.2565,0.0,0.0,-2.3638,-2.3638,-2.3703,-2.3871,-2.4096,-2.4191,-2.4171,-2.4409,-2.4497,-2.45,-2.45,-2.4923,-2.5604,-2.5925,-2.6707,-2.7586,0.2348,0.2111,0.1875,0.1813,0.1662,0.1502,0.1373,0.1714,0.2354,0.3371,0.4007,0.4551,0.5148,0.5066,0.4792,0.4311,0.4233,0.4237,0.4343,0.4257,0.4212,0.4246,0.4136,0.3968,0.3751,0.3667,0.3534,0.3398,0.4012,0.4316,0.4351,0.5265,0.5782,0.5959,0.6276,0.6282,0.6093,0.6002,0.5676,0.5236,0.4963,0.4616,0.4285,0.4034,0.4021,0.4118,0.3956,0.3891,0.3878,0.4182,0.3506,0.2627,0.3074,0.2434,0.155,0.0,0.0,0.0,0.0,0.0,0.0,0.0,0.0,0.0,0.0,0.0,0.0,0.0,0.0,-0.09,-0.1245,0.0,-0.4566,-0.5852,-0.7445,-0.911,-1.082,-1.1499,-1.2118,-1.2812,-1.3602,-1.3947,-1.3581,-1.4176,-1.4745,-1.5082,-1.5862,-1.6918,-1.8238,-1.9061,-1.9894,-2.076,-2.1147,-2.1356,-2.145,-2.1738,-2.2039,-2.2395,-2.2643,-2.3007,-2.3435,-2.3549,-2.366,-2.381,-2.4056,-2.4153,-2.4153,-2.4266,-2.4561,-2.4949,-2.4949,-2.5299,-2.5881,-2.6563,-2.739,-2.828,0.2596,0.2282,0.1979,0.1855,0.1715,0.1577,0.1464,0.1728,0.212,0.2522,0.3088,0.3526,0.3774,0.3775,0.3632,0.337,0.3431,0.37,0.4189,0.4418,0.4631,0.4744,0.4535,0.4276,0.3968,0.3755,0.3578,0.3439,0.4012,0.4403,0.4657,0.5351,0.5873,0.6227,0.6367,0.6325,0.6142,0.6142,0.5912,0.5458,0.5176,0.486,0.4477,0.4146,0.3956,0.3891,0.3891,0.3802,0.3713,0.3876,0.3403,0.2798,0.2943,0.2358,0.1675,0.2023,0.1776,0.0,0.0,0.0,0.0,0.0,0.0,0.0,0.0,-0.028,-0.056,-0.1756,-0.2196,-0.2518,-0.2969,-0.4196,-0.5453,-0.6462,-0.7785,-0.9155,-1.0505,-1.1382,-1.1987,-1.2079,-1.3238,-1.3894,-1.3642,-1.4403,-1.5101,-1.5578,-1.6222,-1.729,-1.8933,-1.9381,-2.0066,-2.1198,-2.1277,-2.1309,-2.1309,-2.1495,-2.1823,-2.2248,-2.2422,-2.2755,-2.3241,-2.3435,-2.362,-2.3774,-2.3996,-2.4134,-2.4192,-2.4171,-2.465,-2.5427,-2.5446,-2.569,-2.6146,-2.7278,-2.8294,-2.9178,0.2596,0.2324,0.2069,0.1989,0.1816,0.1666,0.1587,0.1722,0.2077,0.2771,0.3269,0.3741,0.4187,0.4026,0.3705,0.3276,0.3601,0.4011,0.4352,0.4856,0.4967,0.4618,0.4709,0.4583,0.4276,0.4012,0.3792,0.3656,0.4096,0.4443,0.4778,0.5389,0.5964,0.6367,0.6416,0.6239,0.6019,0.6019,0.5744,0.5287,0.5094,0.4824,0.4477,0.4184,0.4026,0.3891,0.3891,0.3763,0.365,0.3891,0.3407,0.2701,0.2598,0.2288,0.2031,0.2407,0.2149,0.1876,0.2504,0.0655,-0.1133,0.002,-0.0585,-0.1373,0.0,-0.0939,-0.1107,-0.1549,-0.2011,-0.242,-0.2772,-0.4113,-0.5521,-0.6529,-0.7639,-0.8809,-1.0077,-1.0672,-1.1129,-1.1597,-1.3054,-1.4199,-1.4746,-1.5074,-1.5572,-1.6306,-1.6898,-1.7648,-1.8687,-1.9455,-2.0169,-2.0926,-2.1183,-2.1309,-2.1309,-2.1325,-2.157,-2.2039,-2.2068,-2.2419,-2.3045,-2.3241,-2.3453,-2.3638,-2.3894,-2.4077,-2.421,-2.4247,-2.4764,-2.5503,-2.5616,-2.6117,-2.6916,-2.8072,-2.9095,-3.0004,0.2893,0.2471,0.2089,0.2069,0.1896,0.1708,0.1566,0.1682,0.1889,0.2164,0.2576,0.2867,0.2951,0.2716,0.2522,0.2443,0.3046,0.3616,0.4073,0.4737,0.5024,0.4971,0.4797,0.4618,0.4487,0.4228,0.4052,0.3917,0.4008,0.4228,0.4526,0.4966,0.5404,0.5793,0.619,0.6239,0.6019,0.627,0.6204,0.5772,0.5303,0.5048,0.4842,0.4226,0.3993,0.4026,0.4156,0.4029,0.0,0.4225,0.3806,0.3051,0.2812,0.2536,0.2331,0.2499,0.2273,0.1848,0.1305,0.0268,-0.0668,-0.0621,-0.1057,-0.1516,-0.1705,-0.1708,-0.1991,-0.3078,-0.3695,-0.4177,-0.4529,-0.544,-0.6471,-0.7461,-0.8162,-0.8979,-1.0097,-1.0794,-1.1322,-1.1583,-1.2986,-1.4092,-1.4492,-1.514,-1.5797,-1.6464,-1.7037,-1.7688,-1.8372,-1.9104,-1.9829,-2.0532,-2.0665,-2.0926,-2.1309,-2.1309,-2.1495,-2.1827,-2.1827,-2.2027,-2.2419,-2.2721,-2.3074,-2.3549,-2.3792,-2.3935,-2.3976,-2.4075,-2.4905,-2.6084,-2.6224,-2.7137,-2.8349,-2.8424,-2.879,-2.9384,0.3241,0.2629,0.2121,0.2195,0.2015,0.1792,0.1613,0.1691,0.1738,0.1662,0.1952,0.2088,0.1915,0.1648,0.1577,0.1793,0.2547,0.3227,0.3741,0.451,0.501,0.5106,0.4884,0.4748,0.4661,0.4451,0.4272,0.4089,0.3924,0.3968,0.4316,0.4666,0.5101,0.5529,0.619,0.6367,0.6147,0.652,0.652,0.6222,0.5576,0.5254,0.5042,0.4329,0.3981,0.3879,0.4166,0.4152,0.4066,0.4246,0.3926,0.3384,0.3022,0.277,0.2657,0.2844,0.2736,0.2218,0.0702,0.0168,-0.0224,-0.1085,-0.1464,-0.1809,-0.2424,-0.2551,-0.2866,-0.4167,-0.4934,-0.5511,-0.5872,-0.6427,-0.7141,-0.8019,-0.8535,-0.917,-1.0057,-1.0855,-1.1404,-1.1616,-1.2955,-1.3988,-1.4336,-1.5345,-1.6188,-1.685,-1.7281,-1.7702,-1.8285,-1.8878,-1.9485,-2.0143,-2.0296,-2.0614,-2.1166,-2.1183,-2.1371,-2.1694,-2.1694,-2.1827,-2.2027,-2.2341,-2.284,-2.3399,-2.3602,-2.3728,-2.3843,-2.4192,-2.5228,-2.6554,-2.6942,-2.8025,-2.9314,-2.8782,-2.8789,-2.9179,0.361,0.2832,0.2179,0.2447,0.2213,0.1948,0.1813,0.1746,0.1651,0.1518,0.1679,0.1765,0.1627,0.1375,0.1325,0.1581,0.234,0.2981,0.3397,0.4288,0.4809,0.4792,0.5062,0.5062,0.4801,0.4587,0.4364,0.4089,0.3751,0.384,0.432,0.4792,0.5361,0.6019,0.6496,0.6617,0.6483,0.6477,0.6477,0.6434,0.5853,0.5323,0.4883,0.4599,0.3932,0.3197,0.3735,0.3986,0.4053,0.3749,0.3609,0.35,0.3052,0.2883,0.3023,0.3656,0.3771,0.3272,0.1536,0.0549,-0.025,-0.1309,-0.2023,-0.2603,-0.3134,-0.3429,-0.3686,-0.4113,-0.4941,-0.5679,-0.5959,-0.6543,-0.7184,-0.7725,-0.8479,-0.9173,-0.9719,-1.0458,-1.1136,-1.17,-1.295,-1.4002,-1.4697,-1.5854,-1.6916,-1.7801,-1.7747,-1.7935,-1.8553,-1.8997,-1.9391,-1.9788,-2.0273,-2.0646,-2.0893,-2.0926,-2.1198,-2.1694,-2.1694,-2.1827,-2.2027,-2.2341,-2.2721,-2.3117,-2.3312,-2.3549,-2.388,-2.4874,-2.5803,-2.6691,-2.7672,-2.8606,-2.9386,-2.9307,-2.9551,-2.9969,0.347,0.31,0.2727,0.2586,0.2469,0.229,0.1978,0.1796,0.1681,0.1639,0.1615,0.0,0.0,0.0,0.0,0.0,0.2207,0.2712,0.2986,0.3956,0.4493,0.44,0.4744,0.4845,0.4666,0.4622,0.453,0.4439,0.4184,0.4144,0.4316,0.4539,0.4932,0.5448,0.6007,0.6313,0.6447,0.6907,0.695,0.6735,0.6111,0.5578,0.5176,0.5209,0.4387,0.3346,0.0,0.4057,0.3391,0.354,0.3294,0.2907,0.2754,0.266,0.2707,0.3018,0.3013,0.2611,0.1325,0.0359,-0.0541,-0.1654,-0.2082,-0.2477,-0.3467,-0.363,-0.3765,-0.4285,-0.4381,-0.4379,-0.4518,-0.5128,-0.5813,-0.6498,-0.7867,-0.9102,-0.9782,-1.0463,-1.11,-1.1744,-1.274,-1.3719,-1.4583,-1.5865,-1.6796,-1.7073,-1.7282,-1.7434,-1.7516,-1.812,-1.8712,-1.9236,-1.9702,-2.0139,-2.0646,-2.0646,-2.0811,-2.1166,-2.134,-2.1526,-2.1738,-2.2164,-2.2485,-2.2721,-2.3236,-2.3825,-2.4459,-2.5108,-2.6133,-2.7402,-2.7933,-2.8665,-2.9407,-2.9386,-2.9608,-2.9915,0.3663,0.3363,0.3075,0.3011,0.2775,0.0,0.0,0.0,0.0,0.0,0.0,0.0,0.0,0.0,0.0,0.0,0.0,0.2412,0.267,0.3459,0.3948,0.398,0.4201,0.4224,0.4104,0.4033,0.406,0.4224,0.3988,0.4001,0.4232,0.4451,0.4714,0.5096,0.5776,0.6215,0.6398,0.6992,0.7202,0.7022,0.6235,0.5634,0.5156,0.5016,0.4072,0.0,0.3753,0.342,0.2675,0.3052,0.2968,0.2703,0.2697,0.28,0.2868,0.2543,0.2395,0.2031,0.0791,0.003,-0.0624,-0.1781,-0.2078,-0.2347,-0.3425,-0.3663,-0.3765,-0.4253,-0.3956,-0.3682,-0.3817,-0.4007,-0.4365,-0.5029,-0.6258,-0.7577,-0.8839,-0.9507,-1.0342,-1.1669,-1.2636,-1.358,-1.4526,-1.5758,-1.6534,-1.6778,-1.7031,-1.7186,-1.7352,-1.7868,-1.8394,-1.9043,-1.9303,-1.9752,-2.0357,-2.0357,-2.0545,-2.0893,-2.1183,-2.1388,-2.1511,-2.1882,-2.2153,-2.233,-2.2892,-2.3506,-2.4171,-2.5256,-2.6307,-2.7361,-2.8266,-2.8944,-2.9407,-2.9407,-2.9608,-2.9883,0.4123,0.3638,0.3273,0.0,0.0,0.0,0.0,0.0,0.0,0.0,0.0,0.0,0.0,0.0,0.0,0.0,0.0,0.0,0.2419,0.2849,0.3208,0.3538,0.3449,0.3336,0.3199,0.3014,0.3125,0.3491,0.3318,0.3494,0.4057,0.4392,0.4685,0.4986,0.5831,0.6211,0.6253,0.6719,0.7052,0.7174,0.6142,0.5372,0.4741,0.4102,0.3078,0.2051,0.2424,0.2285,0.1951,0.2275,0.2591,0.2832,0.2814,0.3172,0.3359,0.2271,0.1935,0.1573,0.003,-0.037,-0.0595,-0.1722,-0.1981,-0.2211,-0.3097,-0.3499,-0.3761,-0.3995,-0.3695,-0.3462,-0.369,-0.3225,-0.2968,-0.3499,-0.3981,-0.5066,-0.7235,-0.7896,-0.9107,-1.1671,-1.2691,-1.3614,-1.4592,-1.5456,-1.6194,-1.6866,0.0,-1.7242,-1.7908,-1.8095,-1.8464,-1.9026,-1.9147,-1.9464,-2.003,-2.01,-2.0361,-2.0893,-2.1183,-2.1325,-2.1309,-2.1511,-2.1708,-2.1928,-2.2326,-2.2686,-2.3179,-2.5301,-2.6322,-2.6716,-2.8653,-2.9407,-2.9407,-2.9407,-2.9608,-2.9886,0.0,0.0,0.0,0.0,0.0,0.0,0.0,0.0,0.0,0.0,0.0,0.0,0.0,0.0,0.0,0.0,0.0,0.0,0.1828,0.235,0.272,0.2843,0.3116,0.3286,0.3336,0.3293,0.3341,0.3416,0.3382,0.3423,0.3596,0.3667,0.3912,0.4332,0.4702,0.5079,0.543,0.5787,0.5865,0.5652,0.5159,0.4501,0.3837,0.4282,0.3443,0.2142,0.3182,0.2836,0.1929,0.2117,0.2097,0.1969,0.1778,0.177,0.178,0.1547,0.1042,0.0497,0.0091,-0.0476,-0.109,-0.1569,-0.1845,-0.2178,-0.2834,-0.336,-0.3575,-0.3093,-0.2586,-0.207,-0.1533,-0.2093,-0.2839,-0.3374,-0.5504,-0.7575,-0.9004,-0.9915,-1.1081,-1.2753,-1.3238,-1.3795,-1.4755,-1.505,-1.5355,-1.5856,-1.6337,-1.6808,-1.7157,-1.772,-1.8121,-1.8266,-1.8808,-1.9221,-1.9427,-2.0104,-2.053,-2.0697,-2.1246,-2.1511,-2.1511,-2.1678,-2.1768,-2.184,-2.2141,-2.2681,-2.344,-2.5251,-2.6363,-2.7109,-2.8753,-2.9407,-2.9407,-2.9451,-2.9589,-2.9769,0.0,0.0,0.0,0.0,0.0,0.0,0.0,0.0,0.0,0.0,0.0,0.0,0.0,0.0,0.0,0.0,0.0,0.0,0.0,0.1913,0.2154,0.2282,0.2417,0.2539,0.2608,0.2504,0.2583,0.2865,0.2816,0.2918,0.319,0.3164,0.3286,0.358,0.39,0.4222,0.456,0.4955,0.5033,0.0,0.0,0.3919,0.3419,0.3619,0.2974,0.205,0.2766,0.2645,0.2178,0.2251,0.2169,0.1992,0.1607,0.1522,0.1516,0.1187,0.0691,0.0184,-0.019,-0.0721,-0.1177,-0.1273,-0.154,-0.1828,-0.2063,-0.2494,-0.2708,-0.229,-0.1547,-0.0903,-0.0711,-0.1208,-0.183,-0.2469,-0.4477,-0.6528,-0.8225,-0.9133,-1.0465,-1.2588,-1.3036,-1.3613,-1.4767,-1.471,-1.4763,-1.5104,-1.5855,-1.6423,-1.6693,-1.724,-1.772,-1.8108,-1.8514,-1.8912,-1.9273,-1.9909,-2.0258,-2.0395,-2.1023,-2.134,-2.134,-2.1587,-2.1724,-2.1724,0.0,-2.2849,-2.3585,-2.5402,-2.654,-2.722,-2.8604,-2.9134,-2.9156,-2.9312,-2.9455,-2.9589,0.0,0.0,0.0,0.0,0.0,0.0,0.0,0.0,0.0,0.21,0.1886,0.1695,0.1581,0.153,0.0,0.0,0.0,0.0,0.0,0.0,0.1649,0.1851,0.1692,0.1619,0.1634,0.1418,0.1578,0.2168,0.2047,0.2245,0.2763,0.272,0.2716,0.2784,0.3247,0.3501,0.3639,0.41,0.4329,0.4335,0.3766,0.3393,0.3143,0.0,0.2157,0.1907,0.1951,0.2232,0.2555,0.2504,0.2488,0.237,0.1816,0.1756,0.1736,0.0971,0.0556,0.0188,-0.0569,-0.0948,-0.1078,-0.0947,-0.1211,-0.1416,-0.1113,-0.1401,-0.1638,-0.1447,-0.0628,-0.0046,-0.0469,-0.0485,-0.0717,-0.1574,-0.2744,-0.4391,-0.6798,-0.7573,-0.8931,-1.1873,-1.2515,-1.3223,-1.444,-1.4316,-1.4241,-1.4425,-1.5274,-1.5922,-1.6225,-1.6515,-1.7072,-1.8115,-1.8212,-1.862,-1.9339,-1.9654,-1.9925,-2.0135,-2.0714,-2.1007,-2.1039,-2.1371,-2.1542,-2.1622,-2.2468,0.0,-2.3578,-2.5616,-2.6657,-2.7128,-2.8324,-2.8821,-2.8892,-2.9144,-2.9336,-2.9476,0.0,0.0,0.0,0.0,0.0,0.0,0.0,0.0,0.0,0.0,0.2849,0.1939,0.0,0.0,0.0,0.0,0.0,0.0,0.0,0.0,0.0,0.1639,0.1624,0.1678,0.1841,0.1797,0.183,0.1957,0.1923,0.1962,0.2065,0.207,0.207,0.2084,0.2453,0.2614,0.2673,0.3023,0.3037,0.2786,0.267,0.2433,0.2142,0.203,0.0,0.0,0.2215,0.2572,0.2869,0.2582,0.2385,0.2157,0.1611,0.1141,0.0727,0.0468,-0.0033,-0.0502,-0.0603,-0.0871,-0.1089,-0.0996,-0.1249,-0.1385,-0.0867,-0.1251,-0.1359,-0.0141,0.0022,0.0127,0.0745,0.004,-0.1123,-0.258,-0.4184,-0.6142,-0.8603,-0.9408,-1.0249,-1.1657,-1.2471,-1.2892,-1.2774,-1.3401,-1.3641,-1.3242,-1.403,-1.465,-1.5,-1.5154,-1.5841,-1.7197,-1.817,-1.8822,-1.9139,-1.9909,-2.0308,-2.0342,-2.0679,-2.0942,-2.1166,-2.1119,-2.1214,-2.1466,-2.2167,0.0,-2.3098,-2.5257,-2.6346,-2.6729,-2.8232,-2.8938,-2.9144,-2.9297,-2.9514,-2.9754,0.0,0.0,0.0,0.0,0.0,0.0,0.0,0.4274,0.4595,0.5967,0.4896,0.3772,0.3199,0.2321,0.1744,0.0,0.0,0.0,0.0,0.0,0.0,0.0,0.0,0.0,0.1532,0.1532,0.1532,0.1532,0.0,0.1532,0.1532,0.1532,0.1613,0.1747,0.1915,0.2047,0.2152,0.2309,0.2287,0.2142,0.2142,0.2037,0.1922,0.0,0.0,0.0,0.2795,0.2963,0.3006,0.2981,0.2786,0.2446,0.1773,0.1248,0.0904,0.0844,0.051,0.0073,-0.0182,-0.0465,-0.0702,-0.0735,-0.0926,-0.0851,0.0,-0.017,-0.0234,0.0754,0.0806,0.074,0.0913,0.0163,-0.0879,-0.2072,-0.3909,-0.5812,-0.768,-0.8834,-0.9947,-1.1068,-1.1689,-1.1999,-1.2007,-1.2191,-1.2215,-1.1996,-1.2519,-1.3328,-1.439,-1.5115,-1.5942,-1.6956,-1.7651,-1.8291,-1.8822,-1.9369,-1.9696,-1.9904,-2.0527,-2.086,-2.1023,-2.1649,-2.1775,-2.156,-2.2573,0.0,-2.3756,-2.5295,-2.6422,-2.7236,-2.826,-2.8725,-2.8897,-2.9258,-2.9476,-2.9644,0.0,0.0,0.0,0.0,0.0,0.0,0.0,0.5432,0.5813,0.7633,0.6841,0.5751,0.4907,0.3279,0.2167,0.0,0.0,0.0,0.0,0.0,0.0,0.0,0.0,0.0,0.0,0.0,0.0,0.1199,0.1199,0.0,0.0,0.0,0.0,0.0,0.1636,0.1732,0.1879,0.189,0.19,0.0,0.0,0.2008,0.0,0.0,0.0,0.0,0.0,0.3278,0.3139,0.3346,0.3149,0.2752,0.2181,0.1769,0.1522,0.143,0.1193,0.0844,0.034,-0.0037,-0.0257,-0.0387,-0.0552,-0.0331,0.0776,0.0792,0.0752,0.1307,0.1381,0.1246,0.09,0.0347,-0.0339,-0.1193,-0.2824,-0.4538,-0.6171,-0.7488,-0.8793,-1.0287,-1.0738,-1.1079,-1.1406,-1.1219,-1.1023,-1.0944,-1.1308,-1.2265,-1.3942,-1.5171,-1.6089,-1.6728,-1.7164,-1.776,-1.8592,-1.8846,-1.9161,-1.956,-2.017,-2.0545,-2.0728,-2.1778,-2.1955,-2.1467,-2.2867,0.0,0.0,-2.5501,-2.664,-2.7771,-2.8291,-2.8569,-2.8676,-2.9193,-2.9437,-2.9607,0.0,0.0,0.0,0.0,0.0,0.0,0.0,0.5748,0.6451,0.849,0.7749,0.6929,0.6835,0.4607,0.2801,0.0,0.0,0.0,0.0,0.0,0.0,0.0,0.0,0.0,0.0,0.0,0.0,0.1199,0.1199,0.0,0.0,0.0,0.0,0.0,0.0,0.1799,0.182,0.1879,0.0,0.0,0.0,0.0,0.0,0.0,0.0,0.0,0.0,0.3417,0.3444,0.3421,0.3082,0.2727,0.2852,0.2612,0.2209,0.178,0.1426,0.1081,0.061,0.0242,-0.0078,-0.0194,-0.0337,-0.0173,0.0871,0.0845,0.0776,0.1364,0.1338,0.1224,0.1247,0.0938,0.0383,-0.0614,-0.1253,-0.2587,-0.5404,-0.6007,-0.7052,-0.9397,-1.0141,-1.0517,-1.0685,-1.1061,-1.1045,-1.0518,-1.1015,0.0,-1.3414,-1.4547,-1.5409,-1.5894,-1.6995,-1.7894,-1.8592,-1.8997,-1.9479,-2.003,-1.9493,-1.9645,-2.0348,-2.0478,-2.0613,-2.0877,-2.2391,0.0,0.0,-2.5819,-2.6924,-2.7847,-2.8388,-2.8749,-2.8993,-2.9212,-2.9589,-3.0067,0.0,0.0,0.0,0.0,0.0,0.0,0.6569,0.6409,0.7009,0.9517,0.8835,0.8074,0.8,0.6065,0.4126,0.2498,0.0,0.0,0.0,0.0,0.0,0.0,0.0,0.0,0.0,0.0,0.1199,0.1199,0.1366,0.0,0.0,0.0,0.0,0.0,0.0,0.1746,0.1869,0.189,0.0,0.0,0.0,0.0,0.0,0.0,0.0,0.0,0.0,0.0,0.3325,0.3278,0.3119,0.2964,0.3037,0.3077,0.3019,0.241,0.2279,0.2151,0.1245,0.087,0.0686,0.0229,0.0252,0.0501,0.098,0.1121,0.1216,0.1505,0.1376,0.1203,0.1238,0.1096,0.0856,0.0493,-0.0256,-0.1406,-0.3107,-0.394,-0.5325,-0.7842,-0.8334,-0.8979,-1.0275,-1.0355,-1.0437,-1.0633,-1.1148,0.0,-1.2531,-1.3729,-1.4424,-1.4514,-1.6229,-1.7162,-1.7287,-1.8159,-1.8784,-1.9132,-1.9207,-1.9449,-1.9945,-2.0518,-2.0752,-2.0763,-2.1809,0.0,0.0,-2.5109,-2.6254,-2.7262,-2.8439,-2.8989,-2.9169,-2.9514,-3.0139,-3.086,0.0,0.0,0.0,0.0,0.0,0.5049,0.6959,0.682,0.7332,0.9642,0.9229,0.8616,0.84,0.6701,0.497,0.341,0.2321,0.0,0.0,0.0,0.0,0.0,0.0,0.0,0.0,0.0,0.1361,0.1321,0.1594,0.1619,0.0,0.0,0.1731,0.1749,0.0,0.0,0.0,0.0,0.0,0.0,0.0,0.0,0.0,0.0,0.0,0.0,0.0,0.0,0.0,0.0,0.0,0.3013,0.3104,0.3354,0.356,0.3215,0.3072,0.2823,0.2021,0.158,0.1215,0.0688,0.0751,0.1027,0.121,0.1322,0.1438,0.157,0.1348,0.1153,0.1188,0.1119,0.1074,0.1185,0.0536,-0.0315,-0.1326,-0.219,-0.3615,-0.6077,-0.6357,-0.7188,-0.9416,-0.9708,-1.0047,-1.0733,0.0,0.0,-1.1571,-1.2892,-1.3598,-1.3565,-1.5093,-1.5917,-1.5985,-1.7149,-1.7921,-1.826,-1.875,-1.9192,-1.9603,-2.0255,-2.0661,-2.0913,-2.1639,0.0,0.0,-2.5046,-2.6076,-2.7038,-2.8415,-2.8971,-2.9097,-2.9888,-3.0617,-3.1348,0.0,0.0,0.0,0.0,0.0,0.0,0.6512,0.6866,0.74,0.8496,0.8512,0.8246,0.7842,0.6191,0.5055,0.4877,0.3112,0.0,0.0,0.0,0.0,0.0,0.0,0.0,0.0,0.0,0.1731,0.1599,0.186,0.1998,0.1993,0.1998,0.2032,0.2098,0.0,0.0,0.0,0.0,0.0,0.0,0.0,0.0,0.0,0.0,0.0,0.0,0.0,0.0,0.0,0.0,0.0,0.0,0.0,0.3419,0.3796,0.4241,0.3593,0.2763,0.2947,0.222,0.136,0.1126,0.1133,0.1252,0.1544,0.1389,0.1274,0.1547,0.1279,0.1036,0.1179,0.1034,0.0967,0.1175,0.1242,0.0812,-0.0517,-0.0954,-0.1936,-0.4174,-0.4374,-0.5314,-0.7792,-0.9164,-1.0129,-1.0669,0.0,0.0,-1.0624,-1.2159,-1.312,-1.3311,-1.3565,-1.4138,-1.5015,-1.6096,-1.6974,-1.7701,-1.8052,-1.8592,-1.931,-1.931,-2.0017,0.0,0.0,0.0,0.0,-2.6117,-2.676,-2.7361,-2.8255,-2.8569,-2.8692,-3.0217,-3.0918,-3.1394,0.0,0.0,0.0,0.0,0.0,0.0,0.0,0.5795,0.6107,0.7396,0.7251,0.7174,0.7561,0.6254,0.5357,0.531,0.3539,0.0,0.0,0.0,0.0,0.0,0.0,0.0,0.0,0.0,0.2241,0.2563,0.2771,0.2848,0.2756,0.2848,0.2658,0.225,0.2379,0.2393,0.0,0.0,0.0,0.0,0.0,0.0,0.0,0.0,0.0,0.0,0.0,0.0,0.0,0.0,0.0,0.0,0.0,0.0,0.0,0.4459,0.4298,0.3741,0.3108,0.2859,0.2607,0.2018,0.1978,0.205,0.1839,0.1741,0.167,0.1603,0.1384,0.1202,0.1201,0.1034,0.1052,0.1541,0.1428,0.12,0.0916,0.0,-0.1503,-0.3925,-0.6465,-0.8239,-0.8766,-0.9416,-0.9739,0.0,0.0,0.0,-0.9403,-1.0617,-1.1472,-1.1713,-1.3405,-1.4202,-1.3903,-1.505,-1.5966,-1.6629,-1.6995,-1.7489,-1.808,-1.808,-1.8822,0.0,0.0,0.0,0.0,-2.3932,-2.493,-2.6204,-2.7385,-2.8705,-3.0004,-3.0639,-3.1894,-3.3292,0.0,0.0,0.0,0.0,0.0,0.0,0.0,0.5406,0.5591,0.65,0.6307,0.6359,0.7023,0.5863,0.5176,0.5479,0.4031,0.0,0.0,0.0,0.0,0.0,0.0,0.0,0.2245,0.2353,0.2709,0.326,0.3515,0.3682,0.3743,0.3833,0.3478,0.2761,0.2942,0.284,0.0,0.0,0.0,0.0,0.0,0.0,0.3911,0.0,0.0,0.0,0.0,0.0,0.0,0.0,0.0,0.0,0.0,0.0,0.0,0.0,0.4415,0.4235,0.3634,0.329,0.3,0.25,0.2452,0.2393,0.2016,0.1856,0.1735,0.1535,0.1342,0.1209,0.1142,0.1024,0.1073,0.1498,0.1442,0.1223,0.0926,0.0257,-0.0993,-0.3086,-0.6447,-0.8387,-0.7983,-0.8917,-0.9475,0.0,0.0,0.0,-0.9219,-1.014,-1.0663,-1.0637,-1.2497,-1.3382,-1.3198,-1.4168,-1.5016,-1.5616,-1.6201,-1.6824,-1.7503,-1.7503,-1.84,0.0,0.0,0.0,0.0,-2.3201,-2.4215,-2.5536,-2.6952,-2.8382,-2.9762,-3.0731,-3.2,-3.3238,0.0,0.0,0.0,0.0,0.0,0.0,0.0,0.5506,0.5647,0.5714,0.5615,0.5726,0.6223,0.5094,0.4605,0.5354,0.0,0.0,0.0,0.0,0.0,0.0,0.0,0.0,0.2368,0.2698,0.3148,0.3782,0.4135,0.4503,0.4891,0.4897,0.4426,0.3553,0.37,0.3387,0.0,0.0,0.0,0.0,0.3557,0.3616,0.0,0.0,0.0,0.0,0.0,0.0,0.0,0.0,0.0,0.0,0.0,0.0,0.0,0.0,0.0,0.0,0.0,0.3619,0.2789,0.2758,0.2624,0.2444,0.2113,0.1809,0.0,0.1354,0.1202,0.109,0.1032,0.1013,0.1059,0.1226,0.1348,0.104,-0.0072,-0.0189,-0.0692,-0.218,-0.4815,-0.6394,-0.6021,-0.7847,0.0,0.0,0.0,0.0,-0.9668,-1.034,-1.0515,-1.0003,-1.1054,-1.2006,-1.2754,-1.3484,-1.4157,-1.4778,-1.5608,-1.6489,-1.7435,-1.7435,-1.8476,0.0,0.0,0.0,0.0,-2.3605,-2.4331,-2.5295,-2.6785,-2.7711,-2.8469,-3.0594,-3.1433,-3.1602,0.0,0.0,0.0,0.0,0.0,0.0,0.0,0.0,0.0,0.0,0.4957,0.4963,0.5079,0.4718,0.4495,0.0,0.0,0.0,0.0,0.0,0.0,0.0,0.0,0.0,0.2979,0.3259,0.3784,0.4525,0.5018,0.5435,0.578,0.5955,0.5325,0.411,0.4238,0.4011,0.0,0.0,0.0,0.0,0.3801,0.3836,0.0,0.0,0.0,0.0,0.3911,0.3869,0.0,0.0,0.0,0.0,0.0,0.0,0.0,0.0,0.3942,0.4009,0.4023,0.0,0.3797,0.3288,0.2935,0.2666,0.0,0.2019,0.1639,0.1486,0.1312,0.1188,0.1221,0.111,0.116,0.1652,0.1682,0.135,0.0569,-0.1232,-0.3126,-0.4812,-0.6081,-0.6773,-0.6668,-0.7383,0.0,0.0,0.0,-0.8062,-0.8312,-0.9408,-0.9982,-0.9855,-1.0596,-1.1454,-1.2316,-1.3102,-1.3862,-1.4584,-1.4971,-1.5656,-1.6522,-1.668,-1.7516,0.0,0.0,0.0,-2.181,-2.2427,-2.3423,-2.4678,-2.5717,-2.7479,-2.9536,-3.0798,-3.1263,-3.12,0.0,0.0,0.0,0.0,0.0,0.0,0.0,0.0,0.0,0.0,0.0,0.4742,0.4711,0.4633,0.0,0.0,0.0,0.0,0.0,0.0,0.0,0.0,0.0,0.3436,0.3436,0.3602,0.4196,0.5274,0.5615,0.6214,0.7077,0.6875,0.6137,0.4946,0.4347,0.4032,0.0,0.0,0.0,0.3924,0.3767,0.0,0.0,0.0,0.0,0.0,0.3911,0.3911,0.0,0.3872,0.3779,0.371,0.0,0.0,0.0,0.0,0.3911,0.3911,0.3911,0.3988,0.3972,0.3624,0.3188,0.2795,0.2584,0.2076,0.1614,0.1484,0.1291,0.1175,0.1247,0.1263,0.1348,0.1592,0.1531,0.1199,0.0426,-0.129,-0.2932,-0.4114,-0.507,-0.577,0.0,0.0,0.0,0.0,0.0,-0.7373,-0.7448,-0.86,-0.9302,-0.9413,-1.0198,-1.1,-1.1851,-1.2053,-1.2457,-1.3083,-1.3118,-1.3661,-1.466,-1.4592,-1.5222,0.0,0.0,0.0,-1.9712,-2.0364,-2.1956,-2.4104,-2.5499,-2.7259,-2.9118,-2.9823,-3.01,-2.9931,0.0,0.0,0.0,0.0,0.0,0.0,0.0,0.0,0.0,0.0,0.0,0.0,0.0,0.0,0.0,0.0,0.0,0.0,0.0,0.0,0.0,0.0,0.3731,0.3773,0.3943,0.3868,0.4529,0.5918,0.6135,0.6911,0.8184,0.7727,0.6887,0.5725,0.4387,0.3894,0.0,0.0,0.3762,0.3999,0.369,0.0,0.0,0.0,0.0,0.0,0.0,0.0,0.0,0.4156,0.409,0.3934,0.4163,0.0,0.0,0.0,0.0,0.0,0.3949,0.3873,0.3786,0.3801,0.3379,0.2909,0.268,0.215,0.1657,0.147,0.1292,0.1226,0.1377,0.1503,0.1591,0.1579,0.1249,0.074,-0.0072,-0.1073,-0.1924,-0.2514,-0.3566,0.0,-0.4933,0.0,0.0,0.0,0.0,-0.6947,-0.6783,-0.7741,-0.8391,-0.8605,-0.9344,-1.001,-1.0667,-1.0704,-1.0893,-1.1368,-1.112,-1.1572,-1.2668,-1.2361,-1.288,-1.3994,0.0,0.0,-1.7277,-1.7949,-1.9874,-2.2557,-2.4344,-2.5712,-2.6814,-2.7897,-2.8053,-2.754,0.0,0.0,0.0,0.0,0.0,0.0,0.0,0.0,0.0,0.0,0.0,0.0,0.0,0.0,0.0,0.0,0.0,0.0,0.0,0.0,0.0,0.4211,0.389,0.4122,0.5028,0.4406,0.4837,0.6469,0.6934,0.7577,0.8283,0.8645,0.773,0.5785,0.504,0.4424,0.3924,0.3994,0.4042,0.4068,0.3968,0.0,0.0,0.0,0.0,0.0,0.0,0.0,0.0,0.3942,0.3927,0.3897,0.3949,0.0,0.0,0.0,0.0,0.0,0.417,0.3944,0.3662,0.3851,0.3556,0.315,0.2842,0.2469,0.2073,0.1653,0.1545,0.1702,0.2285,0.1916,0.1799,0.2686,0.1299,-0.0036,-0.0481,-0.1766,-0.2932,-0.3648,0.0,-0.4505,0.0,0.0,0.0,0.0,0.0,-0.5831,-0.6222,-0.67,-0.6962,-0.6962,-0.6766,-0.6758,-0.6945,-0.9695,-1.1104,-1.1145,-1.0988,-1.1217,-1.1827,-1.2183,-1.2676,0.0,0.0,-1.5203,-1.5089,-1.608,-1.6804,-1.7409,-1.8446,-1.9465,-2.0769,-2.4531,-2.4638,-2.2703,0.0,0.0,0.0,0.0,0.0,0.0,0.0,0.0,0.0,0.0,0.0,0.0,0.0,0.0,0.0,0.0,0.0,0.0,0.0,0.0,0.0,0.5353,0.5062,0.5096,0.5574,0.5598,0.6417,0.8041,0.8551,0.9192,0.995,0.8797,0.7504,0.6034,0.4886,0.425,0.4055,0.4117,0.4158,0.4158,0.0,0.0,0.0,0.0,0.0,0.0,0.0,0.0,0.0,0.0,0.4009,0.392,0.4068,0.0,0.0,0.0,0.0,0.0,0.4002,0.3791,0.3523,0.3696,0.3403,0.3008,0.2707,0.2324,0.2006,0.1948,0.1804,0.1927,0.2685,0.2413,0.2067,0.2039,0.1644,0.1,0.0041,-0.0129,-0.0537,0.0,0.0,0.0,0.0,0.0,0.0,0.0,0.0,0.0,-0.5377,-0.6075,-0.6498,-0.6659,-0.6358,-0.6134,-0.6067,-0.7373,-0.822,-0.8661,-0.8496,-0.8559,-0.8853,-0.9628,-0.9801,-0.9638,0.0,-1.2343,-1.2879,-1.3725,-1.4831,-1.6133,-1.7032,-1.79,-1.8858,-2.0687,-2.0391,-1.8966,0.0,0.0,0.0,0.0,0.0,0.0,0.0,0.0,0.0,0.0,0.0,0.0,0.0,0.0,0.0,0.0,0.0,0.0,0.0,0.0,0.5161,0.6162,0.6188,0.6323,0.6723,0.7087,0.8048,0.9683,1.0165,1.0654,1.121,0.8951,0.7326,0.6204,0.4807,0.4199,0.4207,0.4207,0.4207,0.4207,0.0,0.0,0.0,0.0,0.0,0.0,0.0,0.0,0.0,0.0,0.0,0.0,0.0,0.0,0.0,0.3911,0.3653,0.3483,0.389,0.3673,0.3398,0.3663,0.3414,0.3025,0.2683,0.2299,0.2057,0.2094,0.1899,0.1982,0.2814,0.2872,0.2438,0.1384,0.1719,0.1636,0.0343,0.0888,0.102,-0.0045,-0.0659,0.0,0.0,0.0,0.0,0.0,0.0,0.0,-0.4625,-0.5167,-0.5648,-0.6065,-0.5668,-0.539,-0.5305,-0.4711,-0.499,-0.6132,-0.5899,-0.5859,-0.5961,-0.6671,-0.6538,-0.5856,-0.7615,-0.884,-0.9603,-1.0426,-1.1906,-1.3624,-1.3675,-1.4825,-1.6497,-1.671,-1.694,-1.6984,0.0,0.0,0.0,0.0,0.0,0.0,0.0,0.0,0.0,0.0,0.0,0.0,0.0,0.0,0.0,0.0,0.0,0.0,0.0,0.0,0.5135,0.5884,0.6562,0.7714,0.9487,0.8706,0.9159,1.087,1.1225,1.1262,1.0887,0.941,0.7824,0.6185,0.536,0.4723,0.4207,0.4207,0.4207,0.4207,0.4207,0.0,0.0,0.0,0.0,0.0,0.0,0.0,0.0,0.0,0.0,0.0,0.0,0.0,0.3911,0.3911,0.3653,0.3535,0.4119,0.3701,0.3266,0.3918,0.3949,0.367,0.3016,0.2792,0.2561,0.1967,0.1669,0.1802,0.2728,0.3107,0.2882,0.1764,0.1035,0.045,-0.0187,0.0,-0.098,0.0,0.0,0.0,0.0,0.0,0.0,0.0,0.0,0.0,-0.4083,-0.3547,-0.3554,-0.4276,-0.3423,-0.3057,-0.322,-0.2333,-0.2854,-0.4721,-0.4398,-0.4265,-0.4256,-0.4202,-0.3972,-0.3734,-0.5525,-0.5454,-0.4174,-0.5663,-0.6511,-0.6647,-0.4022,-0.6194,-1.1011,-1.2876,-1.5505,-1.7749,0.0,0.0,0.0,0.0,0.0,0.0,0.0,0.0,0.0,0.0,0.0,0.0,0.0,0.0,0.0,0.0,0.0,0.0,0.0,0.4793,0.5365,0.6657,0.7338,0.8227,0.9401,0.9993,1.1178,1.2993,1.2426,1.1763,1.0927,0.8812,0.7309,0.6206,0.5049,0.4425,0.4207,0.4207,0.4079,0.3899,0.3899,0.3899,0.0,0.0,0.0,0.0,0.0,0.0,0.0,0.0,0.396,0.396,0.3911,0.3911,0.3911,0.3911,0.352,0.3193,0.3627,0.3449,0.3203,0.3436,0.3748,0.3814,0.3034,0.2805,0.2727,0.2523,0.2169,0.2062,0.2668,0.3056,0.3042,0.2214,0.1632,0.112,0.0712,0.0189,0.0,0.0,0.0,0.0,0.0,0.0,0.0,0.0,0.0,0.0,-0.2215,-0.2031,-0.2201,-0.2943,-0.21,-0.1876,-0.2366,-0.1386,-0.1294,-0.2041,-0.2923,-0.305,-0.2526,-0.3347,-0.2995,-0.189,-0.3568,-0.3834,-0.3184,-0.3906,-0.3849,-0.3138,-0.1227,-0.1912,-0.4108,-0.5168,-0.6442,-0.7519,0.0,0.0,0.0,0.0,0.0,0.0,0.0,0.0,0.0,0.0,0.0,0.0,0.0,0.0,0.0,0.0,0.0,0.0,0.4793,0.4793,0.5415,0.6767,0.7333,0.822,0.9537,1.0654,1.1906,1.3219,1.2704,1.1741,1.0446,0.8395,0.7083,0.6387,0.4981,0.448,0.4686,0.4351,0.4071,0.3867,0.3867,0.3867,0.0,0.0,0.0,0.0,0.0,0.0,0.0,0.0,0.4022,0.4001,0.4014,0.4027,0.4012,0.3897,0.3628,0.3371,0.3509,0.3501,0.3453,0.355,0.3974,0.4153,0.3423,0.3035,0.2835,0.2983,0.262,0.2366,0.2471,0.2823,0.2947,0.2354,0.1954,0.1583,0.112,0.0,0.0,0.0,0.0,0.0,0.0,0.0,0.0,0.0,0.0,0.0,0.0,-0.0872,-0.1145,-0.2095,-0.1235,-0.1055,-0.165,-0.0715,-0.0132,0.0,-0.1114,-0.1333,-0.0807,-0.1721,-0.1293,0.0,-0.1669,-0.1981,-0.134,-0.1374,-0.0186,0.1564,0.068,0.0759,0.1184,-0.0385,-0.107,-0.1288,0.0,0.0,0.0,0.0,0.0,0.0,0.0,0.0,0.0,0.0,0.0,0.0,0.0,0.0,0.0,0.0,0.0,0.0,0.4793,0.4812,0.5147,0.5957,0.6401,0.7766,1.022,1.0667,1.0963,1.1078,1.1719,1.1098,0.935,0.8309,0.7415,0.6737,0.532,0.51,0.5728,0.4654,0.4207,0.4207,0.4207,0.4207,0.4207,0.0,0.0,0.0,0.0,0.0,0.0,0.0,0.4055,0.4042,0.4232,0.4313,0.4239,0.3906,0.4036,0.4236,0.3958,0.389,0.4016,0.4479,0.4743,0.4802,0.4379,0.3549,0.2908,0.3173,0.302,0.2639,0.2134,0.2459,0.2618,0.1993,0.1868,0.1564,0.0,0.0,0.0,0.0,0.0,0.0,0.0,0.0,0.0,0.0,0.0,0.0,0.0,-0.0189,-0.0325,-0.1734,-0.0756,-0.0401,-0.089,-0.0045,0.0642,0.109,0.1089,0.1012,0.0817,0.1024,0.1445,0.1916,0.0174,0.0415,0.2068,0.2476,0.5029,0.8115,0.2483,0.2155,0.4365,0.0432,-0.1074,-0.1197,0.0,0.0,0.0,0.0,0.0,0.0,0.0,0.0,0.0,0.0,0.0,0.0,0.0,0.0,0.0,0.0,0.0,0.0,0.4793,0.4941,0.5247,0.5763,0.6543,0.711,0.7489,0.8121,0.9308,1.1019,1.1029,0.9982,0.8053,0.748,0.6666,0.5672,0.554,0.5173,0.4654,0.4343,0.4063,0.385,0.385,0.385,0.385,0.0,0.0,0.0,0.0,0.0,0.0,0.0,0.0,0.0,0.4321,0.4362,0.4287,0.3906,0.3707,0.3541,0.3263,0.334,0.3535,0.3759,0.423,0.4623,0.4573,0.4548,0.4374,0.3992,0.3783,0.3544,0.33,0.2979,0.282,0.3099,0.2697,0.2358,0.0,0.0,0.0,0.0,0.0,0.0,0.0,0.0,0.0,0.0,0.0,0.0,0.0,0.1554,0.1117,0.014,0.0635,0.0626,0.0,0.0671,0.1217,0.1595,0.1389,0.1467,0.1715,0.1764,0.2263,0.3009,0.2474,0.2761,0.3787,0.4986,0.5895,0.6553,0.6727,0.7365,0.7883,0.5532,0.4748,0.4656,0.0,0.0,0.0,0.0,0.0,0.0,0.0,0.0,0.0,0.0,0.5726,0.5509,0.0,0.0,0.0,0.0,0.0,0.0,0.5,0.5059,0.5312,0.5793,0.635,0.672,0.6819,0.7734,0.8557,0.9247,0.9503,0.8805,0.7189,0.743,0.7165,0.6504,0.6672,0.6329,0.5568,0.5062,0.455,0.4095,0.4095,0.4095,0.4095,0.0,0.0,0.0,0.0,0.0,0.0,0.0,0.0,0.0,0.4193,0.4149,0.4014,0.3885,0.3892,0.3898,0.3733,0.3824,0.4019,0.4135,0.4456,0.4818,0.5042,0.5058,0.4906,0.4447,0.4151,0.3871,0.3781,0.3307,0.0,0.3387,0.3156,0.0,0.0,0.0,0.0,0.0,0.0,0.0,0.0,0.0,0.0,0.0,0.0,0.0,0.0,0.2836,0.0,0.0,0.187,0.1626,0.1004,0.1332,0.1695,0.2116,0.2285,0.2609,0.3078,0.256,0.282,0.3621,0.3814,0.4654,0.5965,0.6607,0.7181,0.7805,0.9095,0.9611,0.9395,0.7655,0.7111,0.7002,0.0,0.0,0.0,0.0,0.0,0.0,0.0,0.0,0.0,0.6183,0.5984,0.5811,0.0,0.0,0.0,0.531,0.5185,0.5166,0.5291,0.5185,0.5382,0.5978,0.6101,0.6581,0.753,0.8651,0.8337,0.6555,0.7552,0.7576,0.6657,0.7808,0.8348,0.8334,0.8207,0.7943,0.7449,0.6193,0.5294,0.4686,0.4663,0.4663,0.4686,0.4851,0.0,0.0,0.0,0.0,0.0,0.0,0.0,0.0,0.3922,0.3771,0.3573,0.3767,0.4302,0.4822,0.4774,0.4864,0.4988,0.5137,0.5106,0.5186,0.5624,0.5211,0.476,0.4726,0.4389,0.3992,0.3967,0.3737,0.349,0.0,0.0,0.0,0.0,0.0,0.0,0.0,0.0,0.0,0.0,0.0,0.0,0.0,0.0,0.0,0.0,0.0,0.0,0.3043,0.2911,0.2599,0.2017,0.1966,0.2215,0.0,0.3486,0.413,0.4662,0.344,0.3245,0.3953,0.4552,0.601,0.7961,0.7424,0.849,1.0394,0.9825,0.9593,0.937,0.7557,0.6928,0.6738,0.0,0.0,0.0,0.0,0.0,0.0,0.0,0.0,0.6224,0.6272,0.6183,0.6068,0.5952,0.5793,0.0,0.5396,0.5358,0.5319,0.531,0.5272,0.5522,0.6128,0.6871,0.7223,0.7135,0.7182,0.687,0.6133,0.6675,0.6613,0.6022,0.7436,0.7749,0.7204,0.7714,0.7279,0.6062,0.5168,0.4675,0.4532,0.4428,0.4386,0.4395,0.4374,0.4155,0.0,0.0,0.0,0.0,0.0,0.0,0.0,0.3781,0.3792,0.3678,0.3365,0.3784,0.4263,0.3844,0.4196,0.4732,0.4904,0.4908,0.5033,0.5708,0.5238,0.4865,0.5672,0.5849,0.581,0.5698,0.5131,0.4742,0.0,0.0,0.0,0.0,0.0,0.0,0.0,0.0,0.0,0.0,0.0,0.0,0.0,0.0,0.0,0.0,0.0,0.0,0.3907,0.3587,0.3221,0.2846,0.2831,0.3149,0.0,0.4028,0.4581,0.5418,0.4593,0.4439,0.4966,0.5905,0.6356,0.6477,0.7528,0.7943,0.8013,0.9105,0.9552,0.9367,0.744,0.6785,0.6573,0.0,0.0,0.0,0.0,0.0,0.0,0.0,0.0,0.6189,0.6278,0.6272,0.6201,0.6104,0.6032,0.0,0.0,0.5622,0.5585,0.5585,0.5434,0.5714,0.6551,0.7332,0.7503,0.7021,0.6672,0.6218,0.5664,0.5679,0.5815,0.607,0.7209,0.772,0.7646,0.8079,0.7589,0.6322,0.5582,0.5057,0.4739,0.4654,0.4632,0.4616,0.4482,0.4207,0.3895,0.389,0.0,0.0,0.0,0.0,0.0,0.0,0.0,0.3441,0.3324,0.3702,0.4151,0.4205,0.4581,0.4985,0.4942,0.4983,0.5091,0.539,0.5311,0.5286,0.5868,0.5784,0.5706,0.6067,0.5445,0.0,0.0,0.0,0.0,0.0,0.0,0.0,0.0,0.0,0.0,0.0,0.0,0.0,0.0,0.0,0.0,0.0,0.5581,0.5247,0.5216,0.4393,0.3751,0.3388,0.2952,0.3184,0.4062,0.4371,0.5055,0.6037,0.583,0.5853,0.6067,0.6859,0.7081,0.7026,0.7817,0.8027,0.7898,0.8674,0.9226,0.9371,0.7491,0.6785,0.6528,0.0,0.0,0.0,0.0,0.0,0.0,0.0,0.0,0.0,0.6278,0.6295,0.629,0.6218,0.6218,0.6165,0.0,0.0,0.0,0.5918,0.5716,0.5992,0.6827,0.7452,0.7541,0.7044,0.6629,0.6127,0.551,0.5095,0.5452,0.6553,0.7232,0.7819,0.8363,0.8486,0.7939,0.6861,0.6214,0.5573,0.5002,0.4889,0.4863,0.4842,0.4563,0.4212,0.3872,0.3853,0.3712,0.3616,0.4144,0.0,0.0,0.0,0.0,0.32,0.331,0.3724,0.4241,0.4665,0.5049,0.5294,0.5156,0.5241,0.5323,0.5241,0.5509,0.5851,0.6122,0.5618,0.5305,0.5932,0.0,0.0,0.0,0.0,0.0,0.0,0.0,0.0,0.0,0.0,0.0,0.0,0.0,0.0,0.0,0.0,0.0,0.698,0.6571,0.6363,0.6379,0.5216,0.4396,0.4004,0.3271,0.3354,0.4261,0.5,0.5787,0.6601,0.7064,0.7114,0.6899,0.7353,0.773,0.8023,0.8054,0.8243,0.8509,0.8541,0.9062,0.9563,0.7753,0.7133,0.7011,0.0,0.0,0.0,0.0,0.0,0.0,0.0,0.0,0.0,0.0,0.6295,0.6295,0.629,0.629,0.6254,0.6183,0.6147,0.6111,0.5991,0.0,0.0,0.6318,0.6942,0.725,0.7162,0.6717,0.6434,0.6337,0.5879,0.6265,0.7426,0.7649,0.7744,0.7731,0.7849,0.7263,0.6111,0.5493,0.5181,0.5038,0.4465,0.4293,0.4319,0.3715,0.3275,0.2989,0.3159,0.3232,0.3294,0.3548,0.3851,0.0,0.0,0.0,0.3355,0.2865,0.3452,0.4163,0.3668,0.4246,0.5084,0.5564,0.5787,0.5953,0.6081,0.6142,0.6437,0.7408,0.6927,0.6349,0.0,0.0,0.0,0.0,0.0,0.0,0.0,0.0,0.0,0.0,0.0,0.0,0.0,0.0,0.0,0.0,0.0,0.0,0.7412,0.713,0.6885,0.6653,0.6093,0.5582,0.5185,0.5219,0.5408,0.5739,0.6694,0.7191,0.7283,0.8039,0.7799,0.6834,0.7113,0.7411,0.7678,0.7848,0.8026,0.8242,0.8908,0.9735,1.0336,0.8514,0.84,0.8867,0.0,0.0,0.0,0.0,0.0,0.0,0.0,0.0,0.0,0.0,0.0,0.6295,0.6295,0.6295,0.629,0.6254,0.6254,0.6183,0.6014,0.617,0.629,0.636,0.6421,0.6604,0.6859,0.6365,0.6112,0.6112,0.5903,0.6466,0.7768,0.7824,0.7978,0.8198,0.7452,0.6828,0.6276,0.5254,0.482,0.4762,0.4218,0.4374,0.4837,0.3691,0.3547,0.3876,0.3131,0.2874,0.2976,0.365,0.4032,0.4159,0.3954,0.0,0.0,0.0,0.3237,0.3851,0.4118,0.4725,0.5374,0.5686,0.5959,0.6167,0.6215,0.638,0.6743,0.7622,0.7412,0.0,0.0,0.0,0.0,0.0,0.0,0.0,0.0,0.0,0.0,0.0,0.0,0.0,0.0,0.0,0.0,0.0,0.0,0.7224,0.75,0.7537,0.7372,0.695,0.6448,0.6,0.5584,0.5197,0.538,0.6069,0.7149,0.7597,0.7524,0.8117,0.8139,0.7769,0.8004,0.798,0.7853,0.8164,0.8132,0.793,0.8521,0.9268,0.9876,0.8676,0.8461,0.8652,0.0,0.0,0.0,0.0,0.0,0.0,0.0,0.0,0.0,0.0,0.0,0.6295,0.6295,0.0,0.0,0.0,0.6295,0.6236,0.6062,0.6057,0.6151,0.6357,0.6091,0.6098,0.643,0.6064,0.5837,0.583,0.583,0.6595,0.8082,0.7951,0.8374,0.9181,0.7735,0.6858,0.6368,0.528,0.4823,0.4796,0.4333,0.4657,0.5327,0.4302,0.4494,0.512,0.3683,0.3242,0.3453,0.4039,0.4301,0.4387,0.4259,0.4227,0.0,0.0,0.0,0.3482,0.4483,0.498,0.5311,0.559,0.6049,0.6451,0.6489,0.6768,0.7224,0.0,0.7977,0.0,0.0,0.0,0.0,0.0,0.0,0.0,0.0,0.0,0.0,0.0,0.0,0.0,0.0,0.0,0.0,0.0,0.0,0.7249,0.7446,0.7605,0.7473,0.7052,0.6573,0.6174,0.586,0.5352,0.5591,0.6575,0.7393,0.7689,0.7587,0.7998,0.8256,0.8393,0.849,0.8433,0.8312,0.8614,0.8514,0.8203,0.8637,0.9248,0.9767,0.901,0.88,0.8887,0.0,0.0,0.0,0.0,0.0,0.0,0.0,0.0,0.0,0.0,0.0,0.6295,0.6295,0.6295,0.6295,0.6295,0.6295,0.6272,0.6183,0.6183,0.6141,0.6043,0.6002,0.0,0.6025,0.6002,0.5954,0.5893,0.5893,0.6803,0.8546,0.8115,0.8901,1.0625,0.9137,0.7585,0.6008,0.5611,0.5451,0.5406,0.5013,0.5009,0.5269,0.5676,0.6089,0.6241,0.4886,0.485,0.5337,0.4553,0.459,0.4878,0.4427,0.43,0.4104,0.0,0.0,0.0,0.4071,0.43,0.4463,0.53,0.6208,0.6959,0.7271,0.7579,0.8184,0.9353,0.0,0.0,0.0,0.0,0.0,0.0,0.0,0.0,0.0,0.0,0.0,0.0,0.0,0.0,0.0,0.0,0.0,0.0,0.0,0.7778,0.7418,0.7141,0.6921,0.6811,0.6428,0.6233,0.6265,0.6537,0.7072,0.7801,0.7744,0.7627,0.7521,0.7993,0.8141,0.8021,0.7909,0.8301,0.9046,0.9073,0.9208,0.9458,0.9985,1.046,1.0732,0.9922,1.0144,1.0741,0.0,0.0,0.0,0.0,0.0,0.0,0.0,0.0,0.0,0.0,0.0,0.0,0.0,0.6295,0.6163,0.5811,0.5775,0.5919,0.6248,0.6272,0.6254,0.6189,0.6153,0.6129,0.6129,0.5751,0.554,0.5518,0.5518,0.6155,0.737,0.7478,0.8061,0.9038,0.8415,0.7787,0.713,0.5753,0.5124,0.5085,0.5352,0.6012,0.6802,0.6775,0.7522,0.8361,0.6794,0.609,0.5889,0.5767,0.5203,0.4529,0.4355,0.4096,0.3725,0.3086,0.311,0.3439,0.3861,0.408,0.4293,0.4678,0.5631,0.644,0.6505,0.7219,0.8227,0.9353,0.0,0.0,0.0,0.0,0.0,0.0,0.0,0.0,0.0,0.0,0.0,0.0,0.0,0.0,0.0,0.0,0.0,0.0,0.0,0.0,0.7475,0.736,0.7092,0.6628,0.6751,0.6612,0.6117,0.6731,0.7163,0.7384,0.8031,0.8278,0.8156,0.8357,0.8667,0.9001,0.876,0.8813,0.916,1.0028,1.0034,0.9554,1.0135,1.0236,1.0042,0.9789,0.9896,1.0139,0.0,0.0,0.0,0.0,0.0,0.0,0.0,0.0,0.6437,0.6437,0.0,0.0,0.0,0.0,0.6181,0.5804,0.5763,0.5924,0.6271,0.6295,0.6295,0.6295,0.6088,0.5958,0.5958,0.5415,0.5112,0.5066,0.5066,0.562,0.6714,0.6968,0.7549,0.8346,0.7757,0.7552,0.7569,0.6118,0.5358,0.5226,0.6137,0.6846,0.7425,0.806,0.8754,0.927,0.8294,0.7603,0.7198,0.7444,0.6937,0.6045,0.5219,0.4266,0.3371,0.3064,0.319,0.3462,0.3564,0.3813,0.4138,0.4554,0.5241,0.5958,0.6491,0.7047,0.7855,0.9289,0.0,0.0,0.0,0.0,0.0,0.0,0.0,0.0,0.0,0.0,0.0,0.0,0.0,0.0,0.0,0.0,0.0,0.0,0.0,0.0,0.7954,0.7757,0.7397,0.6753,0.676,0.6695,0.652,0.6928,0.7275,0.7579,0.8277,0.8781,0.906,0.9128,0.9493,1.0044,1.0106,1.0063,1.0002,1.0906,1.0978,1.0552,1.0951,1.0834,1.0408,1.0194,1.0107,1.007,0.0,0.0,0.0,0.0,0.0,0.0,0.0,0.0,0.6507,0.6507,0.0,0.0,0.0,0.0,0.0,0.6319,0.6307,0.6295,0.6283,0.6271,0.6271,0.6259,0.5768,0.5476,0.5476,0.5014,0.471,0.4579,0.4579,0.5285,0.6612,0.6646,0.7417,0.8725,0.7304,0.6846,0.711,0.6651,0.6191,0.594,0.7296,0.7432,0.7058,0.9506,0.9774,0.8973,0.9342,0.9431,0.9403,0.9586,0.9758,0.9411,0.6985,0.4779,0.31,0.31,0.31,0.3118,0.0,0.0,0.0,0.4898,0.5105,0.5549,0.7291,0.7113,0.7158,0.9308,0.0,0.0,0.0,0.0,0.0,0.0,0.0,0.0,0.0,0.0,0.0,0.0,0.0,0.0,0.0,0.0,0.0,0.0,0.0,0.895,0.8837,0.8285,0.7764,0.7237,0.6463,0.6513,0.748,0.7196,0.754,0.8523,0.8561,0.9159,1.0249,1.0315,1.0575,1.1014,1.1852,1.1991,1.1647,1.1652,1.1974,1.2498,1.2491,1.2353,1.2004,1.1222,1.0925,1.0833,0.0,0.0,0.0,0.0,0.0,0.6569,0.6569,0.6522,0.6505,0.0,0.0,0.0,0.6544,0.649,0.6602,0.693,0.6602,0.6179,0.5756,0.5716,0.5564,0.5233,0.5076,0.5004,0.5004,0.4486,0.4209,0.4161,0.4161,0.4363,0.476,0.5453,0.5953,0.628,0.6234,0.6031,0.5715,0.5194,0.5463,0.6286,0.6828,0.7878,0.9261,1.0293,1.1314,1.2086,1.1669,1.1426,1.1305,1.113,0.982,0.7848,0.5229,0.3849,0.3169,0.3169,0.313,0.3136,0.3306,0.0,0.0,0.0,0.0,0.0,0.5223,0.5589,0.629,0.805,0.0,0.0,0.0,0.0,0.0,0.0,0.0,0.0,0.0,0.0,0.0,0.0,0.0,0.0,0.0,0.0,0.0,0.0,0.9459,0.9273,0.9047,0.8312,0.782,0.7586,0.7251,0.7216,0.7481,0.7598,0.8184,0.9233,0.9723,1.0465,1.1436,1.1495,1.1883,1.2487,1.2237,1.2427,1.2878,1.2638,1.2523,1.2498,1.2491,1.2347,1.2068,1.1809,1.1663,1.1607,0.0,0.0,0.6674,0.6899,0.7137,0.73,0.73,0.7269,0.715,0.0,0.0,0.0,0.6889,0.7496,0.7736,0.7281,0.6963,0.6425,0.5595,0.5535,0.5318,0.4825,0.48,0.48,0.48,0.4269,0.4003,0.4003,0.3774,0.3786,0.4015,0.4554,0.4916,0.5098,0.5147,0.5105,0.4978,0.4189,0.4675,0.6064,0.7437,0.8541,0.9496,1.0839,1.1617,1.2026,1.2315,1.2254,1.2119,1.2687,1.095,0.8176,0.6473,0.4888,0.3635,0.3298,0.3497,0.3818,0.3812,0.3869,0.394,0.4062,0.0,0.0,0.5363,0.557,0.6128,0.0,0.0,0.0,0.0,0.0,0.0,0.0,0.0,0.0,0.0,0.0,0.0,0.0,0.0,0.0,0.0,0.0,0.0,0.9762,0.9845,0.9738,0.9366,0.8549,0.8114,0.8079,0.7607,0.7511,0.7782,0.8078,0.8776,0.9892,1.0566,1.1516,1.2721,1.2775,1.3145,1.3714,1.3174,1.3115,1.3357,1.3048,1.2941,1.3011,1.2979,1.303,1.3057,1.2647,1.2477,1.2401,0.0,0.0,0.6799,0.7393,0.7989,0.8411,0.8474,0.8487,0.8277,0.0,0.7263,0.7225,0.7881,0.9117,0.9255,0.7629,0.7432,0.6883,0.5697,0.5562,0.5316,0.4838,0.4752,0.474,0.4814,0.428,0.3991,0.3991,0.3463,0.3439,0.3919,0.3979,0.422,0.4594,0.4184,0.4232,0.4558,0.3672,0.4145,0.5734,0.8345,0.905,0.8766,1.1147,1.1385,1.0642,1.2084,1.2429,1.2424,1.3976,1.2414,0.9748,0.9092,0.7067,0.4724,0.3686,0.4159,0.4939,0.4576,0.4828,0.5186,0.5121,0.4799,0.0,0.6376,0.6108,0.618,0.0,0.0,0.0,0.0,0.0,0.0,0.0,0.0,0.0,0.0,0.0,0.0,0.0,0.0,0.0,0.0,0.945,0.9518,0.9864,1.0186,1.0157,0.9674,0.8894,0.8505,0.8618,0.7804,0.7666,0.8346,0.8662,0.9428,1.0665,1.126,1.2423,1.4025,1.3996,1.4227,1.4606,1.4192,1.3798,1.343,1.3009,1.3159,1.3641,1.358,1.3924,1.4314,1.3563,1.3274,1.3177,0.6511,0.6599,0.6925,0.7939,0.8575,0.9077,0.9529,0.9592,0.9554,0.9441,0.9328,0.9818,1.1286,1.0521,0.9579,0.8734,0.8274,0.7348,0.5793,0.5275,0.4991,0.488,0.4474,0.4449,0.4867,0.4303,0.4,0.4,0.347,0.3259,0.3367,0.3798,0.3834,0.3523,0.3859,0.3822,0.3547,0.4197,0.5348,0.6765,0.6933,0.8169,1.0045,1.1115,1.1884,1.2547,1.3217,1.3429,1.3345,1.3228,1.2474,1.1201,0.8859,0.8144,0.7686,0.522,0.5356,0.6122,0.5212,0.5084,0.5106,0.4664,0.4833,0.0,0.4352,0.4387,0.4783,0.0,0.5539,0.0,0.0,0.0,0.0,0.0,0.0,0.0,0.0,0.0,0.0,0.0,0.0,0.0,0.0,1.04,1.0608,1.0302,1.0157,0.9892,0.9408,0.913,0.8916,0.8761,0.8471,0.8649,0.9322,0.9373,1.0407,1.2311,1.2458,1.3306,1.4797,1.4734,1.4734,1.4784,1.3916,1.365,1.3726,1.2806,1.2806,1.3378,1.3361,1.3537,1.3774,1.3772,1.3732,1.3683,0.6549,0.6599,0.7037,0.8449,0.914,0.9767,1.0608,1.0747,1.0747,1.0747,1.1224,1.1533,1.1533,1.1073,1.0194,0.8767,0.813,0.7212,0.5842,0.5218,0.477,0.451,0.4462,0.4572,0.4853,0.4547,0.4401,0.4401,0.3601,0.3201,0.3204,0.3473,0.4016,0.4712,0.3944,0.4028,0.4712,0.4209,0.4613,0.5763,0.7633,0.9546,1.1419,1.2379,1.3046,1.3427,1.3372,1.3673,1.4101,1.3969,1.2913,1.1521,1.0751,0.9745,0.8496,0.6725,0.7005,0.7585,0.6099,0.5914,0.6009,0.5446,0.5298,0.0,0.0,0.4638,0.4879,0.5884,0.5755,0.5868,0.0,0.0,0.0,0.0,0.0,0.0,0.0,0.0,0.0,0.0,0.0,0.0,0.0,0.0,1.1201,1.1094,1.0627,1.0189,0.9813,0.9264,0.8897,0.8785,0.8993,0.9251,0.9604,1.0329,1.1429,1.2896,1.3261,1.4042,1.5102,1.5041,1.4823,1.4408,1.3747,1.3441,1.3397,1.2629,1.2619,1.3106,1.3159,1.336,1.3611,1.3751,1.3795,1.3827,0.6599,0.6599,0.7087,0.8685,0.9466,1.0244,1.1261,1.1525,1.1663,1.1876,1.2647,1.2797,1.177,1.2002,1.15,0.973,0.9116,0.8239,0.6842,0.6186,0.562,0.5082,0.4917,0.5035,0.5477,0.4936,0.4668,0.4668,0.3684,0.3198,0.3198,0.3204,0.41,0.566,0.4593,0.4762,0.578,0.4714,0.4657,0.5602,0.9062,1.0795,1.1387,1.297,1.3412,1.3284,1.3292,1.3822,1.4619,1.4606,1.3227,1.1619,1.2099,1.1004,0.921,0.7795,0.8375,0.9045,0.698,0.6753,0.6944,0.6241,0.5781,0.5489,0.0,0.0,0.0,0.0,0.0,0.0,0.0,0.0,0.0,0.0,0.0,0.0,0.0,0.0,0.0,0.0,0.0,0.0,0.0,0.0,1.1535,1.1799,1.1134,1.0587,1.04,0.9505,0.9062,0.9165,0.9593,0.9898,1.0,1.1219,1.2242,1.3111,1.3695,1.4388,1.5117,1.5117,1.4784,1.4212,1.3776,1.3475,1.3244,1.275,1.272,1.3029,1.3051,1.3177,1.3424,1.3536,1.363,1.3709,0.6599,0.6599,0.6975,0.8185,0.9227,1.0106,1.0706,1.1261,1.1939,1.2885,1.3123,1.3686,1.499,1.4751,1.4437,1.4186,1.4097,1.2931,1.0305,0.9642,0.9089,0.8559,0.624,0.5901,0.7864,0.5454,0.4189,0.4189,0.3526,0.3199,0.3199,0.3201,0.3334,0.3668,0.6276,0.6263,0.4437,0.6994,0.8682,0.9635,1.0145,0.9136,0.0,1.045,1.1509,1.1712,1.3251,1.4269,1.4711,0.0,1.2738,1.2313,1.0025,1.0834,1.1869,0.7829,0.8636,1.0298,0.7566,0.6969,0.6852,0.5842,0.5886,0.5793,0.4291,0.0,0.4517,0.4117,0.0,0.0,0.0,0.0,0.0,0.0,0.0,0.0,0.0,0.0,0.0,0.0,0.0,0.0,0.0,0.0,0.0,1.197,1.1175,1.072,1.075,1.0057,0.9935,1.0489,1.0593,1.0935,1.1449,1.1763,1.2407,1.3444,1.3576,1.4065,1.4839,1.4777,1.4859,1.5003,1.4285,1.4109,1.4278,1.3627,1.3389,1.3404,1.2999,1.2781,1.2746,1.2998,1.3158,1.3295,0.6599,0.6599,0.695,0.811,0.8675,0.9366,1.0518,1.2027,1.3103,1.3185,1.3785,1.4325,1.4739,1.3961,1.3626,1.41,1.3828,1.2722,1.0599,0.9912,0.8899,0.7256,0.6032,0.5692,0.6315,0.5167,0.4388,0.4044,0.3475,0.3201,0.3201,0.3206,0.4037,0.5571,0.6812,0.783,0.855,0.8241,0.8462,0.9052,0.9373,0.8658,0.0,1.2244,1.3685,1.353,1.4429,1.5112,1.5392,0.0,1.3557,0.0,1.3036,1.2018,1.0473,0.9653,0.9677,0.9543,0.7478,0.7784,0.8277,0.643,0.6695,0.6858,0.4747,0.4237,0.4247,0.443,0.0,0.0,0.0,0.0,0.0,0.0,0.5235,0.0,0.0,0.0,0.0,0.0,0.0,0.0,0.0,0.0,0.0,0.0,0.0,1.1131,1.0372,1.0011,0.9755,0.9648,1.0791,1.1334,1.1231,1.2125,1.2914,1.3547,1.3547,1.3934,1.461,1.4497,1.4429,1.441,1.4038,1.387,1.3835,1.3534,1.3419,1.3431,1.3225,1.2995,1.2794,1.2942,1.3139,1.3329,0.6599,0.6599,0.6862,0.7696,0.7951,0.854,1.0044,1.1681,1.2801,1.2947,1.3697,1.4311,1.4513,1.4199,1.4362,1.5233,1.5245,1.4374,1.2372,1.1318,1.0116,0.8587,0.6714,0.605,0.6726,0.5377,0.4388,0.3812,0.3399,0.3289,0.3445,0.3297,0.4328,0.636,0.7101,0.8744,1.0874,0.9709,0.9535,1.0112,1.0497,1.0609,1.0965,1.4436,1.5551,1.5369,1.5634,1.5842,1.5909,1.5533,1.418,0.0,1.4721,1.3044,1.0554,1.1289,1.1135,1.0307,0.8227,0.8765,0.9274,0.6718,0.6782,0.6941,0.4914,0.4301,0.434,0.492,0.0,0.0,0.0,0.0,0.0,0.0,0.0,0.5381,0.0,0.0,0.0,0.0,0.0,0.0,0.0,0.0,0.0,0.0,0.0,0.0,1.0596,1.0287,0.9992,0.972,1.1125,1.1703,1.1443,1.255,1.3232,1.3459,1.3425,1.3802,1.447,1.431,1.428,1.4341,1.4282,1.417,1.397,1.393,1.3834,1.3736,1.3649,1.3394,1.3048,1.3179,1.3367,1.3581,0.6599,0.6599,0.6611,0.6649,0.7081,0.7826,0.8987,0.9214,1.0032,1.2153,1.2467,1.3295,1.5417,1.7061,1.8455,1.9522,2.0761,2.0261,1.7375,1.5332,1.459,1.5354,0.9227,0.7545,1.1286,0.6619,0.3866,0.3317,0.3236,0.3494,0.4064,0.3531,0.3586,0.4243,0.734,0.8693,0.8804,1.1776,1.3839,1.506,1.5101,1.5894,1.6981,0.0,1.5747,1.6114,1.6419,0.0,0.0,1.4709,1.432,0.0,0.0,0.0,0.0,0.0,0.0,0.0,0.0,0.0,0.0,0.6254,0.0,0.0,0.0,0.4365,0.4871,0.4901,0.5504,0.0,0.0,0.0,0.0,0.0,0.0,0.0,0.0,0.0,0.0,0.0,0.0,0.0,0.0,0.0,0.0,0.0,0.0,0.0,1.1919,1.1308,1.1228,1.1775,1.1922,1.2277,1.2847,1.3069,1.3163,1.3141,1.3163,1.3648,1.4406,1.4406,1.4769,1.5448,1.5448,1.5433,1.5419,1.5419,1.5107,1.4629,1.4301,1.3844,1.3415,1.3684,1.3852,1.4002,0.6599,0.6599,0.6599,0.6599,0.6749,0.7375,0.8874,1.0044,1.1567,1.3747,1.4362,1.5429,1.7664,1.8405,1.9233,2.0519,2.0981,2.0084,1.7242,1.5721,1.4649,1.4074,0.9818,0.8399,1.042,0.7375,0.5295,0.436,0.399,0.4089,0.4609,0.3715,0.3954,0.5222,0.7189,0.9597,1.2213,1.2294,1.364,1.5635,0.0,1.5526,1.6874,0.0,0.0,1.7038,1.7456,1.7909,0.0,1.7211,1.6509,1.6074,1.6063,1.4931,1.3561,1.3613,1.3451,0.0,0.0,0.0,1.2627,0.8788,0.0,0.0,0.0,0.0,0.0,0.0,0.0,0.0,0.0,0.0,0.0,0.0,0.0,0.0,0.0,0.0,0.0,0.0,0.0,0.0,0.0,0.0,0.0,0.0,0.0,0.0,0.0,1.1554,1.1699,1.1371,1.239,1.2822,1.2647,1.301,1.3267,1.3357,1.3116,1.331,1.3868,1.3709,1.3973,1.4501,1.4501,1.4658,1.4907,1.4907,1.4863,1.483,1.4949,1.4751,1.4288,1.3448,1.3284,1.3557,0.6637,0.6599,0.6599,0.6599,0.6937,0.7633,0.8912,1.0508,1.2379,1.4626,1.5354,1.6547,1.8733,1.9371,2.0007,2.1101,2.1445,2.0391,1.7538,1.6757,1.5967,1.5014,1.2203,1.1337,1.2818,0.9692,0.7513,0.6386,0.5258,0.4883,0.5197,0.4096,0.4249,0.5457,0.6283,0.9191,1.3384,1.282,1.4471,1.7368,0.0,1.6078,0.0,0.0,1.6997,1.6809,0.0,1.888,1.9125,1.8856,1.8291,1.7866,1.8438,1.7014,1.52,1.5724,1.5174,1.4285,1.3591,1.4374,0.0,1.0907,1.0775,0.0,0.6555,0.0,0.6772,0.0,0.0,0.0,0.0,0.0,0.0,0.0,0.0,0.0,0.0,0.4362,0.0,0.0,0.0,0.0,0.0,0.0,0.0,0.0,0.0,0.0,0.0,0.0,1.212,1.1603,1.2607,1.3088,1.2967,1.3259,1.3472,1.3594,1.3357,1.3446,1.3868,1.3742,1.394,1.4374,1.4519,1.4707,1.4937,1.509,1.5155,1.5164,1.5252,1.5133,1.4844,1.4275,1.4043,1.4083,0.6712,0.6624,0.6637,0.6637,0.7526,0.8462,0.9088,1.0548,1.2391,1.4765,1.5492,1.6685,1.8982,2.0162,2.0991,2.1518,2.2253,2.1465,1.8532,1.8474,0.0,0.0,1.617,1.5982,1.8191,1.3333,1.0244,0.9189,0.6923,0.58,0.5775,0.4633,0.4385,0.4894,0.483,0.7543,1.2244,1.3279,1.6219,2.012,1.836,1.7556,1.7346,1.7468,1.662,1.5751,1.8575,1.9354,1.9166,1.9475,1.9523,1.9419,1.9636,1.9366,1.884,1.8209,1.8092,1.7748,1.5833,1.544,1.4978,1.2567,0.0,0.0,0.0,0.0,0.997,0.0,0.0,0.0,0.0,0.0,0.0,0.0,0.0,0.0,0.0,0.0,0.0,0.0,0.0,0.0,0.0,0.0,0.0,0.0,0.0,0.0,0.0,0.0,1.257,1.257,1.2685,1.3116,1.3808,1.3788,1.3834,1.386,1.3834,1.404,1.4415,1.442,1.4596,1.4937,1.5374,1.5551,1.5507,1.5957,1.5928,1.5608,1.5339,1.5132,1.5102,1.601,1.5937,1.5439,0.6712,0.6925,0.7194,0.7194,0.7431,0.8239,0.0,0.0,0.0,1.6785,1.7476,1.8706,2.17,2.2334,2.256,2.2698,2.2855,0.0,0.0,0.0,0.0,2.0614,1.7727,1.6948,1.8781,1.3923,1.101,1.0307,0.7269,0.58,0.5775,0.4633,0.4419,0.4972,0.4856,0.7467,1.1997,1.2059,1.4563,1.8418,1.7846,1.7206,0.0,0.0,1.8238,1.7221,1.9233,2.0226,2.0635,2.0752,2.0737,2.0642,2.033,2.0106,1.9812,1.8942,1.868,1.8506,1.7599,1.7358,1.6954,1.4958,1.4164,1.3388,0.0,0.0,0.0,0.0,0.0,0.0,0.0,0.0,0.0,0.0,0.0,0.0,0.0,0.0,0.0,0.0,0.0,0.0,0.0,0.0,0.0,0.0,0.0,0.0,0.0,0.0,0.0,1.3765,1.3695,1.3756,1.3947,1.3749,1.4038,1.4747,1.4259,1.4239,1.4618,1.4662,1.441,1.4,1.4693,1.5031,1.5133,1.6024,1.6188,1.597,1.6756,1.6797,1.6365,1.5577,1.5272,1.5359,0.7006,0.7789,0.849,0.849,0.9103,0.0,1.1245,1.1432,0.0,1.6936,1.7903,0.0,2.1418,2.2489,2.3078,2.3078,2.3078,0.0,2.0853,0.0,0.0,2.0765,1.9899,1.9849,2.0749,1.7112,0.0,1.2542,0.9453,0.7206,0.5775,0.4633,0.4282,0.4608,0.4782,0.6929,1.0624,1.3082,1.5325,1.73,1.8311,0.0,0.0,1.8954,1.9134,1.8753,1.9742,2.056,2.1221,2.1221,2.1221,2.1175,2.0825,2.0595,2.0297,1.9723,1.9241,1.8827,1.8552,1.8256,1.7863,1.6827,1.6452,1.5842,1.3947,1.4105,1.4585,0.0,0.0,0.0,0.0,0.0,0.0,0.0,0.0,0.0,0.0,0.0,0.0,0.0,0.0,0.0,0.0,0.0,0.0,0.0,0.0,0.0,0.0,0.0,0.0,1.462,1.404,1.4104,1.486,1.3963,1.4173,1.5499,1.5396,1.5314,1.5264,1.5651,1.5403,1.4692,1.5673,1.605,1.604,1.7181,1.7494,1.7345,1.7909,1.782,1.7293,1.6894,1.6513,1.632,0.7518,0.8803,0.988,0.9805,1.1312,0.0,0.0,1.2944,0.0,1.6509,0.0,1.902,2.0024,2.1933,2.3078,2.3078,0.0,2.2309,2.0363,2.2058,2.2272,2.0326,2.2096,2.3078,2.3078,2.0878,1.8125,1.4802,1.2008,0.8912,0.5549,0.457,0.4059,0.4025,0.4622,0.6481,0.9497,1.4923,1.7006,1.6931,1.9203,1.969,1.9145,1.928,1.9676,2.0237,2.0237,2.0635,2.1221,2.1221,2.1221,2.1221,2.1221,2.0859,2.0492,2.0435,1.9734,1.8977,1.8919,1.8529,1.8084,1.8084,1.8464,1.8231,1.5885,1.6602,1.7366,1.6083,1.5779,1.6269,0.0,0.0,0.0,0.0,0.0,0.0,0.0,0.0,0.0,0.0,0.0,0.0,0.0,0.0,0.0,0.0,0.0,0.0,0.0,0.0,0.0,1.5286,1.428,0.0,1.5638,0.0,1.4486,1.588,1.6589,1.6677,1.6235,1.7027,1.6925,1.6221,1.7434,1.77,1.741,1.8719,1.9187,1.9042,1.8829,1.8416,1.8051,1.8849,1.8641,1.7987,0.8127,0.9102,0.9755,0.9327,1.1362,1.3661,1.5517,1.5793,1.6471,1.8342,1.9949,2.1154,2.1794,2.2623,2.3078,2.3078,2.3078,0.0,0.0,0.0,0.0,2.2573,2.2865,2.3078,2.3078,2.0646,1.7688,0.0,1.1602,0.827,0.4394,0.4182,0.3867,0.3478,0.4461,0.7538,1.2145,1.4562,0.0,1.8541,1.9594,1.9948,1.9912,2.0572,2.0871,2.1031,2.1031,2.1094,2.1221,2.1221,2.1221,2.1221,2.1221,2.1164,2.0951,2.0527,1.9998,1.9447,1.9011,1.8529,1.8084,1.8084,1.803,1.797,1.8191,1.8631,1.9083,1.9556,1.9986,1.9713,1.7841,0.0,0.0,0.0,0.0,0.0,0.0,0.0,0.0,0.0,0.0,0.0,0.0,0.0,0.0,0.0,0.0,0.0,0.0,0.0,0.0,0.0,1.5683,0.0,0.0,0.0,0.0,1.5182,1.6452,1.715,1.7341,1.7932,1.7741,1.706,1.8328,1.8266,1.7441,1.9249,1.9989,1.9895,1.9225,1.8888,1.8836,1.9207,1.9674,2.0073,0.9943,1.042,1.1048,1.1958,1.3659,0.0,0.0,1.9208,1.9936,1.9886,2.0564,2.128,2.1832,2.2636,2.3263,2.3552,2.3314,2.3078,2.3078,2.3078,2.3078,2.3078,2.3078,2.3078,2.3078,2.1901,1.9068,1.4513,0.0,0.9287,0.4557,0.3965,0.355,0.3407,0.5948,0.8738,0.0,0.0,0.0,1.8577,2.0299,2.0862,2.0787,2.1537,2.1537,2.1221,2.1411,2.1348,2.1221,2.1221,2.1221,2.1221,2.1221,2.1221,2.1175,2.0871,2.0446,2.0001,1.9599,1.8976,1.8372,1.8251,1.8139,1.815,1.8464,1.9016,1.9619,2.0333,2.0795,2.0301,1.7777,1.4544,0.0,0.0,0.0,0.0,0.0,0.0,0.0,0.0,0.0,0.0,0.0,0.0,0.0,0.0,0.0,0.0,0.0,0.0,0.0,0.0,0.0,0.0,0.0,0.0,0.0,1.6783,1.7763,1.8313,1.8461,1.9216,1.9193,1.8604,1.9743,1.9815,1.9217,2.0591,2.1022,2.0774,2.0402,1.9941,1.9578,2.0173,2.0358,2.0364,1.1983,1.2146,1.2801,1.4903,1.6233,1.7752,1.9849,2.2058,2.2937,2.1393,2.1405,2.1669,2.1995,2.2899,2.3678,2.4142,2.3753,2.3439,2.3326,2.3314,2.3203,2.3078,2.3078,2.3078,2.3078,2.3138,2.0652,0.0,0.0,1.0774,0.5679,0.4166,0.3842,0.0,0.0,0.0,0.0,0.0,1.8298,1.8934,2.0961,2.1588,2.1336,2.1987,2.1851,2.1285,2.16,2.16,2.1423,2.1423,2.1296,2.1221,2.1221,2.1221,2.1221,2.1221,2.0802,2.0358,2.0088,1.9414,1.8737,1.8417,1.8356,1.8367,1.8247,1.8881,1.9695,2.0283,2.0782,2.0334,1.7841,1.5775,0.0,0.0,0.0,0.0,0.0,0.0,0.0,0.0,0.0,0.0,0.0,0.0,0.0,0.0,0.0,0.0,0.0,0.0,0.0,0.0,0.0,1.6278,1.7275,0.0,1.7388,0.0,1.9196,1.957,1.9531,2.036,2.0543,2.0152,2.1054,2.1315,2.1122,2.1542,2.1648,2.1535,2.1451,2.0983,2.041,2.1115,2.0922,2.039,1.3556,1.3858,1.4387,1.607,1.7714,0.0,2.1079,2.3226,2.4243,2.3062,2.3791,2.4255,2.3816,2.4305,2.4682,2.4745,2.4695,2.4443,2.3954,2.3916,2.369,2.3103,2.3078,2.3078,2.3078,2.3271,2.1597,0.0,0.0,1.2068,0.7934,0.5273,0.5591,0.0,0.0,0.0,0.0,1.7864,1.9302,2.1372,2.142,2.1273,2.1031,2.1561,2.1612,2.1463,2.1788,2.1999,2.2135,2.2135,2.1675,2.1221,2.1221,2.1221,2.1221,2.1221,2.0802,2.0308,1.9874,1.9425,1.8962,1.8495,1.8422,1.8422,1.8506,1.8922,1.9488,2.0219,2.1272,2.1184,1.82,1.8959,1.8664,0.0,0.0,0.0,0.0,0.0,0.0,0.0,0.0,0.0,0.0,0.0,0.0,0.0,0.0,0.0,0.0,0.0,0.0,1.4707,0.0,1.511,1.3705,1.8165,0.0,1.8314,1.985,2.0579,2.0554,2.1032,2.1203,2.1183,2.1697,2.2002,2.2013,2.1095,2.1207,2.1935,2.1679,2.154,2.146,2.1526,2.1432,2.1289,0.0,0.0,0.0,0.0,0.0,0.0,0.0,2.4243,2.4895,2.5109,2.5222,2.5335,2.546,2.5084,2.4946,2.5259,2.5008,2.4732,2.4506,2.4494,2.4243,2.3678,2.3653,2.3489,2.3078,2.3198,2.1738,0.0,0.0,0.0,0.0,0.7771,0.0,0.0,0.0,1.6022,1.8377,1.9913,2.1021,2.18,2.1651,2.1474,2.1434,2.1812,2.1812,2.1612,2.1937,2.1999,2.1886,2.1886,2.1737,2.1474,2.1474,2.1348,2.1169,2.1031,2.0946,2.0818,2.0626,1.9971,1.939,1.927,1.8861,1.8464,1.8356,1.8869,1.95,1.9631,2.0633,2.1219,2.0424,1.9443,1.8835,0.0,0.0,0.0,0.0,0.0,0.0,0.0,0.0,0.0,0.0,0.0,0.0,0.0,0.0,0.0,0.0,0.0,0.0,1.2741,0.0,1.7987,1.5201,1.917,2.0841,2.0156,2.0477,2.0968,2.1612,2.1526,2.1792,2.231,2.2485,2.2478,2.2397,2.1866,2.1782,2.2051,2.1822,2.1657,2.1564,2.163,2.1504,2.134,1.8832,0.0,1.8304,0.0,2.0614,2.1029,2.4104,2.4582,2.4921,2.585,2.5749,2.5824,2.6402,2.5774,2.5448,2.5824,2.5511,2.5234,2.5059,2.5046,2.4808,2.4268,2.4092,0.0,2.3389,2.3165,2.2126,2.0185,1.7061,0.0,0.0,1.114,0.0,0.0,1.7202,1.8707,1.9691,2.1464,2.2123,2.1987,2.1788,2.1726,2.1624,2.2061,2.1999,2.18,2.2123,2.2123,2.1999,2.1999,2.1937,2.1851,2.1726,2.1474,2.1158,2.1094,2.1221,2.1295,2.0979,2.0557,2.01,1.9725,1.9383,1.891,1.8445,1.8987,1.9656,1.9579,2.0484,2.1396,2.1698,2.0083,1.9237,2.0798,0.0,0.0,0.0,2.3093,0.0,0.0,1.9215,1.7872,0.0,0.0,0.0,0.0,0.0,0.0,0.0,0.0,0.0,0.0,0.0,0.0,0.0,2.0374,2.1863,2.1737,2.1412,2.1528,2.1957,2.1808,2.2222,2.2975,2.2921,2.2843,2.2723,2.2529,2.2404,2.2324,2.2087,2.1932,2.1827,2.1894,2.1821,2.1631,2.0313,2.0162,2.0464,2.2652,2.2636,2.2673,2.3828,2.4004,2.4205,2.477,2.5285,2.5824,2.6402,2.6521,2.6508,2.6521,2.6508,2.6201,2.5624,2.5586,2.536,0.0,0.0,2.4004,2.3991,2.3427,2.3053,2.3027,0.0,0.0,1.8041,1.5318,1.5386,1.7869,1.8524,2.0229,2.2641,2.2297,2.2197,2.2185,2.1999,2.1726,2.1451,2.1999,2.2037,2.1951,2.2285,2.2555,2.269,2.269,2.2445,2.2135,2.1824,2.1498,2.1221,2.1336,2.1526,2.1483,2.0673,2.0948,2.1233,1.9719,1.9725,1.9921,1.9024,1.9303,1.9901,2.032,2.1237,2.1841,2.1326,2.1479,2.0771,1.7749,0.0,0.0,0.0,0.0,0.0,1.9909,1.4719,1.3473,1.923,0.0,0.0,0.0,0.0,0.0,0.0,0.0,0.0,1.7945,1.8558,0.0,1.8755,2.1747,2.3009,2.2483,2.2725,2.236,2.141,2.1921,2.2434,2.292,2.2875,2.2965,2.3054,2.2807,2.2746,2.2849,2.2609,2.2496,2.2481,2.2481,2.2481,2.2409,2.2912,2.2799,2.2761,2.3075,2.2987,2.3125,2.3891,2.4004,2.4192,2.4745,2.4971,2.5272,2.5812,2.6226,2.6533,0.0,2.6533,2.6445,0.0,2.6189,2.5937,2.5372,2.5184,2.4921,2.4569,2.4004,2.3715,2.3715,0.0,0.0,0.0,1.7852,1.8821,2.1299,2.1542,2.1925,2.2482,2.2359,2.2309,2.2185,2.1862,2.1851,2.1925,2.1851,2.1975,2.2111,2.2247,2.2309,2.2371,2.2371,2.2185,2.1999,2.2011,2.1737,2.14,2.1639,2.1588,2.1439,2.1711,2.1523,2.1128,2.0628,2.028,1.9855,1.897,1.9198,1.9786,2.0733,2.1126,2.1396,2.1554,2.1712,2.1489,2.0509,2.1645,0.0,0.0,0.0,2.1218,2.0138,1.7545,1.7089,0.0,2.1866,0.0,0.0,0.0,0.0,0.0,0.0,0.0,0.0,2.0074,0.0,1.8884,2.2059,2.3523,2.3246,2.3024,2.2754,2.2434,2.2934,2.3246,2.3377,2.3377,2.3201,2.2965,2.2981,2.2849,2.2644,2.2743,2.2739,2.2646,2.2726,2.2671,2.2465,2.4381,2.4469,2.4418,2.3866,2.3929,2.4117,2.428,2.4305,2.4356,2.4494,2.4695,2.4946,2.5272,2.5799,0.0,2.6508,2.6533,2.6533,2.6533,2.6533,2.6302,2.5937,2.5711,2.5435,2.5121,0.0,0.0,2.4004,2.1694,2.0511,2.0511,2.0469,2.1325,2.2909,2.2787,2.2665,2.2482,2.2359,2.2309,2.2247,2.1987,2.1987,2.2185,2.1987,2.1987,2.2197,2.2197,2.2197,2.2197,2.2197,2.2135,2.2061,2.2247,2.1987,2.1651,2.1901,2.1839,2.1726,2.2173,2.2092,2.1764,2.1382,2.0876,2.0263,1.9422,1.9396,1.9837,2.0795,2.1042,2.1153,2.1506,2.1712,2.1793,2.1793,2.2123,2.2472,2.2776,0.0,2.1175,0.0,0.0,0.0,0.0,2.0652,0.0,0.0,0.0,0.0,0.0,0.0,0.0,1.8053,2.2026,0.0,2.0849,2.2854,2.3696,2.3334,2.2799,2.2975,2.3703,2.3452,2.3421,2.361,2.3908,2.3688,2.3172,2.3555,2.3422,2.292,2.3113,2.3125,2.3038,2.3122,2.3071,2.2931,2.4883,2.5259,0.0,0.0,2.5247,0.0,2.4946,2.487,2.4695,2.418,2.4519,2.4833,2.487,2.531,2.5824,2.6483,0.0,0.0,0.0,2.6533,2.6533,2.6533,2.5937,2.5649,2.5649,2.5146,2.4582,2.4004,2.3464,2.3115,2.3078,2.2969,2.2909,2.2909,2.2543,2.2543,2.2678,2.2383,2.2309,2.2359,2.2247,2.2197,2.2197,2.2197,2.2197,2.2197,2.2197,2.2197,2.2197,2.2197,2.2197,2.2185,2.2359,2.2173,2.1937,2.2185,2.2309,2.2359,2.2247,2.2604,2.282,2.1811,2.1424,2.1056,2.0242,1.9952,2.0016,2.0511,2.0898,2.118,2.118,2.152,2.1746,2.1793,2.1766,2.1935,2.2443,0.0,2.0655,0.0,0.0,0.0,0.0,1.9699,2.1266,0.0,0.0,0.0,0.0,0.0,1.7516,2.4102,2.4109,2.4055,2.4043,2.4043,2.3714,2.302,2.2484,2.3155,2.4926,2.3628,2.3245,2.3731,2.4447,2.4282,2.3671,2.4372,2.4251,2.3551,2.3595,2.3595,2.361,2.3655,2.364,2.361,0.0,0.0,2.5435,2.4908,2.5247,2.5548,2.5435,2.541,2.5372,2.5234,2.4996,2.4971,2.5372,2.5523,2.5824,2.6483,2.6533,2.6533,2.6533,2.6533,2.6533,2.6533,2.6327,2.6319,2.6319,2.5699,2.4946,2.4004,2.3866,2.3565,2.3078,2.3078,2.3017,2.2909,2.2787,2.2665,2.2494,2.2359,2.2309,2.2247,2.2197,2.2197,2.2197,2.2197,2.2197,2.2197,2.2197,2.2197,2.2197,2.2197,2.2197,2.2197,2.2247,2.2185,2.2185,2.2494,2.2247,2.1949,2.2445,2.2494,2.2299,2.1764,2.1173,2.0769,2.0711,2.0519,2.0437,2.0549,2.0656,2.0822,2.1131,2.1277,2.1471,2.1902,2.1606,2.1426,2.1656,2.0766,0.0,0.0,1.9146,1.9531,2.1277,2.1563,2.1327,0.0,0.0,0.0,0.0,1.9012,2.0146,2.4179,2.4261,2.4295,2.4387,2.4387,2.4371,2.4336,2.4226,2.4409,2.4842,2.4423,2.4288,2.4498,2.4054,2.3728,2.3508,2.3644,2.3437,2.3113,2.3392,2.3538,2.3612,2.409,2.3956,2.3612,2.6377,2.6565,2.6578,2.6038,2.6389,2.6653,2.6402,2.6364,2.6364,2.6364,2.6126,2.605,2.6339,2.6138,2.6214,2.6791,2.6603,2.6533,2.6533,2.6533,2.6533,2.6533,2.6533,2.6533,2.6533,2.6151,2.546,2.4381,2.4117,2.3703,2.3078,2.3017,2.2969,2.2787,2.2726,2.2543,2.242,2.2297,2.2309,2.2309,2.2185,2.2197,2.2197,2.2197,2.2197,2.2197,2.2197,2.2197,2.2197,2.2197,2.2197,2.2197,2.2197,2.2197,2.2259,2.2445,2.2247,2.2123,2.2567,2.2567,2.2311,2.1823,2.1527,2.1306,2.14,2.1263,2.1224,2.1414,2.1238,2.1233,2.1931,2.1641,2.1648,2.2797,2.2044,2.149,2.2058,2.0976,0.0,2.0881,2.0676,2.1123,2.2775,2.2877,2.2702,2.237,0.0,0.0,2.2208,2.2417,2.3297,2.4885,2.4947,2.513,2.5528,2.5394,2.5545,2.5827,2.5305,2.5175,2.5389,2.493,2.4494,2.4109,2.4373,2.3778,2.2743,2.3425,2.3273,2.2603,2.3157,2.3392,2.3495,2.4088,2.4085,2.3816,2.7168,2.7657,2.7858,2.7469,2.7858,2.8072,2.7607,2.7532,2.7532,2.7532,2.7457,2.7406,2.7406,2.6979,2.6866,2.7256,2.6854,2.6622,2.6533,2.6533,2.6533,2.6533,2.6533,2.6533,2.6533,2.6533,2.5963,2.4946,2.4393,2.3766,2.3203,2.3007,2.286,2.2739,2.2543,2.242,2.242,2.2247,2.2247,2.2359,2.2247,2.2197,2.2197,2.2197,2.2197,2.2197,2.2197,2.2197,2.2197,2.2197,2.2197,2.2197,2.2197,2.2197,2.2247,2.2247,2.2297,2.2482,2.2616,2.269,2.2567,2.2112,2.2105,2.2151,2.2133,2.2027,2.2034,2.2481,2.1982,2.1839,2.283,2.2207,2.1893,2.2944,2.2161,2.1611,2.212,0.0,2.1133,2.2177,2.2378,2.2835,2.3818,2.3895,2.4432,2.5864,2.5557,0.0,0.0,2.5971,2.5953,2.5799,2.5691,2.5867,2.6502,2.6443,2.6641,2.7031,2.6138,2.5927,2.6232,2.5456,2.4575,2.3857,2.4812,2.4049,2.2242,2.3364,2.3174,2.2222,2.2915,2.32,2.3303,2.4013,2.4173,2.416,2.7238,2.7356,2.7532,2.7908,2.8436,2.8775,2.8687,2.8674,2.8674,2.8674,2.8273,2.7971,2.7971,2.7896,2.7695,2.7318,2.7205,2.6954,2.6559,2.6533,2.6533,2.6533,2.6533,2.6533,2.6533,2.6533,2.6138,2.5473,2.4828,2.4291,2.3853,2.3193,2.2909,2.2848,2.2739,2.2555,2.242,2.2247,2.2197,2.2247,2.2197,2.2197,2.2197,2.2197,2.2197,2.2197,2.2197,2.2197,2.2197,2.2197,2.2197,2.2197,2.2197,2.2309,2.2359,2.2359,2.2494,2.2616,2.2482,2.2555,2.2665,2.2579,2.2602,2.2616,2.2739,2.2716,2.2696,2.2726,2.2197,2.1825,2.235,2.2285,2.1363,1.9,2.0285,2.0884,1.8898,0.0,2.1842,2.2975,2.3708,2.4259,2.4505,2.4798,2.497,2.4941,2.5201,2.5248,2.4907,2.5304,2.5764,2.6356,2.561,2.5291,2.5488,2.6258,2.663,2.6614,2.7009,2.716,2.7083,2.6512,2.6165,2.5916,2.4517,2.4034,2.4107,2.2734,2.2297,2.256,2.2832,2.2943,2.3118,2.4462,2.4697,2.4451,2.7507,2.741,2.7369,2.762,2.8122,2.8486,2.8486,2.8737,2.9038,2.9352,2.9176,2.9013,2.9013,2.8737,2.8448,2.8185,2.762,2.7168,2.6917,2.6697,2.6533,2.6533,2.6533,2.6533,2.6533,2.6533,2.6176,2.5598,2.5294,2.4841,2.4291,2.3604,2.322,2.3021,2.2677,2.2432,2.2309,2.2247,2.2197,2.2197,2.2197,2.2197,2.2197,2.2197,2.2247,2.2309,2.2309,2.2371,2.2494,2.2494,2.2494,2.2494,2.2494,2.2494,2.2555,2.2555,2.2616,2.2678,2.2616,2.2896,2.3185,2.2909,2.3115,2.3444,2.3539,2.3412,2.3428,2.3734,2.3227,2.2926,2.3727,2.3285,2.2477,2.1425,2.2101,0.0,0.0,2.2089,2.3184,2.378,2.4184,2.4569,2.4948,2.484,2.5061,2.5814,2.5786,2.5756,2.5756,2.5973,2.6104,2.6153,2.6335,2.6406,2.6498,2.6909,2.6967,2.6616,2.6916,2.6916,2.6549,2.6297,2.5859,2.5306,2.4747,2.3984,2.313,2.2641,2.2633,2.2944,2.3412,2.4022,2.4684,2.5764,2.5997,2.574,2.7842,2.7691,2.746,2.7586,2.8006,2.8247,2.8195,2.8761,2.9239,2.9706,2.9668,2.9718,2.9921,2.9353,2.8925,2.8988,2.822,2.7607,2.7482,2.6954,2.6659,2.6533,2.6533,2.6533,2.6533,2.6533,2.6239,2.5799,2.5661,2.5253,2.471,2.3976,2.354,2.3325,2.2651,2.2359,2.2247,2.2197,2.2197,2.2197,2.2247,2.2247,2.2197,2.2247,2.2309,2.242,2.242,2.2543,2.269,2.269,2.269,2.269,2.269,2.2739,2.2739,2.2739,2.28,2.28,2.2739,2.3185,2.3577,2.3185,2.3603,2.4118,2.4221,2.4266,2.4368,2.4584,2.4136,2.3907,2.4687,2.404,2.3323,2.3224,0.0,0.0,0.0,2.3279,2.3949,2.4493,2.4614,2.485,2.536,2.5029,2.5269,2.6582,2.6257,2.6147,2.6496,2.6525,2.6365,2.5893,2.6707,2.7108,2.7108,2.721,2.7071,2.6669,2.6826,2.6669,2.6244,2.615,2.5626,2.4884,2.5039,2.4191,2.2708,2.2936,2.3166,2.3378,2.3985,2.4864,2.5826,2.6474,2.6856,2.6946,2.82,2.7958,2.7902,2.8426,2.8708,2.8761,2.8584,2.9239,2.9706,2.9514,2.9214,2.9341,3.0228,2.9479,2.9063,2.941,2.9062,2.8586,2.8084,2.7532,2.6992,2.6546,2.6533,2.6533,2.6533,2.6533,2.6508,2.6402,2.574,2.5453,2.5511,2.4149,2.3552,2.3641,2.2787,2.242,2.2359,2.2247,2.2197,2.2197,2.2359,2.2309,2.2197,2.2359,2.242,2.242,2.242,2.2543,2.269,2.269,2.269,2.269,2.269,2.28,2.2909,2.2909,2.2969,2.3017,2.2909,2.3017,2.3245,2.3636,2.393,2.4176,2.4584,2.5231,2.5495,2.4681,2.4315,2.4103,2.3962,2.3735,2.2704,2.0,0.0,0.0,2.0298,2.156,2.3353,2.5135,2.5424,2.563,2.5986,2.609,2.609,2.5988,2.6068,2.6054,2.5934,2.6056,2.6056,2.5893,2.6002,2.5934,2.5825,2.6457,2.6669,2.651,2.7159,2.7363,2.7195,2.6811,2.6549,2.6304,2.5261,2.4859,2.4887,2.3715,2.3406,2.3675,2.4082,2.4549,2.5091,2.5488,2.6419,2.7365,2.8011,2.7715,2.7575,2.7726,2.8017,2.8295,2.8448,2.8829,2.9147,2.9436,2.9068,2.8842,2.9279,2.8758,2.8558,2.8899,2.8303,2.788,2.7939,2.7208,2.6678,2.6533,2.6533,2.6533,2.6533,2.6533,2.6533,2.6533,2.6115,2.5878,2.5772,2.4895,2.4247,2.3762,2.3162,2.2674,2.2247,2.2185,2.2197,2.2197,2.2247,2.2309,2.2297,2.2359,2.2482,2.2616,2.2665,2.2726,2.286,2.2909,2.3198,2.3497,2.3078,2.3258,2.3543,2.3138,2.3365,2.3721,2.3662,2.359,2.3577,2.3741,2.4137,2.4483,2.4654,2.5007,2.53,2.5175,2.4768,2.4483,2.4711,2.4654,2.4039,2.2355,0.0,2.4624,2.2442,2.3489,2.4641,2.5149,2.5273,2.5632,2.6297,2.6312,2.6272,2.6165,2.6111,2.6056,2.5893,2.5948,2.5948,2.5893,2.5893,2.5893,2.5839,2.6111,2.6204,2.615,2.6404,2.6496,2.6443,2.6258,2.615,2.6082,2.5586,2.5242,2.5021,2.4443,2.4532,2.5029,2.5161,2.5724,2.6586,2.6799,2.7195,2.755,2.8279,2.7788,2.7403,2.7469,2.7808,2.8164,2.8324,2.8703,2.9147,2.9632,2.9014,2.8666,2.9171,2.8541,2.8257,2.8925,2.8176,2.7804,2.8004,2.7227,2.671,2.6533,2.6533,2.6533,2.6533,2.6533,2.6465,2.6396,2.627,2.6131,2.5898,2.5357,2.4768,2.419,2.3474,2.2953,2.2488,2.2258,2.2197,2.2197,2.2247,2.2309,2.2359,2.2359,2.2482,2.2616,2.28,2.2848,2.2909,2.3017,2.3484,2.3943,2.3424,2.359,2.3826,2.3138,2.3318,2.3767,2.3943,2.3872,2.38,2.4021,2.4355,2.4711,2.4894,2.5063,2.5231,2.5453,2.5063,2.4781,2.5007,2.4951,2.4735,2.4413,2.5317,2.5624,2.441,2.4859,2.5329,2.5259,2.5175,2.5412,2.619,2.6042,2.5948,2.6165,2.6111,2.6002,2.6002,2.5784,2.5619,2.5619,2.5425,2.53,2.53,2.5715,2.5893,2.5893,2.5893,2.5893,2.5893,2.5893,2.5893,2.5893,2.5784,2.56,2.5275,2.5154,2.542,2.5825,2.5825,2.6433,2.721,2.7144,2.7384,2.7635,2.9147,2.8265,2.7603,2.7789,2.827,2.8627,2.8339,2.9139,2.9878,3.0038,2.9034,2.8887,3.0543,2.8982,2.8317,2.9688,2.908,2.8567,2.8567,2.7784,2.703,2.6546,2.6533,2.6533,2.6533,2.6533,2.6396,2.6213,2.6213,2.6131,2.5898,2.5357,2.5111,2.505,2.3762,2.3223,2.3186,2.2476,2.2197,2.2197,2.2359,2.2309,2.2185,2.2359,2.242,2.242,2.2616,2.28,2.2909,2.2909,2.3305,2.38,2.3636,2.3636,2.3458,2.2909,2.28,2.3078,2.3636,2.3682,2.38,2.4526,2.4597,2.4681,2.5287,2.5508,2.5508,2.5287,2.5148,2.4924,2.4394,2.415,2.431,2.5231,2.4908,2.4794,2.5508,2.5092,2.4924,2.5508,2.5258,2.5174,2.5674,2.5286,2.5286,2.5839,2.5893,2.6002,2.6286,2.5453,2.5005,2.5005,2.4337,2.4034,2.4021,2.5245,2.5893,2.5893,2.5893,2.5893,2.5893,2.5893,2.5893,2.5893,2.5893,2.5893,2.5893,2.5893,2.5893,2.5893,2.5893,2.6204,2.663,2.6111,2.664,2.7635,2.9173,2.8812,2.8411,2.7921,2.7945,2.8124,2.8304,2.8497,2.8726,2.9217,2.8609,2.8332,2.8825,2.7913,2.7634,2.8518,2.7897,2.7472,2.7472,2.725,2.6701,2.5875,2.6239,2.6521,2.6658,2.6521,2.6465,2.6396,2.627,2.6131,2.6131,2.597,2.5617,2.5074,2.4296,2.3704,2.3186,2.2476,2.2197,2.2197,2.2247,2.2309,2.2359,2.2359,2.242,2.242,2.2616,2.2896,2.316,2.2848,2.3424,2.4279,2.4221,2.4221,2.4221,2.4002,2.4279,2.461,2.4394,2.4496,2.4781,2.5106,2.5217,2.5453,2.6014,2.6122,2.6176,2.6433,2.5467,2.4724,2.5453,2.5175,2.4937,2.5342,2.5618,2.5439,2.4483,2.4253,2.4355,2.4754,2.4824,2.5287,2.65,2.6002,2.5729,2.6002,2.5564,2.5464,2.6004,2.5486,2.5253,2.5311,2.4813,2.4367,2.4021,2.4368,2.4794,2.5286,2.5286,2.5508,2.5893,2.5893,2.5893,2.5893,2.5893,2.5893,2.5893,2.5893,2.5948,2.6002,2.5948,2.6056,2.6272,2.6002,2.615,2.6443,2.991,2.9278,2.8771,2.8332,2.8132,2.8116,2.8415,2.845,2.8639,2.9156,2.8719,2.8356,2.8663,2.7934,2.7656,2.8276,2.7802,2.7456,2.7456,2.7323,2.6899,2.6286,2.6442,2.6438,2.6249,2.6329,2.6375,2.6396,2.627,2.6131,2.598,2.605,2.5807,2.5257,2.4707,2.4103,2.3502,2.279,2.2378,2.2197,2.2197,2.2247,2.2309,2.2309,2.2309,2.2359,2.2494,2.2871,2.3255,2.2992,2.3531,2.4337,2.4637,2.4523,2.4323,2.4323,2.4711,2.5106,2.4951,2.5231,2.5618,2.5974,2.5508,2.5161,2.5906,2.6068,2.619,2.6765,2.5865,2.5245,2.6014,2.5673,2.5398,2.5783,2.6122,2.6,2.4937,2.4867,2.4881,2.4781,2.4781,2.5063,2.5934,2.5495,2.5216,2.537,2.5133,2.507,2.5275,2.4958,2.4658,2.4497,2.4234,2.3837,2.328,2.328,2.3754,2.458,2.458,2.4921,2.5564,2.5564,2.5674,2.5893,2.5893,2.5893,2.5893,2.5893,2.5948,2.6002,2.5948,2.5948,2.6002,2.5948,2.5893,2.5948,3.0962,2.9767,2.8873,2.8972,2.8699,2.8562,2.8512,2.8769,2.9118,2.9598,2.9066,2.8804,2.9333,2.8663,2.821,2.8587,2.8341,2.8145,2.8079,2.7736,2.7443,2.7271,2.6818,2.6259,2.5665,2.6008,2.6155,2.627,2.627,2.605,2.5746,2.5898,2.5828,2.5652,2.5115,2.4548,2.4049,2.3284,2.2702,2.2258,2.2209,2.2197,2.2197,2.2197,2.2197,2.2185,2.2359,2.2811,2.3374,2.3433,2.3728,2.4208,2.4821,2.4637,2.4195,2.4195,2.4469,2.4924,2.5439,2.5783,2.619,2.6765,2.5508,2.4425,2.5342,2.5618,2.5892,2.6616,2.6418,2.6111,2.6297,2.5837,2.5618,2.6283,2.6404,2.6336,2.6176,2.6176,2.5906,2.5272,2.4948,2.4708,2.4624,2.4319,2.4216,2.4305,2.4597,2.4724,2.4474,2.4067,2.3678,2.3296,2.313,2.2775,2.2197,2.2246,2.2873,2.4021,2.3962,2.4279,2.5005,2.4948,2.5216,2.5839,2.5839,2.5839,2.5893,2.5893,2.5893,2.5893,2.5893,2.5948,2.5948,2.5948,2.5948,2.6002,3.1722,3.0945,2.9954,2.8913,2.9194,2.9167,2.8106,2.8639,2.9013,2.8665,2.8606,2.8641,2.8763,2.8356,2.821,2.8587,2.8522,2.8262,2.7669,2.7868,2.7604,2.6883,2.6308,2.6025,2.61,2.6323,2.6594,2.685,2.685,2.6769,2.6701,2.6452,2.6383,2.6414,2.5469,2.489,2.4572,2.3441,2.2919,2.2775,2.2354,2.2197,2.2197,2.2197,2.2197,2.2197,2.2247,2.2932,2.3904,2.4452,2.4708,2.4821,2.4948,2.5216,2.5481,2.5481,2.5536,2.5591,2.5467,2.5508,2.5618,2.5986,2.5741,2.5631,2.6616,2.6616,2.6669,2.7255,2.6602,2.6014,2.651,2.6122,2.5632,2.5384,2.5701,2.5728,2.5119,2.5063,2.5119,2.5356,2.4908,2.4794,2.5287,2.5048,2.4607,2.4157,2.4203,2.462,2.5455,2.4468,2.4064,2.452,2.3924,2.3147,2.2197,2.2606,2.3245,2.3962,2.3492,2.3859,2.5005,2.4452,2.4567,2.5174,2.5174,2.5453,2.5893,2.5893,2.5948,2.6056,2.5948,2.6096,2.6351,2.6244,2.6351,2.6578,3.2346,3.1507,3.0632,3.0336,3.0062,2.9611,2.8849,2.9158,2.9388,2.9188,2.8985,2.8955,2.9021,2.8633,2.8406,2.8587,2.8587,2.8457,2.8066,2.8197,2.8063,2.7367,2.6927,2.6628,2.6414,2.6854,2.7,2.6782,2.6905,2.6837,2.6589,2.6589,2.6452,2.6151,2.5797,2.532,2.4767,2.4008,2.3501,2.3083,2.2742,2.2426,2.2247,2.2531,2.2641,2.2641,2.2932,2.3446,2.4092,2.4765,2.4765,2.4624,2.537,2.5646,2.5756,2.615,2.6258,2.6258,2.6244,2.6283,2.6336,2.6573,2.6678,2.6692,2.6774,2.6841,2.6997,2.7152,2.6669,2.639,2.7049,2.639,2.5797,2.5811,2.5797,2.5577,2.4921,2.4865,2.4808,2.4751,2.4478,2.4478,2.4865,2.4664,2.439,2.3878,2.3865,2.404,2.4478,2.4098,2.3939,2.4026,2.3777,2.3247,2.2445,2.2587,2.2923,2.3551,2.2992,2.316,2.4105,2.4034,2.4394,2.5005,2.5286,2.5619,2.5893,2.6042,2.6042,2.6002,2.6042,2.6244,2.6404,2.6336,2.6457,2.6788,3.2974,3.1877,3.1155,3.1986,3.1046,3.0121,2.9851,2.9904,3.0014,3.0102,2.9672,2.9457,2.9482,2.894,2.8587,2.8522,2.8587,2.8587,2.8522,2.8587,2.8471,2.821,2.7826,2.7431,2.6947,2.7273,2.7141,2.6519,2.7002,2.6918,2.6408,2.6726,2.6564,2.607,2.622,2.5903,2.5185,2.4759,2.428,2.3646,2.3347,2.3006,2.2715,2.3065,2.3207,2.3267,2.3669,2.4021,2.431,2.4978,2.4851,2.4584,2.5837,2.5906,2.5673,2.6404,2.6669,2.6788,2.7115,2.7115,2.7115,2.7473,2.7473,2.7255,2.6496,2.6736,2.7063,2.6788,2.6683,2.6826,2.7203,2.6549,2.6068,2.6457,2.6122,2.5632,2.5216,2.5061,2.4778,2.4287,2.4171,2.4112,2.4112,2.4112,2.3995,2.3688,2.3688,2.3616,2.3424,2.3687,2.3664,2.3318,2.3418,2.3269,2.2739,2.2517,2.2629,2.304,2.2482,2.2531,2.3088,2.3505,2.4105,2.4878,2.5384,2.5715,2.5893,2.6136,2.615,2.5988,2.619,2.6336,2.6457,2.651,2.6669,2.693,3.3905,3.2834,3.1798,3.2069,3.1812,3.1227,3.0041,3.0405,3.0636,3.0156,3.0186,3.0079,2.9536,2.894,2.8471,2.821,2.8406,2.8471,2.821,2.8471,2.8587,2.8522,2.7749,2.749,2.788,2.6947,2.6519,2.6661,2.7565,2.7736,2.7335,2.7403,2.755,2.7802,2.7204,2.6828,2.6742,2.553,2.5299,2.5613,2.4519,2.4333,2.4533,2.3731,2.3492,2.3518,2.3327,2.4066,2.5287,2.5906,2.6068,2.6,2.5988,2.6042,2.6176,2.6336,2.651,2.6788,2.7115,2.6841,2.6563,2.7115,2.7063,2.6721,2.6404,2.6563,2.6736,2.6736,2.6683,2.6563,2.6108,2.6336,2.6457,2.6014,2.5837,2.5783,2.5687,2.5258,2.4948,2.4892,2.439,2.4112,2.4112,2.4112,2.4054,2.4054,2.4054,2.4216,2.4721,2.4034,2.387,2.4292,2.4019,2.3567,2.3017,2.3182,2.3058,2.2739,2.2371,2.2531,2.3088,2.2641,2.3053,2.415,2.4195,2.4894,2.5893,2.5948,2.6096,2.6244,2.6297,2.6616,2.7115,2.7372,2.7458,2.7509,3.3959,3.296,3.2218,3.3138,3.2652,3.1992,3.1621,3.1514,3.1406,3.1137,3.0899,3.0659,3.0527,2.9659,2.8888,2.8433,2.8522,2.8522,2.8406,2.8522,2.8587,2.8587,2.8201,2.7833,2.7573,2.832,2.8121,2.6982,2.7389,2.7379,2.7027,2.7366,2.7564,2.7644,2.7217,2.7027,2.6976,2.5971,2.5875,2.6349,2.564,2.5553,2.5868,2.5499,2.5168,2.4819,2.4287,2.4469,2.498,2.5769,2.604,2.6094,2.6525,2.6336,2.6147,2.6811,2.664,2.6375,2.7203,2.71,2.6893,2.7321,2.7306,2.7086,2.6616,2.6616,2.6616,2.6283,2.6457,2.651,2.5906,2.6014,2.6014,2.5425,2.537,2.5258,2.4878,2.4664,2.4505,2.4505,2.4287,2.4112,2.4112,2.4112,2.4112,2.4112,2.4112,2.4229,2.4505,2.3923,2.3734,2.4015,2.3498,2.3096,2.286,2.296,2.2787,2.2432,2.2432,2.2555,2.2592,2.2884,2.3292,2.38,2.4523,2.5174,2.5702,2.5988,2.619,2.6283,2.6457,2.6788,2.7233,2.7524,2.7625,2.7625]}]]